[[{"header":{"parameterUnit":"m.s-1","parameterCategory":1,"la1":30.6,"la2":28.766,"lo1":-90.7593,"lo2":-88.6598,"dy":0.0162,"dx":0.0183,"nx":116,"ny":114,"refTime":"2023-06-14T12:00:00:Z","depth":0,"parameterNumber":2,"parameterNumberName":"U-component_of_WINDS"},"data":[0.0,0.0,0.0,0.0,0.0,0.0,0.0,0.0,0.0,0.0,0.0,0.0,0.0,0.0,0.0,0.0,0.0,0.0,0.0,0.0,0.0,0.0,0.0,0.0,0.0,0.0,0.0,0.0,0.0,0.0,0.0,0.0,0.0,0.0,0.0,0.0,0.0,0.0,0.0,0.0,0.0,0.0,0.0,0.0,0.0,0.0,0.0,0.0,0.0,0.0,0.0,0.0,0.0,0.0,0.0,0.0,0.0,0.0,0.0,0.0,0.0,0.0,0.0,0.0,0.0,0.0,0.0,0.0,0.0,0.0,0.0,0.0,0.0,0.0,0.0,0.0,0.0,0.0,0.0,0.0,0.0,0.0,0.0,0.0,0.0,0.0,0.0,0.0,0.0,0.0,0.0,0.0,0.0,0.0,0.0,0.0,0.0,0.0,0.0,0.0,0.0,0.0,0.0,0.0,0.0,0.0,0.0,0.0,0.0,0.0,0.0,0.0,0.0,0.0,0.0,0.0,0.0,0.0,0.0,0.0,0.0,0.0,0.0,0.0,0.0,0.0,0.0,0.0,0.0,0.0,0.0,0.0,0.0,0.0,0.0,0.0,0.0,0.0,0.0,0.0,0.0,0.0,0.0,0.0,0.0,0.0,0.0,0.0,0.0,0.0,0.0,0.0,0.0,0.0,0.0,0.0,0.0,0.0,0.0,0.0,0.0,0.0,0.0,0.0,0.0,0.0,0.0,0.0,0.0,0.0,0.0,0.0,0.0,0.0,0.0,0.0,0.0,0.0,0.0,0.0,0.0,0.0,0.0,0.0,0.0,0.0,0.0,0.0,0.0,0.0,0.0,0.0,0.0,0.0,0.0,0.0,0.0,0.0,0.0,0.0,0.0,0.0,0.0,0.0,0.0,0.0,0.0,0.0,0.0,0.0,0.0,0.0,0.0,0.0,0.0,0.0,0.0,0.0,0.0,0.0,0.0,0.0,0.0,0.0,0.0,0.0,0.0,0.0,0.0,0.0,0.0,0.0,0.0,0.0,0.0,0.0,0.0,0.0,0.0,0.0,0.0,0.0,0.0,0.0,0.0,0.0,0.0,0.0,0.0,0.0,0.0,0.0,0.0,0.0,0.0,0.0,0.0,0.0,0.0,0.0,0.0,0.0,0.0,0.0,0.0,0.0,0.0,0.0,0.0,0.0,0.0,0.0,0.0,0.0,0.0,0.0,0.0,0.0,0.0,0.0,0.0,0.0,0.0,0.0,0.0,0.0,0.0,0.0,0.0,0.0,0.0,0.0,0.0,0.0,0.0,0.0,0.0,0.0,0.0,0.0,0.0,0.0,0.0,0.0,0.0,0.0,0.0,0.0,0.0,0.0,0.0,0.0,0.0,0.0,0.0,0.0,0.0,0.0,0.0,0.0,0.0,0.0,0.0,0.0,0.0,0.0,0.0,0.0,0.0,0.0,0.0,0.0,0.0,0.0,0.0,0.0,0.0,0.0,0.0,0.0,0.0,0.0,0.0,0.0,0.0,0.0,0.0,0.0,0.0,0.0,0.0,0.0,0.0,0.0,0.0,0.0,0.0,0.0,0.0,0.0,0.0,0.0,0.0,0.0,0.0,0.0,0.0,0.0,0.0,0.0,0.0,0.0,0.0,0.0,0.0,0.0,0.0,0.0,0.0,0.0,0.0,0.0,0.0,0.0,0.0,0.0,0.0,0.0,0.0,0.0,0.0,0.0,0.0,0.0,0.0,0.0,0.0,0.0,0.0,0.0,0.0,0.0,0.0,0.0,0.0,0.0,0.0,0.0,0.0,0.0,0.0,0.0,0.0,0.0,0.0,0.0,0.0,0.0,0.0,0.0,0.0,0.0,0.0,0.0,0.0,0.0,0.0,0.0,0.0,0.0,0.0,0.0,0.0,0.0,0.0,0.0,0.0,0.0,0.0,0.0,0.0,0.0,0.0,0.0,0.0,0.0,0.0,0.0,0.0,0.0,0.0,0.0,0.0,0.0,0.0,0.0,0.0,0.0,0.0,0.0,0.0,0.0,0.0,0.0,0.0,0.0,0.0,0.0,0.0,0.0,0.0,0.0,0.0,0.0,0.0,0.0,0.0,0.0,0.0,0.0,0.0,0.0,0.0,0.0,0.0,0.0,0.0,0.0,0.0,0.0,0.0,0.0,0.0,0.0,0.0,0.0,0.0,0.0,0.0,0.0,0.0,0.0,0.0,0.0,0.0,0.0,0.0,0.0,0.0,0.0,0.0,0.0,0.0,0.0,0.0,0.0,0.0,0.0,0.0,0.0,0.0,0.0,0.0,0.0,0.0,0.0,0.0,0.0,0.0,0.0,0.0,0.0,0.0,0.0,0.0,0.0,0.0,0.0,0.0,0.0,0.0,0.0,0.0,0.0,0.0,0.0,0.0,0.0,0.0,0.0,0.0,0.0,0.0,0.0,0.0,0.0,0.0,0.0,0.0,0.0,0.0,0.0,0.0,0.0,0.0,0.0,0.0,0.0,0.0,0.0,0.0,0.0,0.0,0.0,0.0,0.0,0.0,0.0,0.0,0.0,0.0,0.0,0.0,0.0,0.0,0.0,0.0,0.0,0.0,0.0,0.0,0.0,0.0,0.0,0.0,0.0,0.0,0.0,0.0,0.0,0.0,0.0,0.0,0.0,0.0,0.0,0.0,0.0,0.0,0.0,0.0,0.0,0.0,0.0,0.0,0.0,0.0,0.0,0.0,0.0,0.0,0.0,0.0,0.0,0.0,0.0,0.0,0.0,0.0,0.0,0.0,0.0,0.0,0.0,0.0,0.0,0.0,0.0,0.0,0.0,0.0,0.0,0.0,0.0,0.0,0.0,0.0,0.0,0.0,0.0,0.0,0.0,0.0,0.0,0.0,0.0,0.0,0.0,0.0,0.0,0.0,0.0,0.0,0.0,0.0,0.0,0.0,0.0,0.0,0.0,0.0,0.0,0.0,0.0,0.0,0.0,0.0,0.0,0.0,0.0,0.0,0.0,0.0,0.0,0.0,0.0,0.0,0.0,0.0,0.0,0.0,0.0,0.0,0.0,0.0,0.0,0.0,0.0,0.0,0.0,0.0,0.0,0.0,0.0,0.0,0.0,0.0,0.0,0.0,0.0,0.0,0.0,0.0,0.0,0.0,0.0,0.0,0.0,0.0,0.0,0.0,0.0,0.0,0.0,0.0,0.0,0.0,0.0,0.0,0.0,0.0,0.0,0.0,0.0,0.0,0.0,0.0,0.0,0.0,0.0,0.0,0.0,0.0,0.0,0.0,0.0,0.0,0.0,0.0,0.0,0.0,0.0,0.0,0.0,0.0,0.0,0.0,0.0,0.0,0.0,0.0,0.0,0.0,0.0,0.0,0.0,0.0,0.0,0.0,0.0,0.0,0.0,0.0,0.0,0.0,0.0,0.0,0.0,0.0,0.0,0.0,0.0,0.0,0.0,0.0,0.0,0.0,0.0,0.0,0.0,0.0,0.0,0.0,0.0,0.0,0.0,0.0,0.0,0.0,0.0,0.0,0.0,0.0,0.0,0.0,0.0,0.0,0.0,0.0,0.0,0.0,0.0,0.0,0.0,0.0,0.0,0.0,0.0,0.0,0.0,0.0,0.0,0.0,0.0,0.0,0.0,0.0,0.0,0.0,0.0,0.0,0.0,0.0,0.0,0.0,0.0,0.0,0.0,0.0,0.0,0.0,0.0,0.0,0.0,0.0,0.0,0.0,0.0,0.0,0.0,0.0,0.0,0.0,0.0,0.0,0.0,0.0,0.0,0.0,0.0,0.0,0.0,0.0,0.0,0.0,0.0,0.0,0.0,0.0,0.0,0.0,0.0,0.0,0.0,0.0,0.0,0.0,0.0,0.0,0.0,0.0,0.0,0.0,0.0,0.0,0.0,0.0,0.0,0.0,0.0,0.0,0.0,0.0,0.0,0.0,0.0,0.0,0.0,0.0,0.0,0.0,0.0,0.0,0.0,0.0,0.0,0.0,0.0,0.0,0.0,0.0,0.0,0.0,0.0,0.0,0.0,0.0,0.0,0.0,0.0,0.0,0.0,0.0,0.0,0.0,0.0,0.0,0.0,0.0,0.0,0.0,0.0,0.0,0.0,0.0,0.0,0.0,0.0,0.0,0.0,0.0,0.0,0.0,0.0,0.0,0.0,0.0,0.0,0.0,0.0,0.0,0.0,0.0,0.0,0.0,0.0,0.0,0.0,0.0,0.0,0.0,0.0,0.0,0.0,0.0,0.0,0.0,0.0,0.0,0.0,0.0,0.0,0.0,0.0,0.0,0.0,0.0,0.0,0.0,0.0,0.0,0.0,0.0,0.0,0.0,0.0,0.0,0.0,0.0,0.0,0.0,0.0,0.0,0.0,0.0,0.0,0.0,0.0,0.0,0.0,0.0,0.0,0.0,0.0,0.0,0.0,0.0,0.0,0.0,0.0,0.0,0.0,0.0,0.0,0.0,0.0,0.0,0.0,0.0,0.0,0.0,0.0,0.0,0.0,0.0,0.0,0.0,0.0,0.0,0.0,0.0,0.0,0.0,0.0,0.0,0.0,0.0,0.0,0.0,0.0,0.0,0.0,0.0,0.0,0.0,0.0,0.0,0.0,0.0,0.0,0.0,0.0,0.0,0.0,0.0,0.0,0.0,0.0,0.0,0.0,0.0,0.0,0.0,0.0,0.0,0.0,0.0,0.0,0.0,0.0,0.0,0.0,0.0,0.0,0.0,0.0,0.0,0.0,0.0,0.0,0.0,0.0,0.0,0.0,0.0,0.0,0.0,0.0,0.0,0.0,0.0,0.0,0.0,0.0,0.0,0.0,0.0,0.0,0.0,0.0,0.0,0.0,0.0,0.0,0.0,0.0,0.0,0.0,0.0,0.0,0.0,0.0,0.0,0.0,0.0,0.0,0.0,0.0,0.0,0.0,0.0,0.0,0.0,0.0,0.0,0.0,0.0,0.0,0.0,0.0,0.0,0.0,0.0,0.0,0.0,0.0,0.0,0.0,0.0,0.0,0.0,0.0,0.0,0.0,0.0,0.0,0.0,0.0,0.0,0.0,0.0,0.0,0.0,0.0,0.0,0.0,0.0,0.0,0.0,0.0,0.0,0.0,0.0,0.0,0.0,0.0,0.0,0.0,0.0,0.0,0.0,0.0,0.0,0.0,0.0,0.0,0.0,0.0,0.0,0.0,0.0,0.0,0.0,0.0,0.0,0.0,0.0,0.0,0.0,0.0,0.0,0.0,0.0,0.0,0.0,0.0,0.0,0.0,0.0,0.0,0.0,0.0,0.0,0.0,0.0,0.0,0.0,0.0,0.0,0.0,0.0,0.0,0.0,0.0,0.0,0.0,0.0,0.0,0.0,0.0,0.0,0.0,0.0,0.0,0.0,0.0,0.0,0.0,0.0,0.0,0.0,0.0,0.0,0.0,0.0,0.0,0.0,0.0,0.0,0.0,0.0,0.0,0.0,0.0,0.0,0.0,0.0,0.0,0.0,0.0,0.0,0.0,0.0,0.0,0.0,0.0,0.0,0.0,0.0,0.0,0.0,0.0,0.0,0.0,0.0,0.0,0.0,0.0,0.0,0.0,0.0,0.0,0.0,0.0,0.0,0.0,0.0,0.0,0.0,0.0,0.0,0.0,0.0,0.0,0.0,0.0,0.0,0.0,0.0,0.0,0.0,0.0,0.0,0.0,0.0,0.0,0.0,0.0,0.0,0.0,0.0,0.0,0.0,0.0,0.0,0.0,0.0,0.0,0.0,0.0,0.0,0.0,0.0,0.0,0.0,0.0,0.0,0.0,0.0,0.0,0.0,0.0,0.0,0.0,0.0,0.0,0.0,0.0,0.0,0.0,0.0,0.0,0.0,0.0,0.0,0.0,0.0,0.0,0.0,0.0,0.0,0.0,0.0,0.0,0.0,0.0,0.0,0.0,0.0,0.0,0.0,0.0,0.0,0.0,0.0,0.0,0.0,0.0,0.0,0.0,0.0,0.0,0.0,0.0,0.0,0.0,0.0,0.0,0.0,0.0,0.0,0.0,0.0,0.0,0.0,0.0,0.0,0.0,0.0,0.0,-4.739,0.0,0.0,0.0,0.0,0.0,0.0,0.0,0.0,0.0,0.0,0.0,0.0,0.0,0.0,0.0,0.0,0.0,0.0,0.0,0.0,0.0,0.0,0.0,0.0,0.0,0.0,0.0,0.0,0.0,0.0,0.0,0.0,0.0,0.0,0.0,0.0,0.0,0.0,0.0,0.0,0.0,0.0,0.0,0.0,0.0,0.0,0.0,0.0,0.0,0.0,0.0,0.0,0.0,0.0,0.0,0.0,0.0,0.0,0.0,0.0,0.0,0.0,0.0,0.0,0.0,0.0,0.0,0.0,0.0,0.0,0.0,0.0,0.0,0.0,0.0,0.0,0.0,0.0,0.0,0.0,0.0,0.0,0.0,0.0,0.0,0.0,0.0,0.0,0.0,0.0,0.0,0.0,0.0,0.0,0.0,0.0,0.0,0.0,0.0,0.0,0.0,0.0,0.0,0.0,0.0,0.0,0.0,0.0,0.0,0.0,0.0,0.0,0.0,0.0,0.0,0.0,-4.8675,0.0,0.0,0.0,0.0,0.0,0.0,0.0,0.0,0.0,0.0,0.0,0.0,0.0,0.0,0.0,0.0,0.0,0.0,0.0,0.0,0.0,0.0,0.0,0.0,0.0,0.0,0.0,0.0,0.0,0.0,0.0,0.0,0.0,0.0,0.0,0.0,0.0,0.0,0.0,0.0,0.0,0.0,0.0,0.0,0.0,0.0,0.0,0.0,0.0,0.0,0.0,0.0,0.0,0.0,0.0,0.0,0.0,0.0,0.0,0.0,0.0,0.0,0.0,0.0,0.0,0.0,0.0,0.0,0.0,0.0,0.0,0.0,0.0,0.0,0.0,0.0,0.0,0.0,0.0,0.0,0.0,0.0,0.0,0.0,0.0,0.0,0.0,0.0,0.0,0.0,0.0,0.0,0.0,0.0,0.0,0.0,0.0,0.0,0.0,0.0,0.0,0.0,0.0,0.0,0.0,0.0,0.0,0.0,0.0,-5.2799,-5.3191,-5.4,-5.4445,-5.4472,-5.2481,-5.1419,-5.1016,0.0,0.0,0.0,0.0,0.0,0.0,0.0,0.0,0.0,0.0,0.0,0.0,0.0,0.0,0.0,0.0,0.0,0.0,0.0,0.0,0.0,0.0,0.0,0.0,0.0,0.0,0.0,0.0,0.0,0.0,0.0,0.0,0.0,0.0,0.0,0.0,0.0,0.0,0.0,-5.0095,-5.0046,-5.0219,-5.065,-4.9227,0.0,0.0,0.0,0.0,0.0,0.0,0.0,0.0,0.0,0.0,0.0,0.0,0.0,0.0,0.0,0.0,0.0,0.0,0.0,0.0,0.0,0.0,0.0,0.0,0.0,0.0,0.0,0.0,0.0,0.0,0.0,0.0,0.0,0.0,0.0,0.0,0.0,0.0,0.0,0.0,0.0,0.0,0.0,-3.7811,-3.8078,0.0,0.0,0.0,0.0,0.0,0.0,0.0,0.0,0.0,0.0,0.0,0.0,0.0,0.0,-4.9223,-5.0136,-5.1322,-5.279,-5.3753,-5.4966,-5.63,-5.6551,-5.7034,-5.7665,-5.6673,0.0,-5.3318,-5.25,0.0,0.0,0.0,0.0,0.0,0.0,0.0,0.0,0.0,0.0,0.0,0.0,0.0,0.0,0.0,0.0,0.0,0.0,0.0,0.0,0.0,0.0,0.0,0.0,0.0,0.0,0.0,0.0,0.0,0.0,0.0,0.0,0.0,0.0,0.0,0.0,-4.8037,-4.917,-5.0241,-5.0865,-5.123,-5.1437,-5.0948,-5.0026,-4.8871,-4.8306,0.0,0.0,0.0,0.0,0.0,0.0,0.0,0.0,0.0,0.0,0.0,0.0,0.0,0.0,0.0,0.0,0.0,0.0,0.0,0.0,0.0,0.0,0.0,0.0,0.0,0.0,0.0,0.0,0.0,0.0,0.0,0.0,0.0,0.0,0.0,0.0,0.0,0.0,0.0,-3.9429,-4.0059,-4.0626,-4.0808,-4.093,0.0,0.0,0.0,0.0,0.0,0.0,0.0,0.0,0.0,-4.7442,-4.838,-4.9539,-5.0978,-5.2664,-5.3822,-5.4524,-5.6234,-5.7389,-5.8123,-5.8663,-5.9112,-5.9395,-5.9168,-5.8243,-5.6728,-5.503,-5.4048,-5.3541,0.0,0.0,0.0,0.0,0.0,-5.1673,0.0,0.0,0.0,0.0,0.0,0.0,0.0,0.0,0.0,0.0,0.0,0.0,0.0,0.0,0.0,0.0,0.0,0.0,0.0,0.0,0.0,0.0,0.0,0.0,0.0,0.0,0.0,0.0,-4.8663,-4.9374,-5.0273,-5.1308,-5.1809,-5.1763,-5.2148,-5.1446,-4.996,-4.9374,-4.8808,0.0,0.0,0.0,0.0,0.0,0.0,0.0,0.0,0.0,0.0,0.0,0.0,0.0,0.0,0.0,0.0,0.0,0.0,0.0,0.0,0.0,0.0,0.0,0.0,0.0,0.0,0.0,0.0,0.0,0.0,0.0,0.0,0.0,0.0,0.0,0.0,0.0,0.0,-4.1052,-4.1937,-4.2612,-4.2869,-4.315,0.0,0.0,0.0,0.0,0.0,0.0,-4.5958,-4.6695,-4.7723,-4.9082,-5.0662,-5.1926,-5.2909,-5.4805,-5.6104,-5.6701,-5.8457,-5.951,-5.9896,-6.0551,-6.0861,-6.0861,-6.1023,-6.0639,-5.9839,-5.7545,-5.6106,-5.5308,-5.5221,-5.484,-5.4384,-5.4384,-5.4272,-5.4062,0.0,0.0,0.0,0.0,0.0,0.0,0.0,0.0,0.0,0.0,0.0,0.0,0.0,0.0,0.0,0.0,0.0,0.0,0.0,0.0,0.0,0.0,0.0,0.0,0.0,0.0,0.0,-4.8643,-4.8707,-4.9373,-5.0596,-5.1293,-5.1494,-5.1367,-5.1986,-5.2241,-5.2145,-5.191,-5.0916,-4.9487,0.0,0.0,0.0,0.0,0.0,0.0,0.0,0.0,0.0,0.0,0.0,0.0,0.0,0.0,0.0,0.0,0.0,0.0,0.0,0.0,0.0,0.0,0.0,0.0,0.0,0.0,0.0,0.0,0.0,0.0,0.0,0.0,0.0,0.0,0.0,0.0,0.0,0.0,0.0,-4.268,-4.2869,0.0,0.0,0.0,0.0,-4.6914,-4.7146,-4.7573,-4.838,-4.9118,-4.989,-5.0733,-5.2305,-5.3787,-5.5332,-5.6139,-5.7649,-5.9861,-6.0001,-6.0809,-6.2213,-6.2281,-6.2281,-6.2281,-6.2317,-6.2281,-6.2071,-5.9914,-5.844,-5.7614,-5.7614,-5.7614,-5.7579,-5.7579,-5.7087,-5.6315,0.0,0.0,0.0,0.0,0.0,0.0,0.0,0.0,0.0,0.0,0.0,0.0,0.0,0.0,0.0,0.0,0.0,0.0,0.0,0.0,0.0,0.0,0.0,0.0,0.0,0.0,-4.6924,-4.8556,-4.8556,-4.9256,-5.0621,-5.1614,-5.2004,-5.1986,-5.287,-5.3249,-5.3186,-5.2219,-5.1476,-5.0859,-4.9665,-4.8568,0.0,0.0,0.0,0.0,0.0,0.0,0.0,0.0,0.0,0.0,0.0,0.0,0.0,0.0,0.0,0.0,0.0,0.0,0.0,0.0,0.0,0.0,0.0,0.0,0.0,0.0,0.0,0.0,0.0,0.0,0.0,0.0,0.0,0.0,0.0,0.0,0.0,-4.5679,-4.5917,0.0,-4.6637,-4.6804,-4.7169,-4.7858,-4.8513,-4.9223,-5.003,-5.0768,-5.1997,-5.3787,-5.4384,-5.5683,-5.7754,-5.8492,-5.9545,-6.0879,-6.1862,-6.288,-6.3898,-6.4425,-6.4917,-6.5338,-6.4846,-6.4355,-6.3793,-6.256,-6.126,-6.0001,-5.9475,-5.8983,-5.8527,-5.8,-5.7614,-5.7333,0.0,0.0,0.0,0.0,0.0,0.0,0.0,0.0,0.0,0.0,0.0,0.0,0.0,0.0,0.0,0.0,0.0,0.0,0.0,0.0,0.0,0.0,0.0,0.0,0.0,-4.5664,-4.6965,-4.8366,-4.8366,-4.903,-5.0395,-5.1414,-5.196,-5.2122,-5.3038,-5.3526,-5.3596,-5.2602,-5.2028,-5.1715,-5.0516,-4.9543,-4.8656,0.0,0.0,0.0,0.0,0.0,0.0,0.0,0.0,0.0,0.0,0.0,0.0,0.0,0.0,0.0,0.0,0.0,0.0,0.0,0.0,0.0,0.0,0.0,0.0,0.0,0.0,0.0,0.0,0.0,0.0,0.0,0.0,0.0,0.0,0.0,-4.6178,-4.7346,-4.7829,-4.8266,-4.8695,-4.9055,-4.947,-4.9905,-5.0503,-5.1224,-5.1997,-5.2769,-5.4033,-5.5823,-5.6631,-5.779,-5.9369,-6.0352,-6.1406,-6.2459,-6.3477,-6.4495,-6.5514,-6.604,-6.6532,-6.6988,-6.6461,-6.5829,-6.5092,-6.4566,-6.3618,-6.2354,-6.13,-6.0563,-6.0036,-5.9264,-5.8983,-5.8913,0.0,0.0,0.0,0.0,0.0,0.0,0.0,0.0,0.0,0.0,0.0,0.0,0.0,0.0,0.0,0.0,0.0,0.0,0.0,0.0,0.0,0.0,0.0,0.0,-4.4188,-4.5562,-4.6893,-4.8078,-4.8078,-4.8694,-4.986,-5.0627,-5.1231,-5.1748,-5.2408,-5.2938,-5.3377,-5.3144,-5.2683,-5.2033,-5.2002,-5.0665,-4.8666,0.0,0.0,0.0,0.0,0.0,0.0,0.0,0.0,0.0,0.0,0.0,0.0,0.0,0.0,0.0,0.0,0.0,0.0,0.0,0.0,0.0,0.0,0.0,0.0,0.0,0.0,0.0,0.0,0.0,0.0,0.0,0.0,0.0,-4.4952,-4.6277,-4.7375,-4.7586,-4.8408,-4.9331,-5.0363,-5.1192,-5.2072,-5.3155,-5.3254,-5.3576,-5.4349,-5.5156,-5.5929,-5.6701,-5.8913,-6.0142,-6.0247,-6.1722,-6.3231,-6.4776,-6.4776,-6.5584,-6.7058,-6.7058,-6.7058,-6.7093,-6.7058,-6.6637,-6.597,-6.59,-6.5443,-6.4601,-6.3021,-6.2424,-6.2354,-6.1616,-6.1336,-6.109,0.0,0.0,0.0,0.0,0.0,0.0,0.0,0.0,0.0,0.0,0.0,0.0,0.0,0.0,0.0,0.0,0.0,0.0,0.0,0.0,0.0,0.0,0.0,0.0,-4.4188,-4.5349,-4.6344,-4.7162,-4.77,-4.8358,-4.9205,-5.0277,-5.1099,-5.1706,-5.2067,-5.258,-5.3144,-5.2953,-5.2695,-5.2479,-5.1986,-5.111,-5.002,0.0,0.0,0.0,0.0,0.0,0.0,0.0,0.0,0.0,0.0,0.0,0.0,0.0,0.0,0.0,0.0,0.0,0.0,0.0,0.0,0.0,0.0,0.0,0.0,0.0,0.0,0.0,0.0,0.0,0.0,0.0,0.0,-4.8044,-4.75,-4.8246,-4.9179,-4.9997,-5.0927,-5.1656,-5.2039,-5.2364,-5.2956,-5.3899,-5.4559,-5.5191,-5.5929,-5.6736,-5.7754,-5.9089,-5.9756,-6.116,-6.3407,-6.3863,-6.4846,-6.6391,-6.6391,-6.6918,-6.7901,-6.7901,-6.8182,-6.8708,-6.8112,-6.776,-6.748,-6.6356,-6.5759,-6.5408,-6.3863,-6.3267,-6.3161,-6.2389,-6.1757,-6.116,0.0,0.0,0.0,0.0,0.0,0.0,0.0,0.0,0.0,0.0,0.0,0.0,0.0,0.0,0.0,0.0,0.0,0.0,0.0,0.0,0.0,0.0,0.0,-4.4154,-4.4118,-4.5239,-4.6139,-4.6803,-4.753,-4.8225,-4.892,-4.9827,-5.0545,-5.1142,-5.1417,-5.1958,-5.252,-5.2651,-5.2698,-5.2667,-5.2298,-5.1713,-5.1005,-4.9897,-4.8881,-4.7804,-4.6049,-4.5103,-4.4456,-4.3371,0.0,0.0,0.0,0.0,0.0,0.0,0.0,0.0,0.0,0.0,0.0,0.0,0.0,0.0,0.0,0.0,0.0,0.0,0.0,0.0,0.0,0.0,0.0,0.0,-4.8443,-4.9422,-4.9714,-5.0214,-5.0811,-5.1498,-5.2403,-5.3003,-5.3187,-5.3922,-5.4629,-5.5197,-5.5999,-5.6947,-5.8,-5.8492,-5.9475,-6.102,-6.1687,-6.288,-6.4706,-6.5373,-6.6286,-6.7515,-6.7515,-6.8112,-6.9165,-6.8849,-6.913,0.0,-6.9024,-6.8533,-6.8112,-6.6883,-6.6181,0.0,0.0,0.0,0.0,0.0,-6.1932,-6.1195,0.0,0.0,0.0,0.0,0.0,0.0,0.0,0.0,0.0,0.0,0.0,0.0,0.0,0.0,0.0,0.0,0.0,0.0,0.0,0.0,0.0,0.0,-4.3585,-4.4186,-4.4047,-4.5203,-4.6108,-4.6676,-4.7403,-4.813,-4.8794,-4.9253,-4.9774,-5.032,-5.068,-5.1117,-5.1621,-5.2298,-5.2606,-5.2606,-5.2561,-5.2161,-5.1528,-5.0869,-4.9793,-4.8409,-4.7108,-4.5856,-4.4695,-4.4048,0.0,0.0,0.0,0.0,0.0,0.0,0.0,0.0,0.0,0.0,0.0,0.0,0.0,0.0,0.0,0.0,0.0,0.0,0.0,0.0,0.0,0.0,0.0,0.0,-4.9382,-5.0202,-5.1657,-5.2118,-5.2306,-5.2356,-5.3298,-5.397,-5.4152,-5.5628,-5.6654,-5.6842,-5.7614,-5.8702,-6.0142,0.0,0.0,0.0,0.0,-6.4846,-6.5092,-6.6461,-6.7585,-6.8463,-6.8463,-6.9235,-7.0604,-6.9937,-6.9972,-7.0464,-6.9797,-6.906,-6.8287,-6.748,-6.6637,-6.5794,-6.5022,-6.4672,-6.4496,-6.2952,-6.1934,0.0,0.0,0.0,0.0,0.0,0.0,0.0,0.0,0.0,0.0,0.0,0.0,0.0,0.0,0.0,0.0,0.0,0.0,0.0,0.0,0.0,0.0,0.0,0.0,-4.4356,-4.4154,-4.5416,-4.6031,-4.6013,-4.6676,-4.7372,-4.8098,-4.8404,-4.9175,-5.032,-5.0058,-5.0309,-5.0944,-5.1621,-5.1898,-5.1898,-5.1645,-5.1291,-5.0882,-5.0511,-4.9549,-4.8221,-4.725,-4.6509,-4.5874,-4.5192,-4.4266,-4.3408,-4.3254,-4.2817,0.0,0.0,0.0,0.0,0.0,0.0,0.0,0.0,0.0,0.0,0.0,0.0,0.0,0.0,0.0,0.0,0.0,0.0,0.0,-4.9634,-5.1167,-5.2372,-5.2769,-5.351,-5.3839,-5.3402,-5.4699,-5.5754,-5.5907,-5.6865,-5.7829,-5.8492,-5.9229,-6.0072,-6.102,-6.1616,0.0,-6.4214,-6.4566,-6.5619,-6.7515,-6.7831,-6.8673,-7.0078,0.0,0.0,-7.1482,-7.1342,-7.0991,-7.0499,-7.0359,-6.9867,-6.9095,-6.8322,-6.7164,-6.5794,-6.5022,-6.4672,-6.4496,-6.2852,-6.2153,-6.1805,0.0,0.0,0.0,0.0,0.0,0.0,0.0,0.0,0.0,0.0,0.0,0.0,0.0,0.0,0.0,0.0,0.0,0.0,0.0,0.0,0.0,0.0,0.0,0.0,-4.4188,-4.5069,-4.5623,-4.5823,-4.6487,-4.6992,-4.7372,-4.7989,-4.8667,-4.9281,-4.9583,-4.9866,-5.0236,-5.0913,-5.119,-5.119,-5.0896,-5.0498,-5.0002,-4.9713,-4.92,-4.8468,-4.7004,-4.6346,-4.6011,-4.5083,-4.4435,-4.3905,-4.3679,-4.3377,-4.2971,0.0,0.0,0.0,0.0,0.0,0.0,0.0,0.0,0.0,0.0,0.0,0.0,0.0,0.0,-4.6848,0.0,0.0,-5.0019,-5.118,-5.2215,-5.3088,-5.359,-5.4221,-5.4686,-5.4745,-5.5595,-5.6412,-5.6947,-5.7837,-5.8737,-5.9475,-6.0247,-6.1371,-6.2915,-6.3372,-6.425,-6.5829,-6.6251,-6.7234,-6.8779,-6.9165,-6.9937,-7.1096,-7.1096,-7.1517,-7.2254,-7.1868,-7.1482,-7.1096,-7.0675,-7.0078,-6.9305,-6.8112,-6.6918,-6.5794,-6.4918,-6.4568,-6.4393,-6.2784,-6.2123,-6.1811,0.0,0.0,0.0,0.0,0.0,0.0,0.0,0.0,0.0,0.0,0.0,0.0,0.0,0.0,0.0,0.0,0.0,0.0,0.0,0.0,0.0,0.0,0.0,0.0,0.0,-4.4724,-4.525,-4.5638,-4.6266,-4.6676,-4.6834,-4.755,-4.7949,-4.8097,-4.8934,-4.9281,-4.9343,-5.0143,-5.0513,-5.0482,-5.0149,-4.9726,-4.9194,-4.8663,-4.8486,-4.8316,-4.6667,-4.591,-4.5597,-4.473,-4.4388,-4.4213,-4.3888,-4.3809,-4.3685,-4.2971,-4.2823,0.0,0.0,0.0,0.0,0.0,0.0,0.0,0.0,0.0,-4.5962,-4.6814,-4.7637,-4.8498,-4.9591,-5.0458,-5.1362,-5.2495,-5.2893,-5.3361,-5.4136,-5.4695,-5.5296,-5.6091,-5.6353,-5.6823,-5.7782,-5.8819,-5.9685,-6.0282,-6.1336,-6.2775,-6.4601,-6.4952,-6.5865,-6.7409,-6.8112,-6.8884,-6.9832,-7.0429,-7.1131,-7.1903,-7.1903,-7.2325,-7.3027,-7.243,-7.2009,-7.1658,-7.071,-6.9937,-6.9307,-6.7655,-6.6602,-6.5935,-6.4848,-6.4358,-6.4148,-6.2787,-6.2091,-6.1606,0.0,0.0,0.0,0.0,0.0,0.0,0.0,0.0,0.0,0.0,0.0,0.0,0.0,0.0,0.0,0.0,0.0,0.0,0.0,0.0,0.0,0.0,0.0,0.0,0.0,0.0,-4.5237,-4.5091,-4.5642,-4.6234,-4.6803,-4.6548,-4.6764,-4.7318,-4.7698,-4.7835,-4.7927,-4.9251,-4.9805,-4.9762,-4.9347,-4.9113,-4.8888,-4.7237,-4.6713,-4.6852,-4.6389,-4.559,-4.474,-4.4859,-4.463,-4.4305,-4.4441,-4.4517,-4.4363,-4.3685,-4.3611,-4.3665,-4.323,-4.38,-4.4591,-4.4802,-4.5489,-4.6304,0.0,0.0,-4.8181,-4.904,-4.9617,-5.0057,-5.0526,-5.1329,-5.2133,-5.2791,-5.3434,-5.4008,-5.4399,-5.5208,-5.6125,-5.7045,-5.7311,-5.7817,-5.8745,-6.0212,-6.109,-6.116,-6.3126,-6.4426,-6.4706,-6.6005,-6.748,-6.906,-6.92,-6.9972,-7.1447,-7.1517,-7.1938,-7.2676,-7.2676,-7.3097,-7.3869,-7.3799,-7.2992,-7.1622,-7.0148,-6.9483,-6.9307,-6.7655,-6.6881,-6.6562,-6.4987,-6.4217,-6.3825,-6.2959,-6.223,-6.1502,0.0,0.0,0.0,0.0,0.0,0.0,0.0,0.0,0.0,0.0,0.0,0.0,0.0,0.0,0.0,0.0,0.0,0.0,0.0,0.0,0.0,0.0,0.0,0.0,0.0,0.0,0.0,-4.4999,-4.5104,-4.5539,-4.6234,-4.6316,-4.6472,-4.6639,-4.7012,-4.7123,-4.7065,-4.765,-4.7896,-4.7855,-4.7444,-4.7247,-4.7133,-4.61,-4.5525,-4.5248,-4.5196,-4.4918,0.0,0.0,-4.4356,-4.4374,-4.4534,-4.461,-4.4548,-4.4384,-4.4434,-4.4483,-4.4497,-4.4984,-4.5659,-4.6251,-4.6749,-4.7348,-4.8414,-4.886,-4.9204,-4.9707,-5.0382,-5.1024,-5.1296,-5.2169,-5.301,0.0,-5.3873,-5.4239,-5.4623,-5.5469,-5.6422,-5.7377,-5.8024,-5.8713,-5.958,-6.0633,-6.1476,-6.1897,-6.3653,-6.5092,-6.6005,-6.755,-6.8884,-7.0007,-7.0499,-7.1236,-7.2325,-7.236,-7.2746,-7.3483,-7.3483,-7.3659,-7.401,-7.401,-7.3167,-7.1622,-7.0043,-6.9412,-6.927,-6.7582,-6.6843,-6.6594,-6.4808,-6.4037,-6.3823,-6.2991,-6.2158,-6.1292,0.0,0.0,0.0,0.0,0.0,0.0,0.0,0.0,0.0,0.0,0.0,0.0,0.0,0.0,0.0,0.0,0.0,0.0,0.0,0.0,0.0,0.0,0.0,0.0,0.0,0.0,0.0,0.0,-4.4513,-4.4847,-4.5507,-4.5761,-4.5922,-4.5953,-4.6408,-4.6523,-4.6326,-4.6511,-4.6603,-4.6564,-4.6163,-4.6001,-4.592,-4.5259,-4.4616,-4.4077,-4.4257,-4.4318,0.0,0.0,-4.4143,-4.4374,-4.4534,-4.461,-4.4648,-4.4836,-4.4986,-4.5136,-4.5536,-4.5896,0.0,-4.7229,-4.7602,-4.8042,-4.931,-4.9752,-5.003,-5.0474,-5.1285,-5.1962,-5.2134,-5.291,-5.3617,-5.3948,-5.411,-5.4404,-5.5026,-5.5907,-5.6861,-5.7786,-5.8749,-5.9615,-6.0352,-6.1125,-6.2003,-6.2951,-6.446,-6.5935,-6.7269,-6.8849,-7.0043,-7.0815,-7.1587,-7.236,-7.3132,-7.3132,-7.3413,-7.401,-7.401,-7.401,-7.3975,-7.3553,-7.2781,-7.1622,-7.0043,-6.9412,-6.927,-6.7508,-6.6769,-6.6521,-6.4626,-6.3891,-6.375,-6.3162,-6.226,-6.122,0.0,0.0,0.0,0.0,0.0,0.0,0.0,0.0,0.0,0.0,0.0,0.0,0.0,0.0,0.0,0.0,0.0,0.0,0.0,0.0,0.0,0.0,0.0,0.0,0.0,0.0,0.0,0.0,0.0,-4.4291,-4.4749,-4.4535,-4.4763,-4.5229,-4.5694,-4.5812,-4.5649,-4.6326,-4.6603,-4.6564,-4.6163,-4.6001,-4.586,-4.4749,-4.3888,-4.3409,-4.4077,0.0,0.0,0.0,-4.4143,-4.4374,-4.4534,-4.461,0.0,-4.4836,-4.5204,-4.5573,-4.5968,-4.6112,-4.6343,-4.7409,-4.7709,-4.8171,-4.9961,-5.054,-5.0952,-5.2002,-5.2557,-5.2904,-5.3111,-5.345,-5.375,-5.3948,-5.411,-5.4576,-5.5686,-5.6672,-5.7593,-5.8555,-5.9485,-6.0388,0.0,-6.1932,-6.2986,-6.453,-6.6075,-6.7304,-6.8147,-6.9621,-7.085,-7.1658,-7.2395,-7.3167,-7.3975,-7.3975,-7.3975,-7.401,-7.401,-7.401,-7.394,-7.2465,-7.1763,-7.1622,-7.0043,-6.9412,-6.927,-6.7508,-6.6661,-6.634,-6.4589,-6.3783,-6.36,-6.3565,-6.2599,-6.1289,0.0,0.0,0.0,0.0,0.0,0.0,0.0,0.0,0.0,0.0,0.0,0.0,0.0,0.0,0.0,0.0,0.0,0.0,0.0,0.0,0.0,0.0,0.0,0.0,0.0,0.0,0.0,0.0,0.0,-4.3529,-4.4018,-4.3948,-4.3969,-4.4011,-4.4013,-4.3925,-4.3772,-4.387,-4.3956,-4.3919,-4.3624,-4.3472,-4.3281,-4.2771,-4.2368,-4.2073,0.0,0.0,0.0,0.0,0.0,0.0,-4.3925,-4.4315,-4.4874,-4.5204,-4.5573,-4.5932,-4.6076,-4.6259,-4.6667,-4.748,-4.8246,-4.9079,-5.0308,-5.1146,-5.1789,-5.2381,-5.2729,-5.2972,-5.3144,-5.3584,-5.3915,-5.398,-5.4207,-5.4802,-5.5945,-5.6802,-5.7695,-5.8752,-6.0075,0.0,0.0,0.0,0.0,-6.4601,-6.6145,-6.7585,-6.8919,-7.0464,-7.1658,-7.2395,-7.3202,-7.3729,-7.401,-7.401,-7.401,-7.401,-7.401,-7.3729,-7.3167,-7.2149,-7.1412,-7.085,-6.9832,-6.9023,-6.8315,-6.7117,-6.6164,-6.5389,-6.4164,-6.3673,-6.3531,-6.3048,-6.2186,-6.1289,0.0,0.0,0.0,0.0,0.0,0.0,0.0,0.0,0.0,0.0,0.0,0.0,0.0,0.0,0.0,0.0,0.0,0.0,0.0,0.0,0.0,0.0,0.0,0.0,0.0,0.0,0.0,0.0,0.0,0.0,-4.3395,-4.3392,-4.3349,-4.3396,-4.3255,-4.3043,-4.2793,-4.2716,-4.2638,-4.2565,-4.2389,-4.2206,-4.2058,-4.1873,-4.1572,0.0,0.0,0.0,0.0,0.0,0.0,-4.3593,-4.3698,-4.4347,-4.5204,-4.5499,-4.5859,-4.6148,-4.6259,-4.6439,-4.6811,-4.7661,-4.8391,-4.9159,-5.0159,-5.093,-5.1473,-5.1858,-5.2099,-5.237,-5.2809,-5.3276,-5.3673,-5.3946,-5.4512,-5.528,-5.6327,-5.7187,-5.8218,-5.9558,-6.0671,-6.1687,0.0,0.0,0.0,-6.5408,-6.6707,-6.8112,-6.9691,-7.1026,-7.2044,-7.2781,-7.3589,-7.401,-7.401,-7.401,-7.401,-7.401,-7.401,-7.3589,-7.2781,-7.2044,-7.1271,-7.0464,-6.9617,-6.8772,-6.7819,-6.6828,-6.5843,-6.4897,-6.395,-6.36,-6.3496,-6.2772,-6.1979,-6.1254,0.0,0.0,0.0,0.0,0.0,0.0,0.0,0.0,0.0,0.0,0.0,0.0,0.0,0.0,0.0,0.0,0.0,0.0,0.0,0.0,0.0,0.0,0.0,0.0,0.0,0.0,0.0,0.0,0.0,0.0,0.0,-4.2637,-4.2848,-4.3273,-4.327,-4.3091,-4.2736,-4.27,-4.2592,-4.2473,-4.2297,-4.2193,-4.2187,-4.1936,0.0,0.0,0.0,0.0,0.0,0.0,0.0,0.0,-4.3876,-4.4668,-4.5536,-4.575,-4.5968,-4.6187,-4.6509,-4.6617,-4.6883,-4.7911,-4.8176,-4.8511,-4.9612,-4.9984,-5.0222,-5.0627,-5.0859,-5.1258,0.0,0.0,-5.3126,-5.3809,-5.489,-5.5939,-5.6861,-5.7821,-5.906,0.0,0.0,0.0,0.0,0.0,0.0,-6.6953,0.0,-6.8954,-7.0499,-7.1342,-7.2114,-7.2851,-7.3589,-7.401,-7.401,-7.401,-7.401,-7.401,-7.3975,-7.3518,-7.2711,-7.1974,-7.1201,-7.0394,-6.947,-6.8553,-6.7712,-6.6609,-6.5659,-6.4826,-6.395,-6.3565,-6.3427,-6.2703,-6.191,-6.1151,0.0,0.0,0.0,0.0,0.0,0.0,0.0,0.0,0.0,0.0,0.0,0.0,0.0,0.0,0.0,0.0,0.0,0.0,0.0,0.0,0.0,0.0,0.0,0.0,0.0,0.0,0.0,0.0,0.0,0.0,0.0,-4.1087,-4.1274,0.0,-4.1671,-4.1721,-4.1513,-4.1345,-4.1206,-4.1028,0.0,-4.0922,-4.0781,0.0,0.0,0.0,0.0,0.0,0.0,0.0,0.0,0.0,-4.4495,-4.5153,-4.5568,-4.5932,-4.6116,-4.6298,-4.6512,-4.6823,-4.7097,-4.7395,-4.8057,-4.8722,-4.8988,-4.9723,-5.0392,-5.066,-5.0859,-5.109,0.0,0.0,0.0,-5.3126,-5.4546,0.0,-5.6861,-5.7821,0.0,-6.0792,-6.1658,-6.274,-6.4285,-6.5654,0.0,0.0,-6.8638,-6.9762,-7.1307,-7.2114,-7.2886,-7.3659,-7.3905,-7.401,-7.401,-7.401,-7.401,-7.401,-7.3378,-7.2711,-7.1974,-7.1166,-7.0394,-6.9621,-6.863,-6.7675,-6.676,-6.5702,-6.4754,-6.3915,-6.3706,-6.3255,-6.2668,-6.191,-6.1116,-6.0358,0.0,0.0,0.0,0.0,0.0,0.0,0.0,0.0,0.0,0.0,0.0,0.0,0.0,0.0,0.0,0.0,0.0,0.0,0.0,0.0,0.0,0.0,0.0,0.0,0.0,0.0,0.0,0.0,0.0,0.0,0.0,-4.0259,-4.0325,-4.0262,-4.045,-4.0601,-4.0749,0.0,0.0,0.0,0.0,0.0,0.0,0.0,0.0,0.0,0.0,0.0,0.0,0.0,0.0,-4.3318,-4.4872,-4.5531,-4.5823,-4.608,0.0,-4.6509,-4.6756,-4.703,-4.7235,-4.737,-4.7867,-4.833,-4.8431,-4.9028,-4.9591,-4.969,-4.995,-5.0242,-5.0644,-5.1641,0.0,0.0,0.0,0.0,-5.6833,-5.8278,-5.9798,0.0,-6.2225,0.0,-6.5092,-6.6321,-6.7339,0.0,-6.9235,-7.0394,-7.1658,-7.2395,-7.3167,-7.3975,-7.401,-7.401,-7.401,-7.401,-7.3834,-7.3483,-7.3027,-7.2219,-7.1166,-7.071,-7.004,-6.9229,0.0,-6.7248,-6.6297,-6.5276,-6.4366,-6.36,-6.36,-6.3151,-6.2393,-6.1599,-6.084,-6.0082,0.0,0.0,0.0,0.0,0.0,0.0,0.0,0.0,0.0,0.0,0.0,0.0,0.0,0.0,0.0,0.0,0.0,0.0,0.0,0.0,0.0,0.0,0.0,0.0,0.0,0.0,0.0,0.0,0.0,0.0,0.0,0.0,0.0,0.0,0.0,0.0,0.0,0.0,0.0,0.0,0.0,0.0,0.0,0.0,0.0,0.0,0.0,0.0,0.0,0.0,-4.3069,-4.3466,-4.5018,-4.5787,-4.6148,-4.6227,-4.6439,-4.6687,-4.7098,-4.7201,-4.7302,-4.7605,-4.7704,-4.777,-4.7968,-4.826,-4.8515,-4.8515,-4.8767,-4.9187,-4.983,-5.0958,-5.1996,-5.268,0.0,-5.6805,-5.6805,-5.8872,-6.0774,-6.1744,-6.2718,-6.4043,-6.5865,-6.6637,-6.7374,-6.8287,-6.9797,-7.0955,-7.1658,-7.25,-7.3273,-7.3975,-7.401,-7.401,-7.401,-7.401,-7.3589,-7.2781,-7.2711,-7.1903,-7.0499,-7.0356,-6.9825,-6.8868,0.0,0.0,-6.5937,-6.4951,-6.4186,-6.3565,-6.3496,-6.2979,-6.222,-6.1461,-6.0668,-5.9944,0.0,0.0,0.0,0.0,0.0,0.0,0.0,0.0,0.0,0.0,-3.7015,-3.6303,0.0,0.0,0.0,0.0,0.0,0.0,0.0,0.0,0.0,0.0,0.0,0.0,0.0,0.0,0.0,0.0,0.0,0.0,0.0,0.0,0.0,0.0,0.0,0.0,0.0,0.0,0.0,0.0,0.0,0.0,0.0,0.0,0.0,0.0,0.0,0.0,0.0,0.0,-4.3251,-4.3612,-4.5023,-4.5787,-4.6148,-4.6227,-4.6439,-4.6687,-4.7098,-4.7335,-4.7504,-4.7638,-4.7803,-4.7968,-4.8001,-4.826,0.0,0.0,-4.8767,-4.9052,-4.9187,-5.0618,-5.1825,-5.1962,0.0,0.0,-5.6805,-5.8941,-6.0739,0.0,-6.2614,-6.4183,-6.6422,-6.6846,0.0,0.0,0.0,0.0,-7.1693,-7.3027,-7.3869,-7.401,-7.401,-7.401,-7.401,-7.401,-7.3589,-7.2781,-7.2184,-7.1412,-7.0499,-6.9718,-6.887,-6.8064,0.0,0.0,-6.514,-6.4194,-6.3703,-6.3531,-6.291,-6.2186,-6.1427,-6.0668,-5.9909,-5.9151,0.0,0.0,0.0,0.0,0.0,0.0,0.0,-3.8266,-3.8408,-3.8408,-3.7825,-3.7404,-3.7404,-3.7404,-3.7533,0.0,0.0,0.0,0.0,0.0,0.0,0.0,0.0,0.0,0.0,0.0,0.0,0.0,0.0,0.0,0.0,0.0,0.0,0.0,0.0,0.0,0.0,0.0,0.0,0.0,0.0,0.0,0.0,0.0,0.0,0.0,0.0,0.0,0.0,0.0,-4.3427,-4.3819,-4.5345,-4.5972,-4.6259,-4.6404,-4.6615,-4.6825,-4.7267,-4.7436,-4.7571,-4.7803,-4.7935,-4.8001,-4.8001,0.0,0.0,0.0,-4.8767,-4.9018,-4.9018,-5.055,0.0,-5.1822,0.0,0.0,0.0,-5.8839,0.0,-6.1502,-6.2822,-6.4389,0.0,-6.6698,0.0,0.0,0.0,0.0,0.0,-7.3167,-7.401,-7.401,-7.401,-7.3799,-7.3378,-7.3378,-7.2781,-7.1587,-7.1122,-7.0523,-6.9753,-6.876,-6.8052,-6.7521,0.0,0.0,-6.4784,-6.3947,-6.3358,-6.2979,-6.2634,-6.1772,-6.0668,-6.0218,-5.9563,-5.8875,0.0,0.0,0.0,0.0,0.0,0.0,0.0,-3.8323,-3.8408,-3.8408,-3.8408,-3.8408,-3.8408,-3.8408,-3.8408,0.0,0.0,0.0,0.0,0.0,0.0,0.0,0.0,0.0,0.0,0.0,0.0,0.0,0.0,0.0,0.0,0.0,0.0,0.0,0.0,0.0,0.0,0.0,0.0,0.0,0.0,0.0,0.0,0.0,0.0,0.0,0.0,0.0,0.0,0.0,-4.35,-4.3993,-4.5631,-4.6223,-4.6333,-4.6512,-4.6722,-4.6996,-4.7403,-4.7504,-4.7571,-4.7902,-4.8001,-4.8001,-4.8001,-4.826,0.0,-4.8515,-4.8767,-4.9018,-4.9018,0.0,-5.1555,0.0,-5.3791,-5.5669,0.0,0.0,-6.0358,0.0,-6.2748,0.0,-6.6264,0.0,0.0,0.0,0.0,0.0,0.0,-7.3273,-7.394,-7.3764,-7.3729,-7.3378,-7.257,-7.2532,-7.1792,-7.0424,-7.0234,-6.9736,-6.9005,-6.7977,-6.7336,-6.6976,0.0,0.0,0.0,-6.3669,-6.3013,-6.2461,-6.2117,-6.1254,-6.0115,-5.9803,-5.9286,-5.8701,0.0,0.0,0.0,0.0,0.0,0.0,0.0,-3.8323,-3.8408,-3.8408,-3.8408,-3.8408,-3.8408,-3.8408,-3.8408,0.0,0.0,0.0,0.0,0.0,0.0,0.0,0.0,0.0,0.0,0.0,0.0,0.0,0.0,0.0,0.0,0.0,0.0,0.0,0.0,0.0,0.0,0.0,0.0,0.0,0.0,0.0,0.0,0.0,0.0,0.0,0.0,0.0,0.0,0.0,0.0,-4.3997,-4.5745,-4.6298,-4.6333,-4.6512,0.0,0.0,-4.7403,-4.7504,-4.7571,-4.7902,-4.8001,-4.8001,-4.8001,0.0,-4.8515,-4.8515,-4.8767,-4.9018,-4.9018,0.0,0.0,0.0,0.0,-5.4989,0.0,0.0,0.0,0.0,0.0,0.0,0.0,0.0,0.0,0.0,0.0,0.0,0.0,-7.3518,-7.3659,-7.2922,-7.2922,-7.2535,-7.1833,-7.1606,-7.1109,-7.0234,-7.0004,-6.9509,-6.8708,-6.7787,-6.6945,-6.6214,0.0,0.0,0.0,-6.291,-6.253,-6.2358,-6.0944,-6.0218,-5.9836,-5.9148,-5.8735,-5.849,0.0,0.0,0.0,0.0,0.0,0.0,-3.8096,-3.8379,-3.8408,-3.8408,-3.8408,-3.8408,-3.8408,-3.8408,-3.8408,-3.8408,0.0,0.0,0.0,0.0,0.0,0.0,0.0,0.0,0.0,0.0,0.0,-3.8408,0.0,0.0,0.0,0.0,0.0,0.0,0.0,0.0,0.0,0.0,0.0,0.0,0.0,0.0,0.0,0.0,0.0,0.0,0.0,0.0,0.0,0.0,0.0,0.0,-4.5908,-4.6404,0.0,0.0,-4.6858,-4.6996,-4.7403,-4.7504,-4.7571,-4.7902,-4.8001,-4.8001,-4.8001,0.0,-4.8356,-4.8483,-4.8673,-4.8894,-4.8987,-4.9752,0.0,0.0,0.0,0.0,-5.633,0.0,0.0,0.0,0.0,0.0,0.0,0.0,0.0,0.0,0.0,0.0,0.0,0.0,-7.2115,-7.18,-7.18,-7.1416,-7.0609,-7.0531,-7.0074,-6.9272,-6.908,-6.8582,-6.7819,-6.69,-6.6063,0.0,0.0,0.0,0.0,-6.2599,-6.1944,-6.1047,-6.0321,-5.9699,-5.9148,-5.8628,-5.8111,-5.7631,0.0,0.0,0.0,0.0,0.0,-3.6788,-3.8181,-3.8408,-3.8408,-3.8408,-3.8408,-3.8472,-3.8699,-3.8732,-3.8796,-3.8991,-3.8634,0.0,0.0,0.0,0.0,0.0,0.0,0.0,0.0,0.0,-3.8408,-3.8408,-3.8602,-3.8732,0.0,0.0,0.0,0.0,0.0,0.0,0.0,0.0,0.0,0.0,0.0,0.0,0.0,0.0,0.0,0.0,0.0,0.0,0.0,0.0,0.0,0.0,0.0,0.0,0.0,0.0,-4.6892,-4.6996,-4.7403,-4.7504,-4.7571,-4.7902,-4.8001,-4.8001,0.0,0.0,-4.826,-4.8452,-4.8675,-4.8832,-4.8987,-4.9551,0.0,0.0,0.0,-5.3526,-5.6128,0.0,0.0,0.0,0.0,0.0,0.0,0.0,0.0,0.0,0.0,0.0,0.0,0.0,-7.0397,-7.0723,-7.0723,-7.0341,-6.954,-6.9501,-6.908,-6.8281,-6.805,-6.7592,-6.6865,-6.5952,-6.5221,0.0,0.0,0.0,0.0,-6.2013,-6.1185,-6.0185,-5.9734,-5.9216,-5.8632,-5.8109,-5.7489,-5.6943,0.0,0.0,0.0,0.0,0.0,0.0,-3.8181,-3.8408,-3.8408,-3.8408,-3.8408,-3.8667,-3.9408,-3.9505,-3.9765,-4.0415,-3.9185,0.0,0.0,0.0,0.0,0.0,0.0,0.0,0.0,0.0,-3.8408,-3.8408,-3.912,-3.9505,-3.9505,-4.0156,-4.0301,0.0,0.0,0.0,0.0,0.0,0.0,0.0,0.0,0.0,0.0,0.0,0.0,0.0,0.0,0.0,0.0,0.0,0.0,0.0,0.0,0.0,0.0,0.0,-4.6892,-4.6996,-4.7403,-4.7504,-4.7571,-4.7902,-4.8001,-4.8001,0.0,0.0,-4.826,-4.8452,-4.8675,-4.8832,-4.8987,-4.9018,0.0,0.0,0.0,0.0,-5.6027,0.0,0.0,0.0,0.0,0.0,0.0,0.0,0.0,0.0,0.0,0.0,0.0,0.0,-6.866,-6.9888,-6.9888,-6.954,-6.8705,-6.8513,-6.805,-6.7288,-6.713,-6.66,-6.5876,-6.5083,0.0,0.0,0.0,0.0,0.0,-6.084,-6.022,-6.0116,-5.915,-5.87,-5.8388,-5.746,-5.6977,-5.6697,0.0,0.0,0.0,0.0,0.0,0.0,0.0,-3.8408,-3.8408,-3.8408,-3.8408,-3.8667,-3.9441,-3.9505,-3.9797,-4.0448,-3.9671,0.0,0.0,0.0,0.0,0.0,0.0,0.0,0.0,0.0,-3.9833,-3.9833,-4.0059,-4.0156,-4.0189,-4.0383,-4.0301,-3.9998,0.0,0.0,0.0,0.0,0.0,0.0,0.0,0.0,0.0,0.0,0.0,0.0,0.0,0.0,0.0,0.0,0.0,0.0,0.0,0.0,0.0,-4.6083,0.0,0.0,-4.7403,-4.7504,-4.7571,-4.7902,-4.8001,-4.8001,-4.8001,0.0,-4.8164,-4.8452,-4.8547,-4.8673,-4.8956,-4.9018,0.0,0.0,0.0,0.0,0.0,0.0,0.0,0.0,0.0,0.0,0.0,0.0,0.0,0.0,0.0,0.0,0.0,0.0,0.0,-6.8626,-6.866,-6.8314,-6.7519,-6.748,-6.7061,-6.6336,-6.6259,-6.5842,-6.5083,0.0,0.0,0.0,0.0,0.0,0.0,-6.0392,-5.9805,-5.915,-5.8221,-5.7703,-5.7426,-5.6467,-5.5785,-5.5243,0.0,0.0,0.0,0.0,0.0,0.0,0.0,-3.8408,-3.8408,-3.8408,-3.8408,-3.8764,-3.9797,-3.9894,-4.0254,-4.1225,-4.0675,0.0,0.0,0.0,0.0,0.0,0.0,0.0,-3.9894,-4.0286,-4.048,-4.048,-4.0772,-4.0931,-4.0901,-4.116,-4.1107,-4.0798,-4.0798,-4.0864,0.0,0.0,0.0,0.0,0.0,0.0,-4.2726,0.0,0.0,0.0,0.0,0.0,0.0,0.0,0.0,0.0,0.0,0.0,0.0,0.0,-4.6115,-4.6639,0.0,-4.7504,-4.7571,-4.7902,-4.8001,0.0,0.0,0.0,0.0,0.0,-4.8452,-4.8578,0.0,0.0,0.0,0.0,0.0,0.0,0.0,0.0,0.0,0.0,0.0,0.0,0.0,0.0,0.0,0.0,0.0,0.0,0.0,0.0,0.0,-6.7256,-6.7256,-6.7049,-6.6566,-6.6566,-6.6186,-6.5428,-6.5428,-6.5014,-6.4289,0.0,0.0,0.0,0.0,0.0,0.0,-5.9875,-5.9219,-5.8324,-5.7637,-5.7122,-5.6573,-5.5617,-5.5006,-5.4566,0.0,0.0,0.0,0.0,0.0,0.0,0.0,-3.8408,-3.8408,-3.8408,-3.8408,-3.8926,-4.0351,-4.048,-4.1063,-4.2489,0.0,0.0,0.0,0.0,0.0,0.0,0.0,0.0,-4.0577,-4.061,-4.0642,-4.0642,-4.1353,-4.1677,-4.1677,-4.2326,-4.2429,-4.2109,-4.2109,-4.1916,0.0,0.0,0.0,0.0,0.0,0.0,0.0,0.0,0.0,0.0,0.0,0.0,0.0,0.0,0.0,0.0,0.0,0.0,0.0,0.0,0.0,0.0,0.0,-4.7471,-4.7571,-4.7902,-4.8001,-4.8001,0.0,0.0,0.0,0.0,0.0,0.0,0.0,0.0,0.0,0.0,0.0,0.0,0.0,0.0,0.0,0.0,0.0,0.0,0.0,0.0,0.0,0.0,0.0,0.0,0.0,0.0,0.0,0.0,-6.5738,-6.5738,-6.5807,-6.5807,-6.5393,-6.4531,-6.4531,-6.4152,-6.3393,0.0,0.0,0.0,0.0,0.0,0.0,-5.9254,-5.8427,-5.7569,-5.7329,-5.6679,-5.5791,-5.4838,-5.4499,-5.4397,0.0,0.0,0.0,0.0,0.0,0.0,0.0,0.0,0.0,0.0,-3.8408,-3.8926,-4.0351,-4.048,-4.1063,0.0,0.0,0.0,0.0,0.0,0.0,0.0,0.0,0.0,-4.1353,-4.184,-4.2101,-4.2101,-4.2263,-4.236,-4.2391,-4.2522,-4.2492,-4.2302,-4.2174,-4.1916,0.0,0.0,0.0,0.0,0.0,0.0,0.0,0.0,0.0,0.0,-4.4527,-4.4,0.0,0.0,0.0,0.0,0.0,0.0,0.0,0.0,-4.4982,-4.5923,-4.6486,0.0,-4.7571,-4.7902,-4.8001,-4.8001,0.0,0.0,0.0,0.0,0.0,0.0,0.0,0.0,0.0,0.0,0.0,0.0,0.0,0.0,0.0,0.0,0.0,0.0,0.0,0.0,0.0,0.0,0.0,0.0,0.0,0.0,0.0,0.0,-6.4427,-6.4393,-6.4979,-6.4979,-6.4324,-6.3013,-6.3013,-6.2599,0.0,0.0,0.0,0.0,0.0,0.0,0.0,-5.8254,-5.75,-5.6474,-5.5893,-5.5349,-5.4838,-5.4059,-5.3754,-5.3721,0.0,0.0,0.0,0.0,0.0,0.0,0.0,0.0,0.0,0.0,0.0,0.0,0.0,0.0,0.0,0.0,0.0,0.0,0.0,0.0,0.0,0.0,0.0,-4.2067,-4.2067,-4.2392,-4.2586,-4.2586,-4.2942,-4.291,-4.2619,-4.2942,-4.2846,-4.2397,-4.2141,-4.1915,0.0,0.0,0.0,0.0,-4.2378,0.0,0.0,0.0,0.0,0.0,-4.4103,-4.3635,0.0,-4.2879,-4.2687,-4.2492,0.0,0.0,0.0,0.0,-4.4237,-4.5048,-4.6094,-4.6946,-4.7571,-4.7902,-4.8001,-4.8001,-4.8001,0.0,0.0,0.0,0.0,0.0,0.0,0.0,0.0,0.0,0.0,0.0,0.0,0.0,0.0,0.0,0.0,0.0,0.0,0.0,0.0,0.0,0.0,0.0,0.0,0.0,0.0,0.0,0.0,-6.291,-6.3669,-6.3669,-6.3082,-6.1944,-6.1944,-6.1703,0.0,0.0,0.0,0.0,0.0,0.0,-5.7874,-5.7529,-5.6744,-5.5654,-5.5244,-5.4702,-5.4059,-5.3653,-5.3518,-5.3518,0.0,0.0,0.0,0.0,0.0,0.0,0.0,0.0,0.0,0.0,0.0,0.0,0.0,0.0,0.0,0.0,0.0,0.0,0.0,0.0,0.0,0.0,-4.2555,-4.2555,-4.2555,-4.2684,-4.2749,-4.278,-4.3524,-4.3557,-4.2942,-4.3589,-4.3396,-4.2558,-4.2173,-4.1979,0.0,0.0,0.0,0.0,-4.2479,0.0,0.0,0.0,0.0,0.0,0.0,0.0,0.0,-4.259,-4.2492,-4.2586,-4.2586,0.0,0.0,0.0,0.0,0.0,-4.58,-4.6749,-4.7439,-4.7869,-4.8001,-4.8001,-4.8001,0.0,0.0,0.0,0.0,0.0,0.0,-4.8767,0.0,0.0,0.0,0.0,0.0,0.0,0.0,0.0,0.0,0.0,0.0,0.0,0.0,0.0,0.0,0.0,0.0,0.0,0.0,0.0,0.0,0.0,-6.2117,-6.2255,-6.191,-6.1116,-6.1116,-6.1082,-6.0909,-6.0185,0.0,0.0,0.0,0.0,-5.7495,-5.6874,-5.5953,-5.4903,-5.4903,-5.4362,-5.3518,-5.3518,-5.3518,-5.3518,0.0,0.0,0.0,0.0,0.0,0.0,0.0,0.0,0.0,0.0,0.0,0.0,0.0,0.0,0.0,0.0,0.0,0.0,0.0,0.0,0.0,-4.2461,-4.2429,-4.2429,-4.2429,-4.3041,-4.3428,-4.3557,-4.4269,-4.4561,-4.4464,-4.4561,-4.4171,-4.3299,-4.2623,-4.2238,-4.2077,-4.2045,-4.2013,-4.2077,-4.2811,0.0,0.0,0.0,0.0,0.0,0.0,0.0,0.0,-4.243,-4.2492,-4.2586,-4.2586,0.0,0.0,0.0,0.0,0.0,-4.5146,-4.5996,-4.6783,-4.7737,-4.8001,-4.8001,-4.8001,-4.8001,0.0,0.0,0.0,0.0,0.0,0.0,0.0,0.0,0.0,0.0,0.0,0.0,0.0,0.0,0.0,0.0,0.0,0.0,0.0,0.0,0.0,0.0,0.0,0.0,0.0,0.0,0.0,0.0,0.0,-6.1151,-6.1116,-6.0358,-6.0358,-6.0013,-5.9323,-5.8599,-5.8254,0.0,0.0,0.0,-5.5943,-5.5839,-5.5163,-5.4151,-5.4151,-5.3885,-5.3518,-5.3518,-5.3518,-5.3518,0.0,0.0,0.0,0.0,0.0,0.0,0.0,0.0,0.0,0.0,0.0,0.0,0.0,0.0,0.0,0.0,0.0,0.0,0.0,0.0,0.0,-4.2429,-4.2397,-4.2333,-4.2238,-4.2943,-4.3361,-4.3427,-4.4621,-4.5043,-4.4655,-4.4366,-4.401,-4.3557,-4.2783,-4.2333,-4.2238,-4.2142,-4.2109,-4.2141,0.0,0.0,0.0,0.0,0.0,0.0,0.0,0.0,0.0,0.0,-4.2523,-4.2586,-4.2586,0.0,0.0,0.0,0.0,0.0,-4.4394,-4.5242,-4.606,-4.7142,-4.7703,-4.8001,-4.8001,-4.8001,0.0,0.0,0.0,0.0,0.0,0.0,0.0,0.0,0.0,0.0,0.0,0.0,0.0,0.0,0.0,0.0,0.0,0.0,0.0,0.0,0.0,0.0,0.0,0.0,0.0,0.0,0.0,0.0,0.0,-5.8702,-5.8909,-5.8944,-5.8564,-5.8185,-5.7805,-5.746,-5.7322,0.0,0.0,-5.5943,-5.5598,-5.5184,-5.4404,-5.3494,-5.3432,-5.2999,-5.2397,-5.2299,-5.2266,-5.2334,0.0,0.0,0.0,0.0,0.0,0.0,0.0,0.0,0.0,0.0,0.0,0.0,0.0,0.0,0.0,0.0,0.0,0.0,0.0,0.0,-4.2523,-4.2429,-4.2397,-4.2302,-4.2109,-4.2973,-4.342,-4.342,-4.5066,-4.549,-4.4814,-4.4236,-4.3881,-4.3654,-4.2815,-4.2461,-4.2429,-4.227,-4.2206,-4.2206,0.0,0.0,0.0,0.0,0.0,0.0,0.0,0.0,0.0,0.0,0.0,0.0,0.0,0.0,0.0,-4.2391,-4.2488,-4.2874,-4.3904,-4.4783,-4.56,-4.6645,-4.7438,-4.8001,-4.8001,-4.8001,-4.8001,-4.8001,0.0,0.0,0.0,0.0,0.0,0.0,0.0,0.0,0.0,0.0,0.0,0.0,0.0,0.0,0.0,0.0,0.0,0.0,0.0,0.0,0.0,0.0,0.0,0.0,0.0,0.0,0.0,-5.6598,-5.6909,-5.7633,-5.7081,-5.6805,-5.6805,-5.6598,-5.6529,-5.6495,-5.5701,-5.5357,-5.5288,-5.4563,-5.3779,-5.3072,-5.2809,-5.2209,-5.1473,-5.1282,-5.1185,-5.1285,0.0,0.0,0.0,0.0,0.0,0.0,0.0,0.0,0.0,0.0,0.0,0.0,0.0,0.0,0.0,0.0,0.0,0.0,0.0,0.0,-4.2523,-4.2429,-4.2397,-4.2302,-4.2109,-4.342,-4.4124,-4.4124,-4.5773,-4.6267,-4.5693,-4.5046,-4.4366,-4.3686,-4.291,-4.2586,-4.2586,-4.2555,-4.2555,-4.2555,-4.2555,0.0,0.0,0.0,0.0,0.0,0.0,0.0,0.0,0.0,0.0,0.0,0.0,0.0,-4.1677,-4.1677,-4.2255,-4.3093,-4.3966,-4.4877,-4.5759,-4.6677,-4.7438,-4.8001,-4.8001,-4.8001,-4.8001,-4.8001,-4.826,0.0,0.0,0.0,0.0,0.0,0.0,0.0,0.0,0.0,0.0,0.0,0.0,0.0,0.0,0.0,0.0,0.0,0.0,0.0,0.0,0.0,0.0,0.0,0.0,0.0,0.0,0.0,-5.6115,-5.6874,-5.684,-5.6805,-5.6771,-5.6046,-5.5701,-5.5667,-5.4908,-5.4598,-5.4529,-5.377,-5.3332,-5.3004,-5.2351,-5.1825,-5.1473,-5.1282,-5.1185,-5.1217,0.0,0.0,0.0,0.0,0.0,0.0,0.0,0.0,0.0,0.0,0.0,0.0,0.0,0.0,0.0,0.0,0.0,0.0,0.0,-4.2586,-4.2555,-4.2523,-4.2523,-4.2429,-4.227,-4.3134,-4.358,-4.358,-4.4711,-4.5267,-4.5144,-4.4464,-4.3978,-4.3686,-4.291,-4.2586,-4.2586,-4.2586,-4.2586,-4.2586,-4.2586,-4.2586,0.0,0.0,0.0,0.0,0.0,0.0,0.0,0.0,-4.0707,-4.048,0.0,0.0,-4.1612,-4.1612,-4.2223,-4.2996,-4.3379,-4.4516,-4.5692,-4.6114,-4.7106,0.0,-4.8001,-4.8001,-4.8001,-4.8001,-4.826,-4.8547,0.0,0.0,0.0,0.0,0.0,0.0,0.0,0.0,0.0,0.0,0.0,0.0,0.0,0.0,0.0,0.0,0.0,0.0,0.0,0.0,0.0,0.0,0.0,0.0,0.0,0.0,-5.4839,-5.4701,-5.515,-5.5357,-5.5357,-5.5046,-5.4943,-5.4874,-5.4149,-5.3839,-5.377,-5.2977,-5.233,-5.1752,-5.0815,-5.0294,-5.0048,-4.9893,-4.983,-4.9898,0.0,0.0,0.0,0.0,0.0,0.0,0.0,0.0,0.0,0.0,0.0,0.0,0.0,0.0,0.0,0.0,0.0,0.0,-4.2586,-4.2586,-4.2586,-4.2586,-4.2586,-4.2555,-4.2492,-4.2816,-4.3072,-4.3196,-4.4068,-4.4493,-4.4431,-4.3945,-4.3589,-4.333,-4.2813,-4.2586,-4.2586,-4.2586,-4.2586,-4.2586,-4.2586,-4.2457,0.0,0.0,0.0,0.0,0.0,0.0,0.0,0.0,0.0,0.0,0.0,0.0,0.0,0.0,-4.2059,-4.2959,-4.3082,-4.435,-4.5689,-4.5783,0.0,0.0,-4.8001,-4.8001,-4.8001,-4.8001,-4.826,-4.861,-4.8956,0.0,0.0,0.0,0.0,0.0,0.0,0.0,0.0,0.0,0.0,0.0,0.0,0.0,0.0,0.0,0.0,0.0,0.0,0.0,0.0,0.0,0.0,0.0,0.0,0.0,-5.3529,-5.3046,-5.3529,-5.377,-5.377,-5.377,-5.377,-5.377,-5.3253,-5.3011,-5.2977,-5.2183,-5.1395,-5.0582,-4.9795,-4.9381,-4.9199,-4.9046,-4.9018,-4.9086,0.0,0.0,0.0,0.0,0.0,0.0,0.0,0.0,0.0,0.0,0.0,0.0,0.0,0.0,0.0,0.0,0.0,0.0,-4.2586,-4.2586,-4.2586,-4.2586,-4.2586,-4.2586,-4.2586,-4.2586,-4.2815,-4.3164,-4.4068,-4.4202,-4.3686,-4.3686,-4.3298,-4.2586,-4.2586,-4.2586,-4.2586,-4.2586,-4.2586,-4.2586,-4.2586,-4.2197,-4.1579,0.0,0.0,0.0,0.0,0.0,0.0,0.0,-3.8991,0.0,0.0,0.0,0.0,0.0,-4.1727,-4.3113,-4.3113,-4.441,-4.5781,0.0,0.0,0.0,-4.8001,-4.8001,-4.8001,-4.8001,-4.826,-4.861,-4.8956,-4.9018,0.0,0.0,0.0,0.0,0.0,0.0,0.0,0.0,0.0,0.0,0.0,0.0,0.0,0.0,0.0,0.0,0.0,0.0,0.0,0.0,0.0,0.0,0.0,0.0,-5.2188,-5.2188,-5.2188,-5.2188,-5.2188,-5.2188,-5.2188,-5.2188,-5.2188,-5.2188,-5.2119,-5.139,-5.0543,-4.9679,-4.953,-4.9381,-4.9199,-4.9046,-4.9018,-4.9018,0.0,0.0,0.0,0.0,0.0,0.0,0.0,0.0,0.0,0.0,0.0,0.0,0.0,0.0,0.0,0.0,0.0,0.0,-4.1873,-4.2359,-4.2586,-4.2586,-4.2586,-4.2586,-4.2586,-4.2586,-4.2653,-4.2783,-4.3041,-4.3105,-4.291,-4.291,-4.2813,-4.2586,-4.2586,-4.2586,-4.2554,-4.2099,-4.1905,-4.184,-4.1322,-4.0998,-4.0804,0.0,0.0,0.0,0.0,0.0,0.0,0.0,0.0,0.0,0.0,0.0,0.0,-4.048,-4.1727,-4.3113,-4.3113,-4.441,0.0,0.0,0.0,0.0,0.0,-4.8001,0.0,0.0,-4.842,-4.861,-4.8956,0.0,0.0,0.0,0.0,0.0,0.0,0.0,0.0,0.0,0.0,0.0,0.0,0.0,0.0,0.0,0.0,0.0,0.0,0.0,0.0,0.0,0.0,0.0,0.0,0.0,0.0,-5.1459,-5.1459,-5.1671,-5.2188,-5.2188,-5.2188,-5.2153,-5.1636,-5.1459,-5.136,-5.0479,-4.9884,-4.953,-4.935,-4.926,-4.9199,-4.9046,-4.9018,-4.9018,0.0,0.0,0.0,0.0,0.0,0.0,0.0,0.0,0.0,0.0,-3.9315,-3.9394,0.0,0.0,0.0,0.0,0.0,0.0,0.0,-4.19,-4.2259,-4.2229,-4.2457,-4.2586,-4.2586,-4.2586,-4.2586,-4.2586,-4.2586,-4.2586,-4.2586,-4.2586,-4.2586,-4.2586,-4.2586,-4.2424,-4.2197,-4.1774,-4.145,-4.1126,-4.0675,-4.0318,-4.0092,0.0,0.0,0.0,0.0,0.0,0.0,0.0,0.0,0.0,0.0,0.0,0.0,-4.0867,-4.1955,-4.3113,-4.3113,0.0,0.0,0.0,0.0,0.0,-4.8001,0.0,0.0,0.0,0.0,-4.861,0.0,0.0,0.0,0.0,0.0,0.0,0.0,0.0,0.0,0.0,0.0,0.0,0.0,0.0,0.0,0.0,0.0,0.0,0.0,0.0,0.0,0.0,0.0,0.0,0.0,0.0,0.0,0.0,-5.0607,-5.0754,-5.1232,-5.1291,-5.1262,-5.1167,-5.066,-5.0454,-5.039,-4.9855,-4.953,-4.935,-4.926,-4.8999,-4.8666,-4.8609,-4.8376,-4.8139,0.0,0.0,0.0,0.0,0.0,0.0,0.0,0.0,0.0,0.0,-3.9342,-3.9342,0.0,0.0,0.0,0.0,0.0,0.0,0.0,0.0,-4.1666,-4.1545,-4.2099,-4.2392,-4.2392,-4.2392,-4.2424,-4.2489,-4.2554,-4.2586,-4.2586,-4.2586,-4.2586,-4.2586,-4.2522,-4.2164,-4.1579,-4.145,-4.1029,-4.0383,-4.0318,-3.993,-3.9408,-3.9408,0.0,0.0,0.0,0.0,0.0,0.0,0.0,0.0,0.0,0.0,-4.061,-4.132,-4.2248,-4.3113,0.0,0.0,0.0,0.0,0.0,0.0,0.0,0.0,0.0,0.0,0.0,0.0,0.0,0.0,0.0,0.0,0.0,0.0,0.0,0.0,0.0,0.0,0.0,0.0,0.0,0.0,0.0,0.0,0.0,0.0,0.0,0.0,0.0,0.0,0.0,0.0,0.0,0.0,0.0,0.0,0.0,-4.9473,-4.9473,-4.9791,-4.986,-4.9679,-4.953,-4.9471,-4.9471,-4.9471,-4.935,-4.9168,-4.9168,-4.8666,-4.7906,-4.7906,-4.7428,-4.6786,0.0,0.0,0.0,0.0,0.0,0.0,0.0,0.0,0.0,0.0,0.0,0.0,0.0,0.0,0.0,0.0,0.0,0.0,0.0,0.0,-4.1099,-4.0918,-4.0929,-4.0934,-4.0934,-4.0934,-4.1225,-4.1839,-4.2359,-4.2586,-4.2586,-4.2586,-4.2586,-4.2586,-4.2035,-4.1742,-4.1547,-4.0413,-3.9862,-3.9638,-3.9088,-3.8764,-3.8634,-3.8634,-3.8537,0.0,0.0,0.0,0.0,0.0,0.0,0.0,-3.857,-3.9476,-4.0513,-4.0675,-4.1857,-4.3113,0.0,0.0,0.0,0.0,0.0,0.0,0.0,0.0,0.0,0.0,0.0,0.0,0.0,0.0,0.0,0.0,0.0,0.0,0.0,0.0,0.0,0.0,0.0,0.0,0.0,0.0,0.0,0.0,0.0,0.0,0.0,0.0,0.0,0.0,0.0,0.0,0.0,0.0,0.0,0.0,-4.7843,-4.7814,-4.7849,-4.9076,-4.956,-4.953,-4.95,-4.9411,-4.926,-4.926,-4.9168,-4.9015,-4.9015,-4.8575,-4.7906,-4.7906,-4.7428,-4.6786,0.0,0.0,0.0,0.0,0.0,0.0,0.0,0.0,0.0,0.0,0.0,0.0,0.0,0.0,0.0,0.0,0.0,0.0,0.0,0.0,-4.0656,-4.0838,-4.0691,-4.0599,-4.0599,-4.051,-4.0675,-4.1093,-4.1419,-4.1939,-4.2586,-4.2586,-4.2424,-4.2099,-4.1774,-4.1223,-4.0542,-3.9829,-3.9311,-3.8926,-3.8537,-3.8408,-3.8408,-3.8408,-3.8408,-3.8408,-3.8408,0.0,0.0,0.0,0.0,0.0,0.0,0.0,-4.0545,-4.0901,-4.202,-4.3113,0.0,0.0,0.0,0.0,0.0,0.0,0.0,0.0,0.0,0.0,0.0,0.0,0.0,0.0,0.0,0.0,0.0,0.0,0.0,0.0,0.0,0.0,0.0,0.0,0.0,0.0,0.0,0.0,0.0,0.0,0.0,0.0,0.0,0.0,0.0,0.0,-4.7894,-4.786,-4.7654,-4.7307,-4.7221,-4.7135,-4.7111,-4.7919,-4.8294,-4.8294,-4.8235,-4.8146,-4.809,-4.8429,-4.8335,-4.797,-4.8342,-4.7834,-4.6853,-4.6853,-4.638,-4.5766,0.0,0.0,0.0,0.0,0.0,0.0,0.0,0.0,0.0,0.0,0.0,0.0,0.0,0.0,0.0,0.0,0.0,0.0,0.0,0.0,0.0,-4.0623,-4.0479,-4.0359,-4.033,-4.0212,-4.0218,-4.0318,-4.0318,-4.0998,-4.223,-4.223,-4.1938,-4.1417,-4.1288,-4.0607,-3.9505,-3.9376,-3.8958,-3.8408,-3.8408,-3.8408,-3.8408,-3.8408,-3.8408,-3.8408,-3.8408,-3.8408,-3.8408,-3.8408,0.0,0.0,0.0,0.0,-4.0448,-4.1061,-4.2053,-4.2916,0.0,0.0,0.0,0.0,0.0,0.0,0.0,0.0,0.0,0.0,0.0,0.0,0.0,0.0,0.0,0.0,0.0,0.0,0.0,0.0,0.0,0.0,0.0,0.0,0.0,0.0,0.0,0.0,0.0,0.0,0.0,0.0,0.0,0.0,0.0,0.0,-4.7051,-4.7016,-4.6982,-4.6846,-4.6674,-4.6559,-4.6413,-4.6559,-4.6719,-4.6961,-4.6844,-4.6786,-4.6853,-4.7462,-4.7361,-4.6853,-4.7496,-4.6887,-4.5703,-4.5703,-4.5229,-4.4615,0.0,0.0,0.0,0.0,0.0,0.0,0.0,0.0,0.0,0.0,-3.9935,-3.9858,0.0,0.0,0.0,0.0,0.0,0.0,0.0,0.0,0.0,-3.9249,-3.9111,-3.9005,-3.8865,-3.8865,-3.9105,-3.9635,-3.9635,-4.0027,-4.0772,-4.0772,-4.0739,-4.061,-4.0056,-3.97,-3.9473,-3.8829,-3.8505,-3.8408,-3.8408,-3.8408,-3.8408,-3.8408,-3.8408,-3.8408,-3.8408,-3.8408,-3.8408,-3.8408,-3.8408,0.0,0.0,0.0,-3.9667,-3.9765,-4.0975,-4.2258,0.0,0.0,0.0,0.0,0.0,0.0,0.0,0.0,0.0,0.0,0.0,0.0,0.0,0.0,0.0,0.0,0.0,0.0,0.0,0.0,0.0,0.0,0.0,0.0,0.0,0.0,0.0,0.0,0.0,0.0,0.0,0.0,0.0,0.0,0.0,0.0,-4.5896,-4.5896,-4.5591,-4.4942,-4.4914,-4.4886,-4.4886,-4.4886,-4.5625,-4.6815,-4.6815,-4.6786,-4.6786,-4.6921,-4.6887,-4.6819,-4.6921,-4.6447,-4.5703,-4.5703,-4.5229,-4.4615,0.0,0.0,0.0,0.0,0.0,0.0,0.0,0.0,0.0,0.0,0.0,-3.9986,0.0,0.0,0.0,0.0,0.0,0.0,0.0,0.0,0.0,-3.9175,-3.9013,-3.8903,-3.8821,-3.8688,-3.8707,-3.8975,-3.8918,-3.9023,-3.9314,-3.9314,-3.9541,-3.9959,-3.9635,-3.9279,-3.8861,-3.8537,-3.8408,-3.8408,-3.8408,-3.8408,-3.8408,-3.8408,-3.8408,-3.8408,-3.8408,-3.8408,-3.8408,-3.8408,-3.8408,-3.8408,-3.8408,0.0,0.0,0.0,-4.0424,0.0,0.0,0.0,0.0,0.0,0.0,0.0,0.0,0.0,0.0,0.0,0.0,0.0,0.0,0.0,0.0,0.0,0.0,0.0,0.0,0.0,0.0,0.0,0.0,0.0,0.0,0.0,0.0,0.0,0.0,0.0,0.0,-4.4891,-4.506,-4.506,-4.5399,0.0,-4.5094,-4.506,-4.4919,-4.4615,-4.4615,-4.4615,-4.4615,-4.4615,-4.4953,-4.5596,-4.5596,-4.5596,-4.5596,-4.6007,-4.594,-4.5602,-4.6007,-4.5737,-4.506,-4.506,-4.4857,-4.4615,0.0,0.0,0.0,0.0,0.0,0.0,0.0,0.0,0.0,0.0,0.0,0.0,0.0,0.0,0.0,0.0,0.0,0.0,0.0,0.0,0.0,-3.9315,-3.9148,-3.9067,-3.9013,-3.8794,-3.8688,-3.8604,-3.852,-3.8436,-3.8408,-3.8408,-3.8699,-3.9246,-3.9246,-3.8893,-3.8408,-3.8408,-3.8408,-3.8408,-3.8408,-3.8408,-3.8408,-3.8408,-3.8408,-3.8408,-3.8602,-3.8667,-3.8667,-3.8667,-3.8667,-3.8634,-3.8472,-3.8764,0.0,0.0,0.0,0.0,0.0,0.0,0.0,0.0,0.0,0.0,0.0,0.0,0.0,0.0,0.0,0.0,0.0,0.0,0.0,0.0,0.0,0.0,0.0,0.0,0.0,0.0,0.0,0.0,0.0,0.0,0.0,0.0,0.0,0.0,0.0,-4.4615,-4.4615,-4.4615,-4.4615,-4.4615,-4.4615,-4.4615,-4.4615,-4.4615,-4.4615,-4.4615,-4.4615,-4.4615,-4.4615,-4.4615,-4.4615,-4.4615,-4.4649,-4.5196,-4.5094,-4.4649,-4.5196,-4.506,-4.4615,-4.4615,-4.4615,-4.4615,0.0,0.0,0.0,0.0,0.0,0.0,0.0,0.0,0.0,0.0,0.0,-4.0113,-4.0087,-3.9961,-3.9884,-3.9884,-3.9755,0.0,0.0,0.0,0.0,-3.9315,-3.9282,0.0,-3.898,-3.9013,-3.8849,-3.8604,-3.8604,-3.852,-3.8408,-3.8408,-3.8408,-3.8472,-3.8472,-3.844,-3.8408,-3.8408,-3.8408,-3.8408,-3.8408,-3.8408,-3.8408,-3.8408,-3.8408,-3.8505,-3.9214,-3.9441,-3.9441,-3.9441,-3.9441,-3.9343,-3.8602,-3.844,-3.8472,0.0,0.0,0.0,0.0,0.0,0.0,0.0,0.0,0.0,0.0,0.0,0.0,0.0,0.0,0.0,0.0,0.0,0.0,0.0,0.0,0.0,0.0,0.0,0.0,0.0,0.0,0.0,0.0,0.0,0.0,0.0,0.0,0.0,-4.4615,-4.4615,-4.4615,-4.4615,-4.4615,-4.4615,-4.4615,-4.4615,-4.4615,-4.4615,-4.4615,-4.4615,-4.4615,-4.4615,-4.4615,-4.4615,-4.4615,-4.4615,-4.4615,-4.4649,-4.4649,-4.4615,-4.4649,-4.4649,-4.4615,-4.4615,-4.4615,-4.4615,0.0,0.0,0.0,0.0,0.0,0.0,0.0,0.0,0.0,0.0,0.0,0.0,0.0,-4.0062,-4.0037,-4.0037,-3.991,0.0,0.0,0.0,0.0,-3.9282,-3.9315,-3.9255,-3.9175,-3.9067,-3.8958,-3.8849,-3.8683,-3.8576,-3.8548,-3.8436,-3.8408,-3.8408,-3.8408,-3.8408,-3.8408,-3.8408,-3.8408,-3.8408,-3.8408,-3.8408,-3.844,-3.8926,-3.9088,-3.9185,-3.9865,-4.0124,-4.0124,-4.0124,-3.9862,-3.9473,-3.9214,-3.8764,-3.8436,-3.86,-3.8902,-3.9401,-4.0464,0.0,0.0,0.0,0.0,0.0,0.0,0.0,0.0,0.0,0.0,0.0,0.0,0.0,0.0,0.0,0.0,0.0,0.0,0.0,0.0,0.0,0.0,0.0,0.0,0.0,0.0,0.0,0.0,0.0,-4.4615,-4.4615,-4.4615,-4.4615,-4.4615,-4.435,-4.3842,-4.3369,-4.3098,-4.3098,-4.3098,-4.3098,-4.3132,-4.3606,-4.3842,-4.3876,-4.4378,-4.4615,-4.4615,-4.4615,-4.4615,-4.4615,-4.4615,-4.4615,-4.4615,-4.4615,-4.4615,-4.4615,0.0,0.0,0.0,0.0,0.0,0.0,0.0,0.0,-4.0857,-4.0857,0.0,0.0,0.0,0.0,-4.0383,-4.0113,-3.9961,-3.9807,-3.9659,-3.9554,-3.9475,-3.9395,-3.9309,-3.9315,-3.9315,-3.9175,-3.9067,-3.9013,-3.8821,-3.8711,-3.8655,-3.8548,-3.8464,-3.8464,-3.8436,-3.8408,-3.8408,-3.8408,-3.8408,-3.8408,-3.8408,-3.8537,-3.8829,-3.9311,-3.9667,-3.9959,-4.061,-4.0899,-4.0899,-4.0899,-4.0575,-4.0121,-3.9667,-3.8991,-3.8464,-3.8738,-3.8788,-3.8975,-3.983,-4.0044,0.0,0.0,0.0,0.0,0.0,0.0,0.0,0.0,0.0,0.0,0.0,0.0,0.0,0.0,0.0,0.0,0.0,0.0,0.0,0.0,0.0,0.0,0.0,0.0,0.0,0.0,0.0,0.0,-4.4615,-4.4316,-4.4079,-4.3787,-4.3726,-4.3434,-4.2894,-4.2422,-4.2153,-4.2153,-4.2153,-4.2153,-4.2186,-4.2719,-4.3084,-4.3354,-4.3894,-4.4322,-4.4615,-4.4615,-4.4615,-4.4615,-4.4615,-4.4615,-4.4615,-4.4615,-4.4615,-4.4615,0.0,0.0,0.0,0.0,0.0,0.0,0.0,0.0,-4.2286,-4.2286,0.0,0.0,0.0,0.0,0.0,-4.0214,-4.002,-3.9918,-3.9884,-3.9659,-3.9501,-3.9501,-3.9395,-3.9282,-3.9315,-3.9315,-3.9202,-3.9013,-3.9013,-3.8925,-3.8788,-3.8655,-3.8604,-3.8604,-3.8464,-3.8408,-3.8408,-3.8408,-3.8408,-3.8408,-3.8408,-3.8829,-3.9505,-3.9538,-3.9959,-4.061,-4.1385,-4.1644,-4.1644,-4.1644,-4.1612,-4.1353,-3.9959,-3.8991,-3.8464,-3.8738,-3.8788,-3.8876,0.0,0.0,0.0,0.0,0.0,0.0,0.0,0.0,0.0,0.0,0.0,0.0,0.0,0.0,0.0,0.0,0.0,0.0,0.0,0.0,0.0,0.0,0.0,0.0,0.0,0.0,0.0,0.0,0.0,0.0,-4.4519,-4.3781,-4.2983,-4.2139,-4.1936,-4.1848,-4.1848,-4.1848,-4.1848,-4.1848,-4.1848,-4.1848,-4.1848,-4.1984,-4.2442,-4.3115,-4.3155,-4.3737,-4.4553,-4.4587,-4.4587,-4.4587,-4.4587,-4.4587,-4.4587,-4.4587,-4.4587,-4.4559,0.0,0.0,0.0,0.0,0.0,-4.3098,-4.3098,-4.2625,-4.2286,0.0,0.0,0.0,-4.2286,-4.2117,-4.1677,-4.0967,-4.0874,-4.056,-3.9918,-3.9807,-3.9711,-3.9501,-3.9475,-3.9422,-3.9315,-3.9315,-3.9255,-3.9202,-3.9094,-3.8985,-3.8925,-3.8821,-3.8683,-3.8604,-3.8576,-3.8492,-3.8408,-3.8408,-3.8408,-3.8408,-3.8408,-3.8829,-3.957,-4.0027,-4.0642,-4.1385,-4.2067,-4.2295,-4.2295,-4.2295,-4.2002,-4.1353,-3.9959,-3.8991,-3.8464,-3.8738,-3.8788,-3.8876,-3.9202,0.0,0.0,0.0,0.0,0.0,0.0,0.0,0.0,0.0,0.0,0.0,0.0,0.0,0.0,0.0,0.0,0.0,0.0,0.0,0.0,0.0,0.0,0.0,0.0,0.0,0.0,0.0,0.0,-4.2656,-4.2656,-4.2427,-4.2225,-4.1969,-4.1379,-4.1084,-4.1084,-4.0574,-4.0306,-4.0306,-4.0306,-4.0306,-4.034,-4.0903,-4.1265,-4.1533,-4.2579,-4.3177,-4.3468,-4.4039,-4.4241,-4.4241,-4.4241,-4.4241,-4.4241,-4.4241,-4.4241,-4.4212,0.0,0.0,0.0,0.0,0.0,-4.3959,-4.3959,-4.3593,-4.3261,0.0,0.0,0.0,-4.2794,-4.276,-4.2455,-4.1711,-4.1373,-4.0983,-4.0492,-4.0078,-3.9807,-3.9685,-3.9554,-3.9475,-3.9395,-3.9342,-3.9315,-3.9315,-3.8877,-3.8692,-3.8659,-3.8202,-3.8127,-3.8341,-3.8204,-3.8284,-3.8492,-3.8436,-3.8408,-3.8408,-3.8408,-3.8991,-3.9959,-4.0351,-4.1128,-4.2067,-4.2457,-4.2586,-4.2586,-4.2586,-4.2164,-4.1417,-4.0283,-3.9412,-3.8853,-3.8804,-3.8788,-3.8876,-3.9202,-3.9315,-3.9315,-3.9315,0.0,0.0,0.0,0.0,0.0,0.0,0.0,0.0,0.0,0.0,0.0,0.0,0.0,0.0,0.0,0.0,0.0,0.0,0.0,0.0,0.0,0.0,0.0,0.0,-4.1881,-4.1781,-4.1479,-4.1391,-4.123,-4.0929,-4.0414,-4.0188,-4.0188,-3.9754,-3.952,-3.952,-3.952,-3.952,-3.9554,-4.0041,-4.0435,-4.0769,-4.1638,-4.2339,-4.2941,-4.3289,-4.3714,-4.4097,-4.4097,-4.4097,-4.4097,-4.4097,-4.4097,-4.4097,0.0,0.0,-4.5022,-4.4988,-4.4913,-4.4803,-4.4803,-4.4692,-4.4615,0.0,-4.4615,-4.4344,-4.3612,-4.3511,-4.3234,-4.2489,-4.1813,-4.1373,-4.1204,-4.0492,-4.0011,-3.9884,-3.9685,-3.9528,-3.9501,-3.9395,-3.9249,-3.9183,-3.8526,-3.8162,-3.8037,-3.7272,-3.7254,-3.7887,0.0,0.0,-3.8502,-3.846,0.0,-3.8436,-3.8408,-3.925,0.0,0.0,-4.1387,-4.2586,-4.2586,-4.2586,-4.2586,-4.2586,-4.2164,-4.1482,-4.0737,-4.0056,-3.9401,-3.8962,-3.8816,-3.8903,-3.9202,-3.9315,-3.9315,-3.9315,-3.9315,0.0,-3.9315,-3.9315,0.0,0.0,0.0,0.0,0.0,0.0,0.0,0.0,0.0,0.0,0.0,0.0,0.0,0.0,0.0,0.0,0.0,0.0,0.0,-4.1592,-4.1619,-4.1324,-4.0689,-4.0515,-4.0167,-3.9475,-3.9369,-3.9315,-3.9315,-3.9315,-3.9315,-3.9315,-3.9315,-3.9315,-3.9282,-3.9422,-3.9834,-4.0434,-4.054,-4.1305,-4.2537,-4.2526,-4.3111,-4.4039,-4.4039,-4.4039,-4.4039,-4.4039,-4.4039,-4.401,0.0,-4.515,-4.5123,-4.5022,-4.4995,-4.494,-4.4803,-4.4776,-4.472,-4.4615,-4.4615,-4.4547,-4.4378,-4.4378,-4.4045,-4.3267,-4.3037,-4.2489,-4.1271,-4.1043,-4.0627,-3.9918,-3.9866,-3.9737,-3.9501,-3.9475,-3.9096,-3.8427,-3.8295,-3.7897,-3.7334,-3.7143,-3.7067,-3.7129,-3.7669,-3.7892,-3.7916,0.0,0.0,-3.8548,-3.8464,0.0,-4.048,-4.048,-4.1387,-4.2586,-4.2586,-4.2586,-4.2586,-4.2586,-4.2164,-4.1482,-4.0856,-4.0203,-3.9544,-3.91,-3.8985,-3.9013,-3.9228,-3.9315,-3.9315,-3.9315,-3.9315,0.0,-3.9315,-3.9315,0.0,0.0,0.0,0.0,0.0,0.0,0.0,0.0,0.0,0.0,0.0,0.0,0.0,0.0,0.0,0.0,0.0,0.0,0.0,-3.986,-3.9794,-3.9727,-3.9594,-3.9568,-3.9501,-3.9342,-3.9315,-3.9315,-3.9315,-3.9315,-3.9315,-3.9315,-3.9315,-3.9315,-3.9315,-3.9342,-3.9435,-3.9601,-4.0171,-4.0602,-4.0934,-4.2038,-4.2995,-4.3717,-4.3717,-4.3717,-4.3717,-4.3717,-4.3717,-4.3687,-4.5318,-4.5318,-4.5291,-4.5211,-4.5123,-4.5103,-4.5022,-4.4886,-4.4912,-4.5235,-4.5523,-4.5698,-4.5698,-4.5365,-4.4993,-4.4587,-4.3815,-4.3071,-4.2354,-4.161,-4.1009,-4.056,-4.0137,-3.9866,-3.9711,-3.9625,-3.9187,-3.8299,-3.7934,-3.7344,-3.6539,-3.6174,-3.6158,-3.6472,-3.6759,-3.7268,-3.788,0.0,-3.8357,-3.8683,-3.8492,0.0,-4.048,-4.048,-4.1448,-4.2744,-4.2744,-4.2774,-4.2836,-4.2836,-4.2639,-4.2181,-4.1164,-4.0638,-4.0144,-3.9287,-3.9013,-3.9067,-3.9228,-3.9315,-3.9315,-3.9315,-3.9315,0.0,0.0,-3.8758,0.0,0.0,0.0,0.0,0.0,0.0,0.0,0.0,0.0,0.0,0.0,0.0,0.0,0.0,0.0,0.0,0.0,0.0,-3.8593,-3.8228,-3.8195,-3.8195,-3.8195,-3.8195,-3.8195,-3.8195,-3.8195,-3.8195,-3.8195,-3.856,-3.8758,-3.8758,-3.9116,-3.9315,-3.9315,-3.9315,-3.9315,-3.9315,-3.968,-4.0078,-4.0475,-4.1143,-4.2104,-4.3069,-4.3466,-4.3598,-4.3598,-4.3598,-4.3598,-4.3598,-4.5397,-4.5397,-4.5397,-4.5397,-4.5318,-4.523,-4.5203,-4.5125,-4.5335,-4.6034,-4.6501,-4.6786,-4.6786,-4.6278,-4.5906,-4.5906,-4.4654,-4.3781,-4.3639,-4.2388,-4.1508,-4.1204,-4.0526,-4.0078,-3.9884,-3.9781,-3.9242,-3.822,-3.7594,-3.6787,-3.5801,-3.5205,-3.5214,-3.581,-3.582,-3.6587,-3.7814,0.0,0.0,-3.8821,0.0,-3.9239,-4.0407,-4.0537,-4.1471,-4.2735,-4.2865,-4.299,-4.3113,-4.3113,-4.3113,-4.2851,-4.1471,-4.1041,-4.0808,-3.9468,-3.9067,-3.9094,-3.9288,-3.9315,-3.9315,-3.9315,-3.9183,-3.8924,0.0,0.0,0.0,0.0,0.0,0.0,0.0,0.0,0.0,0.0,0.0,0.0,0.0,0.0,0.0,0.0,0.0,0.0,0.0,0.0,0.0,-3.7102,-3.7102,-3.7102,-3.7102,-3.7102,-3.7102,-3.7102,-3.7102,-3.7102,-3.7102,-3.7673,-3.7971,-3.7996,-3.8725,-3.9083,-3.9116,-3.9249,-3.9315,-3.9315,-3.9315,-3.9647,-4.021,-4.0343,-4.1077,-4.2175,-4.3035,-4.3466,-4.3598,-4.3598,-4.3598,-4.3598,-4.5397,-4.5397,-4.5397,-4.5397,-4.5397,-4.5344,-4.5203,-4.5726,-4.6309,-4.681,-4.6806,-4.6786,-4.6786,-4.6718,-4.6684,-4.6684,-4.594,-4.5162,-4.4513,-4.3639,-4.2564,-4.1271,-4.111,-4.0687,-3.9918,-3.9884,-3.9135,-3.7601,-3.7411,-3.657,-3.5214,-3.4996,-3.4949,-3.5048,-3.5686,0.0,0.0,0.0,-3.8354,0.0,-3.8788,-3.9224,0.0,-4.0664,-4.1445,-4.2198,-4.2853,-4.3082,-4.3113,0.0,-4.3113,-4.2881,0.0,-4.1157,-4.0951,-3.9632,-3.9288,-3.9255,-3.9282,-3.9315,-3.9315,-3.9315,-3.8791,-3.8328,0.0,0.0,-3.7036,0.0,0.0,0.0,0.0,0.0,0.0,0.0,0.0,0.0,0.0,0.0,0.0,0.0,0.0,0.0,0.0,0.0,0.0,0.0,-3.7102,-3.7102,-3.7102,-3.7102,-3.7102,-3.7102,-3.7102,-3.7102,-3.7102,-3.7201,-3.7235,-3.7235,-3.7996,-3.8328,-3.8361,-3.9017,-3.9315,-3.9315,-3.9315,-3.9348,-3.9481,-4.0144,-4.0509,-4.0746,-4.2104,-4.3002,-4.3598,-4.3598,-4.3598,-4.3598,-4.5397,-4.5397,-4.5397,-4.5397,-4.5397,-4.5543,-4.5964,-4.6948,-4.7638,-4.7656,-4.7946,-4.8162,-4.8071,-4.7699,-4.7462,-4.7462,-4.6752,-4.621,-4.5872,-4.4756,-4.3809,-4.32,-4.1914,-4.1043,-4.0687,-4.0248,-3.9455,-3.8253,-3.7776,-3.6965,-3.5823,-3.5305,-3.5034,-3.5034,-3.5262,0.0,-3.7135,0.0,-3.8124,0.0,0.0,0.0,0.0,-4.0151,-4.1107,-4.2216,-4.2631,-4.3023,-4.3386,0.0,-4.3386,0.0,0.0,0.0,0.0,-3.9686,-3.9315,-3.9315,-3.9315,-3.9315,0.0,0.0,0.0,0.0,-3.7665,0.0,-3.6241,0.0,0.0,0.0,0.0,0.0,0.0,0.0,0.0,0.0,0.0,0.0,0.0,0.0,0.0,0.0,0.0,0.0,0.0,0.0,0.0,-3.5379,-3.581,-3.581,-3.581,-3.581,-3.581,-3.581,-3.581,-3.6241,-3.6473,-3.6473,-3.7639,-3.8202,-3.8228,-3.8957,-3.9315,-3.9315,-3.9315,-3.9315,-3.9315,-3.9647,-4.0011,-4.0509,-4.1475,-4.2307,-4.3002,-4.3433,-4.3598,-4.3598,-4.5397,-4.5397,-4.5397,-4.5397,-4.5569,-4.6052,-4.7052,-4.8008,-4.8591,-4.8528,-4.912,-4.9474,-4.9416,-4.9049,-4.8785,-4.8785,-4.7936,-4.7394,-4.7394,-4.6007,-4.5021,-4.4615,-4.2997,-4.1847,-4.1204,-4.0663,-3.9893,-3.8848,-3.8091,-3.7268,-3.6434,-3.5556,-3.5152,-3.5152,0.0,-3.5759,-3.7153,0.0,-3.793,-3.9315,-3.9315,-3.9315,-3.9355,-3.9863,-4.0889,-4.2063,-4.2179,-4.2539,-4.3002,-4.3002,-4.3002,0.0,-4.1541,0.0,-4.0878,0.0,-3.9315,-3.9315,-3.9315,0.0,0.0,0.0,0.0,0.0,0.0,0.0,0.0,0.0,0.0,0.0,0.0,0.0,-3.3789,-3.3789,0.0,0.0,0.0,0.0,0.0,0.0,0.0,0.0,0.0,0.0,0.0,0.0,-3.3491,0.0,-3.4253,-3.4485,-3.4584,-3.4584,-3.4783,-3.4883,-3.4883,-3.5446,-3.5711,-3.5711,-3.7003,-3.7698,-3.793,-3.8659,-3.9116,-3.9315,-3.9315,-3.9315,-3.9315,-3.9315,-3.9613,-4.0177,-4.0845,-4.1574,-4.2307,-4.3234,-4.3598,-4.3598,-4.5397,-4.5397,-4.5397,-4.5397,-4.6017,-4.7052,-4.8499,-4.8661,-4.885,-4.9541,-5.0059,-5.0351,-5.0351,-5.0805,-5.1083,-5.1083,-4.9763,-4.8951,-4.8951,-4.753,-4.6075,-4.4682,-4.4547,-4.3464,-4.1271,-4.117,-4.046,-3.9005,-3.814,-3.7326,-3.6575,-3.5696,-3.5291,-3.5291,-3.5152,-3.5937,-3.7311,-3.7153,-3.793,-3.9315,-3.9315,-3.9315,-3.9381,0.0,-4.0812,-4.1413,-4.1413,0.0,0.0,-4.1475,-4.1475,0.0,0.0,0.0,0.0,0.0,0.0,0.0,0.0,0.0,0.0,-3.9315,0.0,0.0,0.0,0.0,-3.4916,0.0,0.0,0.0,-3.4883,-3.4286,-3.3789,-3.3789,-3.2597,0.0,0.0,0.0,0.0,0.0,0.0,0.0,0.0,0.0,0.0,0.0,-3.2752,0.0,-3.2785,-3.3425,-3.3822,-3.3822,-3.4518,-3.4883,-3.4883,-3.4916,-3.4949,-3.4949,-3.5711,-3.6439,-3.7168,-3.7897,-3.8626,-3.9315,-3.9315,-3.9315,-3.9315,-3.9315,-3.9315,-3.9415,-4.0144,-4.0845,-4.1607,-4.3069,-4.3598,-4.3598,-4.55,-4.5811,-4.6017,-4.55,-4.6052,-4.7113,-4.8568,-4.9642,0.0,0.0,-5.1059,0.0,-5.1353,-5.1369,-5.1378,-5.1378,-5.0807,-5.027,-4.9763,-4.8781,-4.7834,-4.6819,-4.5365,-4.4242,-4.347,-4.1982,-4.0967,-4.046,-3.9158,-3.8179,-3.7445,-3.6575,-3.59,-3.5406,-3.5291,-3.6024,0.0,0.0,0.0,0.0,0.0,-3.9315,-3.9315,0.0,0.0,-4.0746,-4.0746,-4.1011,0.0,-4.1409,-4.1409,-4.1276,-4.0613,-4.0409,-4.0276,-3.9514,-3.9315,0.0,0.0,0.0,-3.9315,-3.9315,0.0,0.0,0.0,0.0,0.0,0.0,0.0,0.0,-3.4253,-3.358,-3.2895,-3.2431,-3.1515,-3.0688,0.0,-2.9317,0.0,0.0,0.0,0.0,0.0,0.0,0.0,-3.1879,-3.1967,0.0,0.0,-3.295,-3.3315,-3.3756,-3.4021,-3.4419,-3.4883,-3.4883,-3.4883,-3.4916,-3.5644,-3.6406,-3.7135,-3.7838,-3.8593,-3.9315,-3.9315,-3.9315,-3.9315,-3.9315,-3.9315,-3.9381,-4.0111,-4.0542,-4.0912,-4.234,-4.3168,-4.3598,-4.6328,-4.6638,-4.6741,-4.5949,-4.6672,0.0,0.0,0.0,0.0,0.0,-5.1798,0.0,-5.2261,0.0,-5.2386,-5.2386,-5.1987,-5.1517,-5.1009,-4.9997,-4.9052,-4.8342,-4.6684,-4.5399,-4.4615,-4.3166,-4.2016,-4.1204,-3.9986,-3.9005,-3.8261,-3.7175,-3.6443,-3.5948,-3.5833,-3.6434,-3.7575,0.0,-3.8479,0.0,0.0,-3.9395,0.0,0.0,-3.9613,0.0,0.0,-4.0282,-4.0647,-4.0647,-4.0647,-4.058,-4.0144,-4.0011,-3.9912,-3.9448,-3.9315,-3.9315,-3.9315,-3.9315,0.0,-3.9315,-3.8195,0.0,-3.7102,0.0,0.0,0.0,0.0,0.0,-3.3922,-3.3216,-3.2464,-3.1714,-3.0754,-2.9761,0.0,-2.8276,0.0,0.0,0.0,0.0,0.0,0.0,-2.9549,-3.0721,-3.082,-3.1118,0.0,0.0,-3.2531,-3.2994,-3.3524,-3.4021,-3.4485,-3.4783,-3.4883,-3.4916,-3.5379,-3.6009,-3.6738,-3.7466,-3.8195,-3.8917,-3.9183,-3.9315,-3.9315,-3.9315,-3.9315,-3.9348,-3.9812,-4.0177,-4.0575,-4.1972,-4.2969,-4.3598,-4.7734,-4.7707,-4.7562,0.0,-4.7948,0.0,0.0,0.0,-5.1218,0.0,-5.2372,-5.3172,-5.3241,-5.3734,-5.4081,-5.4081,-5.3237,-5.2697,-5.2629,-5.1142,-4.9895,-4.9117,-4.8342,-4.6955,-4.475,-4.4649,-4.3532,-4.1271,-4.0502,-3.9783,-3.8971,-3.7574,-3.6863,-3.6795,-3.6713,0.0,-3.7764,-3.8346,-3.9033,-3.9677,-3.958,-3.9528,-3.9501,-3.9369,0.0,-3.9315,-3.9315,-3.9315,-3.9315,-3.9315,-3.9315,-3.9315,-3.9315,-3.9315,-3.9315,-3.9315,-3.9315,-3.9315,-3.9315,-3.9315,-3.9282,-3.9249,0.0,0.0,0.0,0.0,-3.4883,0.0,0.0,0.0,0.0,-3.3183,-3.2431,-3.1681,-3.0323,-2.8887,-2.7481,-2.7249,-2.6984,0.0,0.0,0.0,0.0,-2.8343,-2.8641,-2.9317,-2.9363,-2.9694,0.0,0.0,0.0,-3.1615,-3.2961,-3.3723,-3.3789,-3.4485,-3.4849,-3.4883,-3.4883,-3.528,-3.6042,-3.6771,-3.75,-3.8261,-3.8957,-3.9315,-3.9315,-3.9315,-3.9315,-3.9315,-3.9315,-3.9746,-4.0547,-4.1976,-4.2936,-4.3502,-4.7838,-4.812,-4.881,0.0,-4.9804,-4.9942,0.0,0.0,0.0,0.0,-5.3601,-5.4362,-5.4913,-5.4993,-5.5032,-5.5032,-5.4662,0.0,0.0,-5.2416,-5.1566,-5.0237,-4.9487,-4.8235,-4.6418,-4.5326,-4.3844,-4.2016,-4.1271,-4.0257,-3.8971,-3.8599,-3.7845,-3.6829,0.0,0.0,-3.7884,-3.8504,-3.9143,-3.9703,-3.9651,-3.9651,0.0,0.0,-3.9448,-3.9448,-3.9342,-3.9315,-3.9315,-3.9315,-3.9315,-3.9315,-3.9315,-3.9315,-3.9315,-3.9315,-3.9315,-3.9315,-3.9315,-3.9315,-3.9183,-3.8626,-3.7798,-3.697,0.0,0.0,0.0,0.0,0.0,0.0,0.0,0.0,-3.2266,-3.0986,-2.9582,-2.8343,-2.7415,-2.6851,0.0,-2.6219,0.0,0.0,0.0,-2.758,-2.7879,-2.8608,-2.9118,0.0,0.0,0.0,0.0,0.0,-3.1979,-3.2696,-3.3789,-3.3988,-3.4352,-3.4883,-3.4883,-3.528,-3.6042,-3.6771,-3.75,-3.8261,-3.8957,-3.9315,-3.9315,-3.9315,-3.9315,-3.9315,-3.9315,-3.9665,-4.0348,-4.1803,-4.2462,-4.2693,-4.8832,-4.9292,0.0,-5.136,0.0,0.0,-5.1597,0.0,0.0,-5.3839,-5.4529,0.0,-5.6046,-5.6052,-5.5986,-5.5986,-5.5545,0.0,-5.4076,0.0,-5.234,-5.1145,-5.0359,-4.9236,-4.7646,-4.6453,-4.5041,-4.3376,-4.2291,-4.1154,-3.9952,-3.9309,-3.8565,-3.7777,0.0,-3.8396,0.0,-3.91,-3.9564,-3.9884,-3.9807,0.0,0.0,-3.9625,-3.9554,-3.9501,-3.9422,-3.9369,-3.9315,-3.9315,-3.9315,-3.9315,-3.9315,-3.9315,-3.9315,-3.9315,-3.9315,-3.9315,-3.9315,-3.9315,-3.9116,-3.8394,-3.7665,-3.6903,-3.6174,-3.5446,-3.4883,0.0,0.0,0.0,0.0,0.0,-3.21,-3.029,-2.9118,-2.8144,-2.7381,-2.6667,0.0,0.0,-2.6185,0.0,0.0,0.0,0.0,0.0,0.0,0.0,0.0,0.0,0.0,0.0,-3.1416,-3.2144,-3.3292,-3.3624,-3.4154,-3.4883,-3.4883,-3.5114,-3.5545,-3.6638,-3.7334,-3.7798,-3.8851,-3.9315,-3.9315,-3.9315,-3.9315,-3.9282,-3.9202,-3.9331,-3.9654,-4.075,-4.1599,-4.2315,-5.0316,-5.0804,0.0,0.0,0.0,0.0,0.0,-5.3253,0.0,-5.4563,0.0,-5.6081,-5.6874,-5.6943,-5.6943,-5.6943,0.0,-5.5542,-5.5439,-5.3971,-5.2746,-5.1959,-5.1206,-5.0112,-4.8577,-4.7689,-4.6442,-4.4831,-4.3299,-4.2098,-4.1222,-3.9833,-3.9097,-3.9029,0.0,0.0,0.0,-3.9842,-4.0113,0.0,-3.9961,-3.9977,-4.0078,-3.9915,-3.9852,-3.9821,-3.9694,-3.9488,-3.9315,-3.9315,-3.9315,-3.9315,-3.9315,-3.9315,-3.9282,-3.9342,-3.9342,-3.9309,-3.9236,-3.9203,-3.9003,-3.8181,-3.7484,-3.6821,-3.6033,-3.537,-3.4906,-3.4883,-3.4883,0.0,0.0,0.0,-3.1735,-2.9728,-2.882,-2.8144,0.0,0.0,0.0,0.0,0.0,0.0,0.0,0.0,0.0,0.0,0.0,0.0,0.0,0.0,0.0,0.0,-3.1085,0.0,-3.2685,0.0,-3.4054,-3.4883,-3.4883,-3.4883,-3.4949,-3.634,-3.7003,-3.7201,-3.856,-3.9216,-3.9315,-3.9255,-3.9228,-3.9202,-3.9013,-3.8876,-3.8832,-3.9475,-4.0547,-4.1841,-5.1869,-5.1912,0.0,0.0,0.0,-5.446,-5.4943,-5.515,-5.5288,-5.5391,-5.6115,-5.6874,-5.7633,-5.7702,-5.7702,-5.7702,-5.7013,0.0,0.0,0.0,0.0,-5.3125,-5.2333,-5.1137,-4.9507,-4.814,-4.661,-4.4968,-4.3431,-4.2279,-4.1494,-4.0517,-3.9753,-3.9185,0.0,0.0,-3.991,-4.0045,0.0,-4.0113,-4.0087,-4.0434,-4.0949,-4.0819,-4.1136,-4.1527,-4.0708,-3.9947,-3.9315,-3.9315,-3.9315,-3.9315,-3.9315,-3.9315,-3.9342,-3.9448,-3.9475,-3.9368,-3.8872,-3.873,-3.8396,-3.7059,-3.6625,-3.63,-3.5471,-3.5181,-3.5034,-3.4906,-3.4883,-3.4452,-3.2984,0.0,0.0,-2.9562,-2.882,-2.8144,0.0,0.0,0.0,0.0,0.0,0.0,0.0,0.0,0.0,0.0,0.0,0.0,0.0,0.0,0.0,0.0,0.0,0.0,0.0,0.0,0.0,-3.4883,-3.4883,-3.4883,-3.4916,-3.581,-3.6539,-3.7168,-3.803,-3.8725,-3.9315,-3.9121,-3.8985,-3.8876,-3.8711,-3.866,-3.8697,-3.9304,-3.9726,-4.0115,-5.2887,0.0,-5.3667,0.0,0.0,0.0,0.0,-5.6564,0.0,-5.6805,-5.715,-5.7667,-5.8392,-5.8495,-5.8495,-5.8495,-5.746,-5.6633,-5.6253,-5.515,-5.4184,-5.3425,-5.2632,-5.1641,-5.0445,-4.8587,-4.7161,-4.6302,-4.435,-4.2989,-4.2159,-4.1358,-4.0582,-3.9876,0.0,-4.0213,0.0,0.0,0.0,-4.0146,-4.0493,-4.0865,-4.1238,-4.1557,-4.1849,-4.2045,-4.1567,-4.0775,-3.992,-3.9441,-3.9315,-3.9315,-3.9315,-3.9369,-3.9422,-3.9475,-3.9287,-3.8964,-3.8681,-3.8338,-3.7778,-3.6673,-3.6372,-3.6181,-3.5295,-3.5105,-3.5081,-3.4939,-3.4883,-3.4452,-3.2984,-3.1504,0.0,0.0,0.0,0.0,0.0,0.0,-2.6634,0.0,0.0,0.0,0.0,0.0,0.0,0.0,0.0,0.0,0.0,0.0,0.0,0.0,0.0,0.0,0.0,0.0,0.0,-3.4883,-3.4883,-3.4883,-3.4916,-3.5678,-3.6406,-3.7135,-3.7819,-3.852,-3.9121,-3.8985,-3.8821,-3.8683,-3.8632,-3.8576,-3.8525,-3.8825,-3.9153,-3.97,-5.4013,-5.4586,0.0,0.0,-5.6529,0.0,-5.7047,-5.7667,-5.8081,-5.7909,-5.8047,-5.8357,-5.8944,-5.9012,-5.9012,-5.9012,-5.7667,-5.6805,-5.6805,-5.5357,-5.4253,-5.3667,-5.2735,-5.1912,-5.1356,-4.9085,-4.7789,-4.7567,-4.5436,-4.3941,-4.3023,-4.2099,-4.1218,0.0,0.0,0.0,0.0,0.0,-4.04,-4.0443,-4.1162,-4.1542,-4.1745,-4.232,-4.2571,-4.2631,-4.2435,-4.1735,-4.0721,-3.9887,-3.9441,-3.9315,-3.9315,-3.9395,-3.9501,-3.9554,-3.9124,-3.8623,-3.848,-3.791,-3.7172,-3.6434,-3.6233,-3.6075,-3.5355,-3.5175,-3.5105,-3.4954,-3.4674,-3.4021,-3.2696,-3.1404,0.0,0.0,0.0,0.0,0.0,0.0,0.0,0.0,0.0,0.0,0.0,0.0,0.0,0.0,0.0,0.0,0.0,0.0,0.0,0.0,0.0,0.0,-3.2641,0.0,-3.3379,0.0,-3.4811,-3.4811,-3.4844,-3.5439,-3.61,-3.6802,-3.7425,-3.8169,-3.8903,-3.8821,-3.8683,-3.8576,-3.8576,-3.8492,-3.8408,-3.8408,-3.8764,-3.9473,0.0,0.0,0.0,0.0,0.0,0.0,0.0,-5.8426,-5.8668,-5.8012,-5.8495,-5.8944,-5.9012,-5.9012,-5.9012,-5.9012,-5.7667,-5.6805,-5.6805,-5.5357,-5.4494,-5.4425,-5.3011,-5.2153,-5.2084,-4.9844,-4.8361,0.0,0.0,-4.4914,-4.4122,-4.2515,0.0,0.0,0.0,0.0,0.0,-4.1052,-4.1274,-4.1316,-4.1933,-4.2591,-4.3172,-4.3274,-4.3741,-4.4254,-4.3373,-4.2528,-4.1653,-4.0754,-3.9954,-3.9315,-3.9315,-3.9395,-3.9528,-3.9651,-3.9252,-3.8672,-3.8121,-3.7425,-3.6681,-3.5881,-3.5678,-3.5633,-3.5508,-3.536,-3.5245,-3.5105,-3.3914,-3.2663,-3.1846,-3.1052,-3.0489,0.0,0.0,0.0,0.0,0.0,-2.7017,-2.6285,0.0,0.0,0.0,0.0,0.0,0.0,0.0,0.0,0.0,0.0,0.0,0.0,0.0,-3.1141,-3.2506,-3.2506,0.0,-3.4546,-3.4546,-3.4546,-3.4546,-3.4611,-3.5038,-3.5792,-3.6488,-3.7523,-3.866,-3.86,-3.8548,-3.8436,-3.8436,-3.8408,-3.8408,-3.8408,-3.844,-3.8602,0.0,0.0,0.0,0.0,0.0,0.0,0.0,-5.8806,-5.8909,-5.8599,-5.884,-5.9012,-5.9012,-5.9012,-5.9012,-5.9012,-5.7667,-5.6805,-5.6805,-5.5357,-5.4494,-5.4494,-5.3015,-5.2188,-5.2188,-4.9947,-4.843,0.0,0.0,-4.5492,-4.4311,-4.3614,0.0,0.0,0.0,-4.2003,-4.2012,-4.2193,-4.2167,-4.2124,-4.2853,-4.3247,-4.3443,-4.3944,-4.4316,-4.4485,-4.3652,-4.2766,-4.189,-4.1097,-4.0147,-3.9315,-3.9315,-3.9441,-3.9558,-3.9142,-3.869,-3.8121,-3.7449,-3.6671,-3.5994,-3.5667,-3.56,-3.5577,-3.5498,-3.5048,-3.4599,-3.4485,-3.315,-3.1946,-3.1648,-3.0986,-3.0489,0.0,0.0,0.0,0.0,0.0,0.0,-2.695,0.0,-2.6185,0.0,0.0,0.0,0.0,0.0,0.0,0.0,0.0,0.0,-2.8409,0.0,-3.1141,-3.2484,-3.2484,-3.3172,-3.4497,-3.4497,-3.4497,-3.4497,-3.4497,-3.5069,-3.6111,-3.6855,-3.7655,-3.8492,-3.8492,-3.8464,-3.8408,-3.8408,-3.8408,-3.8408,-3.8408,-3.8408,-3.8505,-5.7926,0.0,-5.8654,0.0,-5.8939,-5.9149,-5.9081,-5.9081,-5.9047,-5.9012,-5.9012,-5.9012,-5.9012,-5.9012,-5.9012,-5.9012,-5.7667,-5.6805,-5.6805,-5.5357,-5.4494,-5.4494,-5.3015,0.0,-5.2188,-5.0188,-4.8775,-4.8017,-4.7286,0.0,-4.4941,0.0,0.0,0.0,-4.3106,-4.3056,-4.3056,-4.3143,-4.3108,-4.3037,-4.3741,-4.3939,-4.3864,-4.4412,-4.4615,-4.4513,-4.3707,-4.282,-4.2004,-4.1257,-4.028,-3.9415,-3.9415,-3.9573,-3.9621,-3.8858,-3.8302,-3.7753,-3.6998,-3.6197,-3.56,-3.56,-3.543,-3.5261,-3.5206,-3.4522,-3.3762,-3.335,-3.2376,-3.1548,-3.1317,-3.0853,-3.0489,0.0,0.0,0.0,0.0,0.0,0.0,0.0,-2.6634,-2.6185,-2.6185,0.0,0.0,0.0,0.0,0.0,0.0,0.0,0.0,0.0,0.0,0.0,0.0,0.0,-3.3079,-3.4374,-3.4374,-3.4374,-3.4374,-3.4374,-3.5107,-3.6377,-3.6923,-3.7643,-3.8408,-3.8408,-3.8408,-3.8408,-3.8408,-3.8408,-3.8408,-3.8408,-3.8408,-3.8472,-5.8727,-5.9289,-5.9748,-5.9619,-5.9588,-5.9554,-5.9319,-5.9319,-5.9251,-5.9012,-5.9012,-5.9012,-5.9012,-5.9012,-5.9012,-5.9012,-5.7667,-5.6805,-5.6805,-5.5357,-5.4494,0.0,0.0,-5.2188,-5.2188,-5.0769,-4.9597,-4.8775,0.0,0.0,-4.6562,0.0,-4.3897,-4.3207,-4.3207,-4.3207,-4.3241,-4.3847,-4.4104,-4.4147,-4.4606,-4.4803,-4.4776,-4.4671,-4.4615,-4.4513,-4.3707,-4.282,-4.2004,-4.1257,-4.0411,-3.9703,-3.9703,-3.9781,-3.9749,-3.9017,-3.8376,-3.7753,-3.6998,-3.6197,-3.56,-3.56,-3.5047,-3.4506,-3.4506,-3.3792,-3.2849,-3.1823,-3.1615,-3.1383,-3.0654,-3.0489,-3.0489,-3.0489,0.0,0.0,0.0,0.0,0.0,-2.7381,-2.6634,-2.6185,-2.6185,0.0,0.0,0.0,0.0,0.0,0.0,0.0,0.0,-2.9363,-3.0063,0.0,-3.2302,-3.2252,-3.2852,-3.4101,-3.4101,-3.4101,-3.4101,-3.4101,-3.491,-3.6303,-3.6303,-3.7112,-3.8408,-3.8408,-3.8408,-3.8408,-3.8408,-3.8408,-3.8408,-3.8408,-3.8408,-3.8408,-5.9692,-5.9736,-5.9814,-5.9748,-5.9652,-5.9588,-5.9486,-5.9486,-5.9453,-5.9419,-5.9285,-5.9183,-5.9183,-5.9081,-5.8806,0.0,-5.7357,-5.6564,0.0,-5.5046,-5.4494,-5.4494,-5.3015,-5.2188,-5.2188,-5.0769,-4.9631,-4.881,0.0,0.0,0.0,-4.6113,-4.5458,-4.4699,-4.4699,-4.4699,-4.4734,-4.4888,-4.4913,-4.4868,-4.4993,-4.4968,-4.4803,-4.4748,-4.4665,-4.4445,-4.3098,-4.2462,-4.2064,-4.0814,-4.0214,-3.9986,-3.9986,-3.9598,-3.9009,-3.8268,-3.7624,-3.6975,-3.6197,-3.5769,-3.5464,-3.4979,-3.4675,-3.437,-3.3863,-3.3018,-3.2068,-3.1187,-3.0916,-3.0787,-3.0555,-3.0489,-3.0489,-3.0489,0.0,0.0,0.0,0.0,0.0,0.0,-2.7415,-2.6733,0.0,-2.6185,0.0,0.0,0.0,0.0,0.0,0.0,0.0,0.0,-3.0104,0.0,-3.2302,-3.2289,-3.2867,-3.4101,-3.4101,-3.4101,-3.4101,-3.4101,-3.491,-3.6303,-3.6303,-3.7112,-3.8408,-3.8408,-3.8408,-3.8408,-3.8408,-3.8408,-3.8408,-3.8408,-3.8408,-3.8408,-6.0107,-5.9975,-5.9911,-5.9911,-5.9849,-5.9751,-5.9685,-5.9685,-5.9652,-5.9621,-5.9486,-5.9419,-5.9419,-5.9319,0.0,-5.7978,-5.7219,-5.646,-5.5635,-5.4908,-5.4494,-5.4494,-5.3015,-5.2188,-5.2188,0.0,0.0,-4.9223,-4.8947,-4.8189,-4.701,-4.6734,-4.6328,-4.5845,-4.5535,-4.5397,-4.5397,-4.5397,-4.5371,-4.5257,-4.5203,-4.5096,-4.494,-4.4831,-4.4578,-4.4094,-4.2753,-4.2117,-4.1677,-4.0519,-4.0113,-4.0113,-4.0113,-3.9361,-3.8351,-3.7904,-3.7334,-3.6626,-3.5802,-3.56,-3.543,-3.4675,-3.4303,-3.3829,-3.2752,-3.2021,-3.142,-3.0795,-3.0572,-3.0489,-3.0489,-3.0489,-3.0489,-3.0489,0.0,-3.0489,-3.0489,0.0,0.0,0.0,0.0,0.0,0.0,-2.6766,0.0,0.0,0.0,0.0,0.0,0.0,0.0,-2.9794,-3.0501,0.0,-3.2302,-3.2495,-3.3127,-3.4101,-3.4101,-3.4101,-3.4101,-3.4101,-3.4748,-3.5882,-3.6173,-3.695,-3.8019,-3.8278,-3.8408,-3.8408,-3.8408,-3.8408,-3.8408,-3.8408,-3.8408,-3.8408,-6.0107,-6.0107,0.0,0.0,-6.0107,0.0,-5.9846,-5.9846,-5.9781,-5.9652,-5.9621,-5.9621,-5.9621,-5.9621,-5.914,-5.7976,0.0,0.0,0.0,-5.494,-5.4526,-5.4526,-5.3046,0.0,-5.2218,-5.0769,-5.0011,-5.0011,-4.9223,-4.8499,-4.7741,-4.7079,-4.67,-4.6562,-4.5811,-4.5466,-4.5397,-4.5397,-4.5397,-4.5397,-4.5257,-4.5203,-4.5177,-4.494,-4.4361,-4.3586,-4.2671,-4.1813,-4.1102,-4.035,-4.0113,-4.0113,-4.0113,-3.9073,-3.7922,-3.7922,-3.7347,-3.6535,-3.5802,-3.56,-3.5397,-3.4607,-3.3829,-3.284,-3.1355,-3.0972,-3.0871,-3.0749,-3.0593,-3.051,-3.0489,-3.0489,-3.0489,-3.0489,-3.0489,-3.0489,-3.0489,0.0,0.0,0.0,0.0,0.0,0.0,-2.7779,-2.7647,0.0,0.0,0.0,0.0,0.0,0.0,-3.0489,-3.1132,-3.1748,-3.2302,-3.2905,-3.351,-3.4101,-3.4101,-3.4101,-3.4101,-3.4101,-3.4489,-3.526,-3.5979,-3.6691,-3.7344,-3.8116,-3.8408,-3.8408,-3.8408,-3.8408,-3.8408,-3.8408,-3.8408,-3.8408,0.0,0.0,-6.0107,-6.0107,-6.0107,-6.0107,-6.0043,-6.0008,-6.0043,-5.9978,-5.9846,-5.9748,-5.9748,-5.9652,-5.9031,-5.7578,-5.7265,-5.6605,-5.5216,-5.4973,-5.4869,-5.4869,-5.332,-5.2433,-5.2433,-5.0828,-5.0011,-5.0011,-4.9804,-4.9321,-4.8534,-4.8361,-4.7672,-4.6596,-4.6424,-4.5949,-4.5397,-4.5397,-4.5397,-4.5397,-4.5371,-4.5283,-4.5177,-4.5123,-4.4517,-4.3586,-4.2743,-4.1918,-4.1102,-4.035,-4.0113,-4.0113,-4.0113,-3.9073,-3.7922,-3.7922,-3.6941,-3.5836,-3.5633,-3.56,-3.5295,-3.3998,-3.2679,-3.163,-3.1219,-3.1072,-3.0972,-3.0871,-3.0749,-3.0613,-3.051,-3.0489,-3.0489,-3.0489,-3.0489,-3.0489,-3.0489,0.0,0.0,0.0,-2.9118,-2.8754,-2.8442,-2.8243,-2.821,0.0,0.0,0.0,0.0,0.0,-3.0323,-3.0489,-3.1196,-3.1814,-3.2302,-3.2976,-3.3608,-3.4101,-3.4101,-3.4101,-3.4101,-3.4101,-3.4489,-3.526,-3.5979,-3.6691,-3.7344,-3.8116,-3.8408,-3.8408,-3.8408,-3.8408,-3.8408,-3.8408,-3.8408,-3.8408,-6.0107,-6.0107,-6.0107,-6.0107,-6.0107,-6.0107,-6.0107,-6.0107,-6.0107,-6.0107,-6.0008,-5.9943,-5.9943,-5.9566,-5.8838,-5.7615,-5.7384,-5.6662,-5.5096,-5.4992,-5.4992,-5.4992,-5.3818,-5.2959,-5.2612,-5.1379,-5.053,-5.0092,-5.004,-4.9804,-4.9327,-4.8947,-4.8189,-4.7113,-4.6769,-4.6155,-4.5397,-4.5397,-4.5397,-4.5397,-4.5397,-4.5371,-4.5257,-4.5203,-4.4445,-4.3295,-4.2799,-4.1818,-4.0731,-4.0324,-4.0163,-4.0045,-3.9706,-3.8802,-3.7855,-3.7483,-3.6535,-3.56,-3.56,-3.56,-3.5228,-3.3795,-3.2273,-3.119,-3.119,-3.1092,-3.1012,-3.0972,-3.0871,-3.077,-3.0626,-3.0572,-3.0551,-3.0489,-3.0489,-3.0489,-3.0489,-3.0489,0.0,-2.9959,-2.9595,-2.9383,-2.935,-2.9052,-2.8986,-2.9317,0.0,0.0,-2.9893,-3.029,-3.0489,-3.0489,-3.1537,-3.221,-3.237,-3.3359,-3.3909,-3.4101,-3.4101,-3.4101,-3.4101,-3.4101,-3.4327,-3.4748,-3.5817,-3.6529,-3.6918,-3.7987,-3.8408,-3.8408,-3.8408,-3.8408,-3.8408,-3.8408,-3.8408,-3.8408,-6.0107,-6.0107,-6.0107,-6.0107,-6.0107,-6.0107,-6.0107,-6.0107,-6.0107,-6.0107,-6.0107,-6.0107,-6.0107,-5.944,-5.8702,-5.786,-5.7436,-5.6586,-5.5188,-5.5083,-5.5083,-5.5083,-5.4216,-5.342,-5.2759,-5.1859,-5.1037,-5.0228,-5.012,-5.0068,-5.0034,-4.9349,-4.8625,-4.79,-4.7113,-4.6293,-4.5569,-4.5466,-4.5397,-4.5397,-4.5397,-4.5397,-4.5397,-4.5257,-4.4276,-4.298,-4.2817,-4.1699,-4.0313,-4.0313,-4.0238,-4.0002,-3.9257,-3.8522,-3.7753,-3.7032,-3.6231,-3.56,-3.56,-3.5532,-3.5126,-3.3897,-3.2476,-3.136,-3.136,-3.1179,-3.0998,-3.0978,-3.0972,-3.0892,-3.077,-3.0749,-3.0675,-3.0572,-3.0551,-3.0551,-3.0551,0.0,-3.0531,-3.0531,-2.998,-2.9794,-3.0423,-2.9926,-2.9827,-3.0456,-3.0489,0.0,0.0,-3.0621,-3.0654,-3.0654,-3.2,-3.2728,-3.279,-3.3802,-3.4226,-3.4101,-3.4101,-3.4101,-3.4101,-3.4101,-3.4101,-3.4198,-3.5655,-3.6303,-3.64,-3.7825,-3.8408,-3.8408,-3.8408,-3.8408,-3.8408,-3.8408,-3.8408,-3.8408,-6.0139,-6.0107,-6.0107,-6.0107,-6.0107,-6.0107,-6.0107,-6.0107,-6.0107,-6.0107,-6.0107,-6.0107,-6.0107,-5.944,-5.8702,-5.786,-5.7132,-5.633,-5.5489,-5.5419,-5.5419,-5.5419,-5.39,-5.3038,-5.2968,-5.1394,-5.0509,-5.0369,-5.0341,-5.0348,-5.0313,-5.0096,-4.9589,-4.8827,-4.7928,-4.7113,-4.6389,-4.5673,-4.5397,-4.5397,-4.5397,-4.5397,-4.5397,-4.5371,-4.4389,-4.3005,-4.298,-4.1884,-4.0485,-4.0485,-4.0387,-4.0161,-3.9414,-3.857,-3.7753,-3.7032,-3.6231,-3.56,-3.56,-3.5148,-3.4607,-3.437,-3.3241,-3.2124,-3.2124,-3.163,-3.1151,-3.0998,-3.1012,-3.0972,-3.0892,-3.0871,-3.0871,-3.0851,-3.0851,-3.0851,0.0,0.0,-3.0688,-3.0688,-3.0452,-3.0357,-3.0489,-3.039,-3.039,-3.0489,-3.0489,-3.0489,-3.0489,-3.1085,-3.1416,-3.1416,-3.2266,-3.3201,-3.4161,-3.4244,-3.4226,-3.4101,-3.4101,-3.4101,-3.4101,-3.4101,-3.4101,-3.4198,-3.5655,-3.6303,-3.64,-3.7825,-3.8408,-3.8408,-3.8408,-3.8408,-3.8408,-3.8408,-3.8408,-3.8408,-6.0266,-6.0171,-6.0107,-6.0107,-6.0107,-6.0107,-6.0107,-6.0107,-6.0107,-6.0107,-6.0107,-5.9931,-5.9545,-5.8808,-5.8035,-5.7228,-5.6455,-5.5859,-5.5543,-5.5507,-5.5507,-5.5507,-5.4297,-5.3287,-5.2481,-5.1186,-5.0509,-5.0509,-5.0425,-5.0397,-5.0397,-5.0313,-4.9875,-4.9091,-4.8661,-4.7782,-4.6596,-4.619,-4.5776,-4.5397,-4.5397,-4.5397,-4.5363,-4.4975,-4.4087,-4.3037,-4.2624,-4.1665,-4.0607,-4.0607,-4.051,-4.0207,-3.9024,-3.8397,-3.784,-3.6616,-3.5938,-3.56,-3.56,-3.5081,-3.4506,-3.4506,-3.3694,-3.278,-3.2395,-3.2056,-3.1664,-3.1199,-3.1112,-3.1092,-3.0972,-3.0972,-3.0952,-3.0912,-3.0892,0.0,0.0,-3.0851,-3.081,-3.081,-3.0708,-3.0593,-3.0593,-3.0531,-3.0489,-3.0489,-3.0489,-3.0489,-3.0489,-3.1217,-3.178,-3.2199,-3.2895,-3.372,-3.4594,-3.4472,-3.4349,-3.4201,-3.4126,-3.4101,-3.4101,-3.4101,-3.4101,-3.4198,-3.5655,-3.6303,-3.64,-3.7825,-3.8408,-3.8408,-3.8408,-3.8408,-3.8408,-3.8408,-3.8408,-3.8408,-6.0427,-6.0301,-6.0171,-6.0107,-6.0107,-6.0107,-6.0107,-6.0107,-6.0107,-6.0107,-6.0107,-5.9826,-5.9089,-5.8281,-5.7474,-5.6666,-5.5929,-5.5507,-5.5507,-5.5507,-5.5507,-5.5507,-5.4559,-5.3331,-5.1786,-5.1045,-5.0675,-5.0675,-5.0564,-5.0544,-5.0544,-5.0453,-5.0084,-4.9417,-4.9215,-4.8308,-4.6892,-4.6719,-4.6174,-4.5397,-4.5397,-4.5397,-4.5328,-4.4561,-4.3828,-4.3103,-4.2309,-4.1478,-4.0762,-4.0762,-4.0552,-4.0021,-3.8687,-3.8117,-3.7661,-3.6275,-3.5756,-3.5689,-3.5622,-3.5216,-3.4742,-3.4742,-3.4201,-3.3525,-3.2936,-3.2699,-3.2361,-3.1596,-3.1481,-3.1374,-3.1106,-3.1052,-3.1032,-3.0972,0.0,0.0,0.0,-3.0952,-3.0932,-3.0932,-3.0831,-3.0749,-3.0708,-3.0593,-3.0531,-3.0489,-3.0489,-3.0555,-3.0754,-3.1449,-3.2266,-3.316,-3.3756,-3.4272,-3.4691,-3.4594,-3.4472,-3.4349,-3.4226,-3.4151,-3.4151,-3.4126,-3.4101,-3.4198,-3.5655,-3.6303,-3.64,-3.7825,-3.8408,-3.8408,-3.8408,-3.8408,-3.8408,-3.8408,-3.8408,-3.8408,-6.0458,-6.0396,-6.0333,-6.0139,-6.0107,-6.0107,-6.0107,-6.0107,-6.0107,-6.0107,-6.0107,-5.9826,-5.9089,-5.8281,-5.7474,-5.6666,-5.5929,-5.5507,-5.5507,-5.5507,-5.5507,-5.5507,-5.4068,-5.2558,-5.1013,-5.0908,-5.0873,-5.0873,-5.0846,-5.0846,-5.0846,-5.0675,-5.055,-5.0452,-4.9652,-4.875,-4.7746,-4.7088,-4.6246,-4.5397,-4.5397,-4.5397,-4.5328,-4.4561,-4.3828,-4.3103,-4.2309,-4.1526,-4.0871,-4.0871,-4.0294,-3.942,-3.8654,-3.7809,-3.7012,-3.6215,-3.5975,-3.591,-3.5667,-3.5566,-3.5532,-3.5532,-3.4979,-3.4404,-3.4336,-3.3795,-3.3119,-3.2361,-3.2226,-3.2022,-3.1326,-3.119,-3.1171,-3.1171,0.0,0.0,-3.1171,-3.1072,-3.0978,-3.0978,-3.0932,-3.0831,-3.0729,-3.0675,-3.0613,-3.0489,-3.0489,-3.0787,-3.1482,-3.2232,-3.3259,-3.4684,-3.4783,-3.4802,-3.4691,-3.4691,-3.4618,-3.4472,-3.4349,-3.43,-3.4275,-3.4151,-3.4101,-3.4198,-3.5655,-3.6303,-3.64,-3.7825,-3.8408,-3.8408,-3.8408,-3.8408,-3.8408,-3.8408,-3.8408,-3.8408,-6.0666,-6.0578,-6.0454,-6.0297,-6.0301,-6.0234,-6.0139,-6.0107,-6.0107,-6.0107,-5.9685,-5.9124,-5.8351,-5.7544,-5.6736,-5.5999,-5.5683,-5.5507,-5.5507,-5.5051,-5.4559,-5.4068,-5.3015,-5.1961,-5.0908,-5.0873,-5.0873,-5.0873,-5.0873,-5.0873,-5.0873,-5.0819,-5.0729,-5.0585,-5.025,-4.9304,-4.7985,-4.7627,-4.6715,-4.5528,-4.5423,-4.5397,-4.5259,-4.4069,-4.3448,-4.3034,-4.1757,-4.1136,-4.0894,-4.0894,-4.033,-3.9491,-3.8734,-3.7988,-3.7188,-3.6367,-3.6062,-3.5975,-3.5866,-3.5844,-3.5844,-3.5844,-3.5574,-3.5191,-3.4716,-3.4333,-3.3863,-3.3119,-3.2983,-3.2747,-3.2022,-3.1887,-3.1752,-3.1258,0.0,-3.119,-3.119,-3.1151,-3.1131,-3.1131,-3.1032,-3.0952,-3.0878,-3.079,-3.0688,-3.0647,-3.0962,-3.1317,-3.1581,-3.2729,-3.3856,-3.4849,-3.4883,-3.4892,-3.4811,-3.4739,-3.4667,-3.4618,-3.4497,-3.4423,-3.4423,-3.4374,-3.4349,-3.4415,-3.5779,-3.6377,-3.6448,-3.7853,-3.8408,-3.8408,-3.8408,-3.8408,-3.8408,-3.8408,-3.8408,-3.8408,-6.0782,-6.0727,-6.064,-6.0489,-6.0458,-6.0427,-6.0297,-6.0266,-6.0266,-6.0266,-5.9534,-5.8765,-5.7956,-5.7118,-5.6315,-5.5578,-5.5507,-5.5402,-5.5156,-5.4173,-5.3366,-5.2839,-5.2312,-5.1645,-5.0908,-5.0873,-5.0873,-5.0873,-5.0873,-5.0873,-5.0873,-5.0873,-5.0819,-5.0667,-5.0422,-4.9536,-4.8119,-4.783,-4.689,-4.5607,-4.5502,-4.5312,-4.4941,-4.369,-4.3034,-4.2654,-4.1378,-4.0894,-4.0894,-4.0894,-4.0204,-3.925,-3.8767,-3.7905,-3.7008,-3.6405,-3.617,-3.6105,-3.6105,-3.6105,-3.6084,-3.6019,-3.5932,-3.5708,-3.5176,-3.4953,-3.4684,-3.3897,-3.3761,-3.3525,-3.2801,-3.2666,-3.2476,-3.1968,-3.1901,-3.1901,-3.1901,-3.1901,-3.1901,-3.1901,-3.1604,-3.1409,-3.1369,-3.1005,-3.0849,-3.1008,-3.1381,-3.1813,-3.2243,-3.3458,-3.4386,-3.4883,-3.4883,-3.4883,-3.4883,-3.4787,-3.4763,-3.4763,-3.4618,-3.4546,-3.4546,-3.4521,-3.4628,-3.4923,-3.6006,-3.6607,-3.69,-3.8001,-3.8464,-3.8464,-3.8436,-3.8408,-3.8408,-3.8408,-3.8408,-3.8408,-6.0848,-6.0782,-6.0757,-6.064,-6.0578,-6.0578,-6.0578,-6.0578,-6.0578,-6.0578,-5.9783,-5.8879,-5.8104,-5.7143,-5.6315,-5.5578,-5.5507,-5.5156,-5.4349,-5.2874,-5.2004,-5.1969,-5.1969,-5.1645,-5.0908,-5.0873,-5.0873,-5.0873,-5.0873,-5.0873,-5.0873,-5.0873,-5.0873,-5.0838,-5.0057,-4.9179,-4.8242,-4.7508,-4.6586,-4.5607,-4.5607,-4.5105,-4.4207,-4.3483,-4.2689,-4.193,-4.117,-4.0894,-4.0894,-4.0894,-3.9894,-3.8594,-3.8617,-3.7525,-3.6284,-3.6284,-3.6284,-3.6284,-3.6284,-3.6284,-3.6276,-3.6062,-3.5997,-3.5954,-3.5822,-3.5812,-3.5552,-3.4697,-3.4506,-3.4269,-3.3558,-3.3423,-3.3423,-3.3423,-3.3423,-3.3423,-3.3423,-3.3423,-3.3423,-3.3423,-3.2747,-3.2253,-3.213,-3.1388,-3.1186,-3.1774,-3.1679,-3.2243,-3.3723,-3.4485,-3.4883,-3.4883,-3.4883,-3.4883,-3.4883,-3.4883,-3.4883,-3.4883,-3.4763,-3.4691,-3.4691,-3.457,-3.489,-3.5643,-3.639,-3.7111,-3.7838,-3.8394,-3.8604,-3.8604,-3.8464,-3.8408,-3.8408,-3.8408,-3.8408,-3.8408,-6.1034,-6.1034,-6.0938,-6.0757,-6.0757,-6.0696,-6.0609,-6.0578,-6.0578,-6.0578,-5.938,-5.8496,-5.8219,-5.6952,-5.5982,-5.5654,-5.5619,-5.5062,-5.364,-5.2558,-5.1786,-5.1259,-5.1224,-5.1119,-5.0873,-5.0873,-5.0873,-5.0873,-5.0873,-5.0873,-5.0873,-5.0873,-5.0592,-5.0057,-4.9811,-4.8942,-4.7662,-4.7315,-4.6688,-4.5889,-4.5787,-4.5284,-4.4495,-4.3697,-4.2933,-4.217,-4.1371,-4.1094,-4.1024,-4.0412,-3.9558,-3.8533,-3.734,-3.6663,-3.6284,-3.6284,-3.6284,-3.6284,-3.6284,-3.6284,-3.6297,-3.6233,-3.617,-3.614,-3.6096,-3.5944,-3.5744,-3.5462,-3.5328,-3.5047,-3.4303,-3.4167,-3.3998,-3.3491,-3.3423,-3.3423,-3.3423,-3.3423,-3.3423,-3.3423,-3.322,-3.3085,-3.3009,-3.2736,-3.2631,-3.2703,-3.2973,-3.3557,-3.4518,-3.4783,-3.4883,-3.4883,-3.4883,-3.4883,-3.4883,-3.4883,-3.4883,-3.4883,-3.4859,-3.4835,-3.4835,-3.4787,-3.5159,-3.5919,-3.6543,-3.7275,-3.7998,-3.8526,-3.8738,-3.8738,-3.8572,-3.8548,-3.8548,-3.8436,-3.8408,-3.8408,-6.1093,-6.1093,-6.1064,-6.0938,-6.0908,-6.0878,-6.0823,-6.0793,-6.0686,-6.0367,-5.9171,-5.8255,-5.7936,-5.6708,-5.5879,-5.5793,-5.5171,-5.4232,-5.2881,-5.2024,-5.1365,-5.0908,-5.0873,-5.0873,-5.0873,-5.0873,-5.0873,-5.0873,-5.0873,-5.0873,-5.0873,-5.0557,-5.0198,-4.9671,-4.9047,-4.8275,-4.7362,-4.6971,-4.6485,-4.598,-4.5914,-4.5202,-4.4143,-4.3715,-4.2845,-4.187,-4.1383,-4.1209,-4.1116,-4.0596,-3.9718,-3.8508,-3.6843,-3.6284,-3.6284,-3.6284,-3.6284,-3.6284,-3.6284,-3.6284,-3.6284,-3.6284,-3.6276,-3.6212,-3.6225,-3.6075,-3.5944,-3.5834,-3.5734,-3.5531,-3.5013,-3.4945,-3.481,-3.4336,-3.4269,-3.4269,-3.4269,-3.4269,-3.4269,-3.4269,-3.4032,-3.3829,-3.3829,-3.352,-3.3379,-3.3538,-3.4051,-3.4559,-3.4977,-3.4987,-3.493,-3.4883,-3.4883,-3.4883,-3.4883,-3.4883,-3.4883,-3.4883,-3.4883,-3.4883,-3.4916,-3.5214,-3.5744,-3.6473,-3.7133,-3.7833,-3.8527,-3.8761,-3.8871,-3.8876,-3.8738,-3.866,-3.8604,-3.852,-3.8464,-3.8408,-6.1093,-6.1093,-6.1093,-6.1093,-6.1093,-6.1093,-6.1093,-6.1093,-6.0808,-6.0023,-5.9086,-5.8217,-5.7399,-5.651,-5.5929,-5.5901,-5.4373,-5.3054,-5.2278,-5.1403,-5.0962,-5.0962,-5.0962,-5.0962,-5.0962,-5.09,-5.0873,-5.0873,-5.0873,-5.0838,-5.0768,-5.0057,-4.9635,-4.9425,-4.8029,-4.7362,-4.7257,-4.6495,-4.614,-4.6005,-4.597,-4.4953,-4.353,-4.3461,-4.252,-4.1232,-4.1232,-4.1232,-4.1232,-4.1162,-4.0028,-3.846,-3.6934,-3.6374,-3.6339,-3.6284,-3.6284,-3.6284,-3.6284,-3.6284,-3.6284,-3.6284,-3.6284,-3.6297,-3.6212,-3.6204,-3.614,-3.59,-3.5834,-3.5756,-3.5644,-3.56,-3.56,-3.56,-3.56,-3.56,-3.56,-3.56,-3.56,-3.56,-3.5013,-3.4607,-3.4607,-3.3946,-3.3715,-3.4264,-3.4946,-3.5245,-3.5128,-3.5128,-3.5081,-3.493,-3.4906,-3.4906,-3.4906,-3.4883,-3.4883,-3.4883,-3.4883,-3.4883,-3.4916,-3.5678,-3.6406,-3.7135,-3.7871,-3.8626,-3.9315,-3.9094,-3.904,-3.9007,-3.8871,-3.8738,-3.8632,-3.8632,-3.8548,-3.8436,-6.1093,-6.1093,-6.1093,-6.1093,-6.1093,-6.1093,-6.1093,-6.1093,-6.0808,-6.0023,-5.9173,-5.836,-5.7639,-5.6791,-5.6245,-5.6169,-5.4548,-5.3227,-5.2413,-5.1644,-5.122,-5.122,-5.122,-5.122,-5.122,-5.1008,-5.0873,-5.0873,-5.0873,-5.0557,-4.9987,-4.9776,-4.9073,-4.7854,-4.7538,-4.7046,-4.646,-4.6284,-4.6189,-4.6094,-4.5523,-4.4692,-4.3746,-4.3162,-4.2356,-4.1515,-4.1515,-4.1515,-4.141,-4.0726,-3.9395,-3.793,-3.7546,-3.6963,-3.6423,-3.6339,-3.6284,-3.6284,-3.6284,-3.6284,-3.6284,-3.6284,-3.6284,-3.6318,-3.6297,-3.6233,-3.6182,-3.614,-3.5966,-3.5778,-3.5756,-3.5667,-3.56,-3.56,-3.56,-3.56,-3.56,-3.56,-3.56,-3.56,-3.5464,-3.5363,-3.5363,-3.5172,-3.5071,-3.5217,-3.526,-3.5291,-3.5268,-3.5245,-3.5245,-3.5222,-3.5128,-3.5058,-3.5058,-3.493,-3.4883,-3.4883,-3.4883,-3.4883,-3.4916,-3.5678,-3.6406,-3.7135,-3.7871,-3.8626,-3.9315,-3.9228,-3.9228,-3.9202,-3.904,-3.8958,-3.8903,-3.8794,-3.8738,-3.8711,-6.1093,-6.1093,-6.1093,-6.1093,-6.1093,-6.0986,-6.0594,-6.0522,-6.013,-5.8952,-5.8452,-5.7882,-5.7096,-5.6633,-5.607,-5.524,-5.3931,-5.2857,-5.2015,-5.1537,-5.1298,-5.1298,-5.1298,-5.1298,-5.1298,-5.1167,-5.1061,-5.1016,-5.1016,-5.0567,-4.9706,-4.9293,-4.8521,-4.7362,-4.7011,-4.6565,-4.6214,-4.6214,-4.6214,-4.6144,-4.5396,-4.4624,-4.3816,-4.3079,-4.2306,-4.1604,-4.1604,-4.1604,-4.1477,-4.0596,-3.9704,-3.8907,-3.8451,-3.8005,-3.7503,-3.708,-3.6913,-3.6766,-3.6387,-3.6284,-3.6284,-3.6284,-3.6284,-3.6284,-3.6284,-3.6276,-3.6233,-3.6225,-3.6096,-3.5966,-3.5834,-3.5734,-3.5667,-3.5622,-3.56,-3.56,-3.56,-3.56,-3.56,-3.56,-3.56,-3.56,-3.56,-3.5588,-3.5543,-3.5543,-3.5498,-3.5429,-3.5383,-3.5383,-3.536,-3.5291,-3.5222,-3.5198,-3.5198,-3.5081,-3.5011,-3.4977,-3.4906,-3.5081,-3.5446,-3.6208,-3.6936,-3.7665,-3.8394,-3.8924,-3.9315,-3.9315,-3.9315,-3.9282,-3.9175,-3.9094,-3.898,-3.8898,-3.8843,-3.8788,-6.1123,-6.1123,-6.1058,-6.0915,-6.0879,-6.0629,-5.9844,-5.9701,-5.9202,-5.7774,-5.7624,-5.7275,-5.649,-5.6276,-5.5562,-5.393,-5.3139,-5.241,-5.1602,-5.1428,-5.1376,-5.1376,-5.1376,-5.1376,-5.1376,-5.1376,-5.1298,-5.1114,-5.1008,-5.0462,-4.9521,-4.8722,-4.7924,-4.7151,-4.6495,-4.6214,-4.6214,-4.6214,-4.6144,-4.5933,-4.522,-4.4413,-4.3641,-4.2903,-4.2201,-4.1604,-4.1604,-4.1604,-4.1477,-4.0758,-4.0434,-4.0224,-3.9451,-3.9064,-3.8712,-3.8101,-3.7806,-3.7569,-3.687,-3.6697,-3.6697,-3.6697,-3.6594,-3.649,-3.649,-3.6387,-3.6297,-3.6212,-3.6225,-3.614,-3.5922,-3.5834,-3.5756,-3.5644,-3.5622,-3.56,-3.56,-3.56,-3.56,-3.56,-3.56,-3.56,-3.56,-3.56,-3.56,-3.56,-3.56,-3.5577,-3.552,-3.5498,-3.5452,-3.536,-3.5337,-3.5314,-3.5314,-3.5198,-3.5128,-3.5105,-3.5143,-3.5437,-3.6042,-3.6903,-3.7632,-3.8261,-3.8957,-3.9315,-3.9315,-3.9315,-3.9315,-3.9315,-3.9315,-3.9202,-3.9067,-3.9067,-3.8985,-3.8903,-6.127,-6.1182,-6.0879,-6.0201,-6.0058,-5.9809,-5.8995,-5.8852,-5.856,-5.7703,-5.7624,-5.7275,-5.649,-5.5776,-5.4741,-5.3197,-5.2957,-5.2503,-5.1719,-5.1683,-5.1658,-5.1658,-5.1658,-5.1658,-5.1658,-5.1658,-5.1531,-5.1272,-5.06,-4.978,-4.8902,-4.8101,-4.7251,-4.6354,-4.6249,-4.6214,-4.6214,-4.6214,-4.5828,-4.5185,-4.4378,-4.3605,-4.2868,-4.2061,-4.171,-4.1604,-4.1604,-4.1604,-4.1604,-4.1477,-4.0986,-4.0424,-4.0189,-3.9634,-3.8998,-3.8734,-3.8633,-3.8589,-3.8363,-3.8284,-3.8284,-3.8284,-3.7801,-3.734,-3.734,-3.6801,-3.6318,-3.6297,-3.6233,-3.6204,-3.6161,-3.5966,-3.5778,-3.579,-3.5667,-3.56,-3.56,-3.56,-3.56,-3.56,-3.56,-3.56,-3.56,-3.56,-3.56,-3.56,-3.56,-3.56,-3.5577,-3.5577,-3.5577,-3.5554,-3.5498,-3.5452,-3.5452,-3.5337,-3.5222,-3.5105,-3.5714,-3.6007,-3.6042,-3.7433,-3.8129,-3.8261,-3.8957,-3.9315,-3.9315,-3.9315,-3.9315,-3.9315,-3.9315,-3.9255,-3.9255,-3.9255,-3.9228,-3.9228,-6.0798,-6.0325,-5.9817,-5.9459,-5.9302,-5.8959,-5.8203,-5.8096,-5.781,-5.7025,-5.6918,-5.6775,-5.6454,-5.5277,-5.4099,-5.3018,-5.2483,-5.2065,-5.1708,-5.1708,-5.1708,-5.1708,-5.1708,-5.1708,-5.1708,-5.1244,-5.098,-5.0855,-5.0424,-4.9543,-4.8215,-4.7872,-4.7223,-4.6301,-4.6301,-4.6253,-4.6214,-4.6214,-4.5758,-4.5045,-4.4202,-4.3465,-4.2705,-4.192,-4.1604,-4.1604,-4.1604,-4.1604,-4.1604,-4.1604,-4.1394,-4.1113,-4.1047,-4.0736,-4.0285,-3.9791,-3.9542,-3.9304,-3.8844,-3.8661,-3.8594,-3.8594,-3.8353,-3.8112,-3.8112,-3.7512,-3.6835,-3.6387,-3.6276,-3.6233,-3.6225,-3.6118,-3.5954,-3.5834,-3.5734,-3.5689,-3.5622,-3.56,-3.56,-3.56,-3.56,-3.56,-3.56,-3.56,-3.56,-3.56,-3.56,-3.56,-3.56,-3.56,-3.56,-3.56,-3.5554,-3.5566,-3.5566,-3.5452,-3.536,-3.5348,-3.6343,-3.6763,-3.6638,-3.7731,-3.8427,-3.8825,-3.9149,-3.9315,-3.9315,-3.9315,-3.9315,-3.9315,-3.9315,-3.9315,-3.9315,-3.9315,-3.9315,-3.9315]},{"header":{"parameterUnit":"m.s-1","parameterCategory":1,"la1":30.6,"la2":28.766,"lo1":-90.7593,"lo2":-88.6598,"dy":0.0162,"dx":0.0183,"nx":116,"ny":114,"refTime":"2023-06-14T12:00:00:Z","depth":0,"parameterNumber":3,"parameterNumberName":"V-component_of_WINDS"},"data":[0.0,0.0,0.0,0.0,0.0,0.0,0.0,0.0,0.0,0.0,0.0,0.0,0.0,0.0,0.0,0.0,0.0,0.0,0.0,0.0,0.0,0.0,0.0,0.0,0.0,0.0,0.0,0.0,0.0,0.0,0.0,0.0,0.0,0.0,0.0,0.0,0.0,0.0,0.0,0.0,0.0,0.0,0.0,0.0,0.0,0.0,0.0,0.0,0.0,0.0,0.0,0.0,0.0,0.0,0.0,0.0,0.0,0.0,0.0,0.0,0.0,0.0,0.0,0.0,0.0,0.0,0.0,0.0,0.0,0.0,0.0,0.0,0.0,0.0,0.0,0.0,0.0,0.0,0.0,0.0,0.0,0.0,0.0,0.0,0.0,0.0,0.0,0.0,0.0,0.0,0.0,0.0,0.0,0.0,0.0,0.0,0.0,0.0,0.0,0.0,0.0,0.0,0.0,0.0,0.0,0.0,0.0,0.0,0.0,0.0,0.0,0.0,0.0,0.0,0.0,0.0,0.0,0.0,0.0,0.0,0.0,0.0,0.0,0.0,0.0,0.0,0.0,0.0,0.0,0.0,0.0,0.0,0.0,0.0,0.0,0.0,0.0,0.0,0.0,0.0,0.0,0.0,0.0,0.0,0.0,0.0,0.0,0.0,0.0,0.0,0.0,0.0,0.0,0.0,0.0,0.0,0.0,0.0,0.0,0.0,0.0,0.0,0.0,0.0,0.0,0.0,0.0,0.0,0.0,0.0,0.0,0.0,0.0,0.0,0.0,0.0,0.0,0.0,0.0,0.0,0.0,0.0,0.0,0.0,0.0,0.0,0.0,0.0,0.0,0.0,0.0,0.0,0.0,0.0,0.0,0.0,0.0,0.0,0.0,0.0,0.0,0.0,0.0,0.0,0.0,0.0,0.0,0.0,0.0,0.0,0.0,0.0,0.0,0.0,0.0,0.0,0.0,0.0,0.0,0.0,0.0,0.0,0.0,0.0,0.0,0.0,0.0,0.0,0.0,0.0,0.0,0.0,0.0,0.0,0.0,0.0,0.0,0.0,0.0,0.0,0.0,0.0,0.0,0.0,0.0,0.0,0.0,0.0,0.0,0.0,0.0,0.0,0.0,0.0,0.0,0.0,0.0,0.0,0.0,0.0,0.0,0.0,0.0,0.0,0.0,0.0,0.0,0.0,0.0,0.0,0.0,0.0,0.0,0.0,0.0,0.0,0.0,0.0,0.0,0.0,0.0,0.0,0.0,0.0,0.0,0.0,0.0,0.0,0.0,0.0,0.0,0.0,0.0,0.0,0.0,0.0,0.0,0.0,0.0,0.0,0.0,0.0,0.0,0.0,0.0,0.0,0.0,0.0,0.0,0.0,0.0,0.0,0.0,0.0,0.0,0.0,0.0,0.0,0.0,0.0,0.0,0.0,0.0,0.0,0.0,0.0,0.0,0.0,0.0,0.0,0.0,0.0,0.0,0.0,0.0,0.0,0.0,0.0,0.0,0.0,0.0,0.0,0.0,0.0,0.0,0.0,0.0,0.0,0.0,0.0,0.0,0.0,0.0,0.0,0.0,0.0,0.0,0.0,0.0,0.0,0.0,0.0,0.0,0.0,0.0,0.0,0.0,0.0,0.0,0.0,0.0,0.0,0.0,0.0,0.0,0.0,0.0,0.0,0.0,0.0,0.0,0.0,0.0,0.0,0.0,0.0,0.0,0.0,0.0,0.0,0.0,0.0,0.0,0.0,0.0,0.0,0.0,0.0,0.0,0.0,0.0,0.0,0.0,0.0,0.0,0.0,0.0,0.0,0.0,0.0,0.0,0.0,0.0,0.0,0.0,0.0,0.0,0.0,0.0,0.0,0.0,0.0,0.0,0.0,0.0,0.0,0.0,0.0,0.0,0.0,0.0,0.0,0.0,0.0,0.0,0.0,0.0,0.0,0.0,0.0,0.0,0.0,0.0,0.0,0.0,0.0,0.0,0.0,0.0,0.0,0.0,0.0,0.0,0.0,0.0,0.0,0.0,0.0,0.0,0.0,0.0,0.0,0.0,0.0,0.0,0.0,0.0,0.0,0.0,0.0,0.0,0.0,0.0,0.0,0.0,0.0,0.0,0.0,0.0,0.0,0.0,0.0,0.0,0.0,0.0,0.0,0.0,0.0,0.0,0.0,0.0,0.0,0.0,0.0,0.0,0.0,0.0,0.0,0.0,0.0,0.0,0.0,0.0,0.0,0.0,0.0,0.0,0.0,0.0,0.0,0.0,0.0,0.0,0.0,0.0,0.0,0.0,0.0,0.0,0.0,0.0,0.0,0.0,0.0,0.0,0.0,0.0,0.0,0.0,0.0,0.0,0.0,0.0,0.0,0.0,0.0,0.0,0.0,0.0,0.0,0.0,0.0,0.0,0.0,0.0,0.0,0.0,0.0,0.0,0.0,0.0,0.0,0.0,0.0,0.0,0.0,0.0,0.0,0.0,0.0,0.0,0.0,0.0,0.0,0.0,0.0,0.0,0.0,0.0,0.0,0.0,0.0,0.0,0.0,0.0,0.0,0.0,0.0,0.0,0.0,0.0,0.0,0.0,0.0,0.0,0.0,0.0,0.0,0.0,0.0,0.0,0.0,0.0,0.0,0.0,0.0,0.0,0.0,0.0,0.0,0.0,0.0,0.0,0.0,0.0,0.0,0.0,0.0,0.0,0.0,0.0,0.0,0.0,0.0,0.0,0.0,0.0,0.0,0.0,0.0,0.0,0.0,0.0,0.0,0.0,0.0,0.0,0.0,0.0,0.0,0.0,0.0,0.0,0.0,0.0,0.0,0.0,0.0,0.0,0.0,0.0,0.0,0.0,0.0,0.0,0.0,0.0,0.0,0.0,0.0,0.0,0.0,0.0,0.0,0.0,0.0,0.0,0.0,0.0,0.0,0.0,0.0,0.0,0.0,0.0,0.0,0.0,0.0,0.0,0.0,0.0,0.0,0.0,0.0,0.0,0.0,0.0,0.0,0.0,0.0,0.0,0.0,0.0,0.0,0.0,0.0,0.0,0.0,0.0,0.0,0.0,0.0,0.0,0.0,0.0,0.0,0.0,0.0,0.0,0.0,0.0,0.0,0.0,0.0,0.0,0.0,0.0,0.0,0.0,0.0,0.0,0.0,0.0,0.0,0.0,0.0,0.0,0.0,0.0,0.0,0.0,0.0,0.0,0.0,0.0,0.0,0.0,0.0,0.0,0.0,0.0,0.0,0.0,0.0,0.0,0.0,0.0,0.0,0.0,0.0,0.0,0.0,0.0,0.0,0.0,0.0,0.0,0.0,0.0,0.0,0.0,0.0,0.0,0.0,0.0,0.0,0.0,0.0,0.0,0.0,0.0,0.0,0.0,0.0,0.0,0.0,0.0,0.0,0.0,0.0,0.0,0.0,0.0,0.0,0.0,0.0,0.0,0.0,0.0,0.0,0.0,0.0,0.0,0.0,0.0,0.0,0.0,0.0,0.0,0.0,0.0,0.0,0.0,0.0,0.0,0.0,0.0,0.0,0.0,0.0,0.0,0.0,0.0,0.0,0.0,0.0,0.0,0.0,0.0,0.0,0.0,0.0,0.0,0.0,0.0,0.0,0.0,0.0,0.0,0.0,0.0,0.0,0.0,0.0,0.0,0.0,0.0,0.0,0.0,0.0,0.0,0.0,0.0,0.0,0.0,0.0,0.0,0.0,0.0,0.0,0.0,0.0,0.0,0.0,0.0,0.0,0.0,0.0,0.0,0.0,0.0,0.0,0.0,0.0,0.0,0.0,0.0,0.0,0.0,0.0,0.0,0.0,0.0,0.0,0.0,0.0,0.0,0.0,0.0,0.0,0.0,0.0,0.0,0.0,0.0,0.0,0.0,0.0,0.0,0.0,0.0,0.0,0.0,0.0,0.0,0.0,0.0,0.0,0.0,0.0,0.0,0.0,0.0,0.0,0.0,0.0,0.0,0.0,0.0,0.0,0.0,0.0,0.0,0.0,0.0,0.0,0.0,0.0,0.0,0.0,0.0,0.0,0.0,0.0,0.0,0.0,0.0,0.0,0.0,0.0,0.0,0.0,0.0,0.0,0.0,0.0,0.0,0.0,0.0,0.0,0.0,0.0,0.0,0.0,0.0,0.0,0.0,0.0,0.0,0.0,0.0,0.0,0.0,0.0,0.0,0.0,0.0,0.0,0.0,0.0,0.0,0.0,0.0,0.0,0.0,0.0,0.0,0.0,0.0,0.0,0.0,0.0,0.0,0.0,0.0,0.0,0.0,0.0,0.0,0.0,0.0,0.0,0.0,0.0,0.0,0.0,0.0,0.0,0.0,0.0,0.0,0.0,0.0,0.0,0.0,0.0,0.0,0.0,0.0,0.0,0.0,0.0,0.0,0.0,0.0,0.0,0.0,0.0,0.0,0.0,0.0,0.0,0.0,0.0,0.0,0.0,0.0,0.0,0.0,0.0,0.0,0.0,0.0,0.0,0.0,0.0,0.0,0.0,0.0,0.0,0.0,0.0,0.0,0.0,0.0,0.0,0.0,0.0,0.0,0.0,0.0,0.0,0.0,0.0,0.0,0.0,0.0,0.0,0.0,0.0,0.0,0.0,0.0,0.0,0.0,0.0,0.0,0.0,0.0,0.0,0.0,0.0,0.0,0.0,0.0,0.0,0.0,0.0,0.0,0.0,0.0,0.0,0.0,0.0,0.0,0.0,0.0,0.0,0.0,0.0,0.0,0.0,0.0,0.0,0.0,0.0,0.0,0.0,0.0,0.0,0.0,0.0,0.0,0.0,0.0,0.0,0.0,0.0,0.0,0.0,0.0,0.0,0.0,0.0,0.0,0.0,0.0,0.0,0.0,0.0,0.0,0.0,0.0,0.0,0.0,0.0,0.0,0.0,0.0,0.0,0.0,0.0,0.0,0.0,0.0,0.0,0.0,0.0,0.0,0.0,0.0,0.0,0.0,0.0,0.0,0.0,0.0,0.0,0.0,0.0,0.0,0.0,0.0,0.0,0.0,0.0,0.0,0.0,0.0,0.0,0.0,0.0,0.0,0.0,0.0,0.0,0.0,0.0,0.0,0.0,0.0,0.0,0.0,0.0,0.0,0.0,0.0,0.0,0.0,0.0,0.0,0.0,0.0,0.0,0.0,0.0,0.0,0.0,0.0,0.0,0.0,0.0,0.0,0.0,0.0,0.0,0.0,0.0,0.0,0.0,0.0,0.0,0.0,0.0,0.0,0.0,0.0,0.0,0.0,0.0,0.0,0.0,0.0,0.0,0.0,0.0,0.0,0.0,0.0,0.0,0.0,0.0,0.0,0.0,0.0,0.0,0.0,0.0,0.0,0.0,0.0,0.0,0.0,0.0,0.0,0.0,0.0,0.0,0.0,0.0,0.0,0.0,0.0,0.0,0.0,0.0,0.0,0.0,0.0,0.0,0.0,0.0,0.0,0.0,0.0,0.0,0.0,0.0,0.0,0.0,0.0,0.0,0.0,0.0,0.0,0.0,0.0,0.0,0.0,0.0,0.0,0.0,0.0,0.0,0.0,0.0,0.0,0.0,0.0,0.0,0.0,0.0,0.0,0.0,0.0,0.0,0.0,0.0,0.0,0.0,0.0,0.0,0.0,0.0,0.0,0.0,0.0,0.0,0.0,0.0,0.0,0.0,0.0,0.0,0.0,0.0,0.0,0.0,0.0,0.0,0.0,0.0,0.0,0.0,0.0,0.0,0.0,0.0,0.0,0.0,0.0,0.0,0.0,0.0,0.0,0.0,0.0,0.0,0.0,0.0,0.0,0.0,0.0,0.0,0.0,0.0,0.0,0.0,0.0,0.0,0.0,0.0,0.0,0.0,0.0,0.0,0.0,0.0,0.0,0.0,0.0,0.0,0.0,0.0,0.0,0.0,0.0,0.0,0.0,0.0,0.0,0.0,0.0,0.0,0.0,0.0,0.0,0.0,0.0,0.0,0.0,0.0,0.0,0.0,0.0,0.0,0.0,0.0,0.0,0.0,0.0,0.0,0.0,0.0,0.0,0.0,0.0,0.0,0.0,0.0,0.0,0.0,0.0,0.0,0.0,0.0,0.0,0.0,0.0,0.0,-2.1099,0.0,0.0,0.0,0.0,0.0,0.0,0.0,0.0,0.0,0.0,0.0,0.0,0.0,0.0,0.0,0.0,0.0,0.0,0.0,0.0,0.0,0.0,0.0,0.0,0.0,0.0,0.0,0.0,0.0,0.0,0.0,0.0,0.0,0.0,0.0,0.0,0.0,0.0,0.0,0.0,0.0,0.0,0.0,0.0,0.0,0.0,0.0,0.0,0.0,0.0,0.0,0.0,0.0,0.0,0.0,0.0,0.0,0.0,0.0,0.0,0.0,0.0,0.0,0.0,0.0,0.0,0.0,0.0,0.0,0.0,0.0,0.0,0.0,0.0,0.0,0.0,0.0,0.0,0.0,0.0,0.0,0.0,0.0,0.0,0.0,0.0,0.0,0.0,0.0,0.0,0.0,0.0,0.0,0.0,0.0,0.0,0.0,0.0,0.0,0.0,0.0,0.0,0.0,0.0,0.0,0.0,0.0,0.0,0.0,0.0,0.0,0.0,0.0,0.0,0.0,0.0,-2.1671,0.0,0.0,0.0,0.0,0.0,0.0,0.0,0.0,0.0,0.0,0.0,0.0,0.0,0.0,0.0,0.0,0.0,0.0,0.0,0.0,0.0,0.0,0.0,0.0,0.0,0.0,0.0,0.0,0.0,0.0,0.0,0.0,0.0,0.0,0.0,0.0,0.0,0.0,0.0,0.0,0.0,0.0,0.0,0.0,0.0,0.0,0.0,0.0,0.0,0.0,0.0,0.0,0.0,0.0,0.0,0.0,0.0,0.0,0.0,0.0,0.0,0.0,0.0,0.0,0.0,0.0,0.0,0.0,0.0,0.0,0.0,0.0,0.0,0.0,0.0,0.0,0.0,0.0,0.0,0.0,0.0,0.0,0.0,0.0,0.0,0.0,0.0,0.0,0.0,0.0,0.0,0.0,0.0,0.0,0.0,0.0,0.0,0.0,0.0,0.0,0.0,0.0,0.0,0.0,0.0,0.0,0.0,0.0,0.0,-2.5043,-2.4945,-2.4966,-2.5027,-2.4968,-2.3779,-2.3095,-2.2847,0.0,0.0,0.0,0.0,0.0,0.0,0.0,0.0,0.0,0.0,0.0,0.0,0.0,0.0,0.0,0.0,0.0,0.0,0.0,0.0,0.0,0.0,0.0,0.0,0.0,0.0,0.0,0.0,0.0,0.0,0.0,0.0,0.0,0.0,0.0,0.0,0.0,0.0,0.0,-3.3235,-3.3519,-3.4032,-3.4648,-3.3754,0.0,0.0,0.0,0.0,0.0,0.0,0.0,0.0,0.0,0.0,0.0,0.0,0.0,0.0,0.0,0.0,0.0,0.0,0.0,0.0,0.0,0.0,0.0,0.0,0.0,0.0,0.0,0.0,0.0,0.0,0.0,0.0,0.0,0.0,0.0,0.0,0.0,0.0,0.0,0.0,0.0,0.0,0.0,-2.1775,-2.1543,0.0,0.0,0.0,0.0,0.0,0.0,0.0,0.0,0.0,0.0,0.0,0.0,0.0,0.0,-2.4008,-2.4453,-2.4962,-2.5605,-2.5855,-2.6217,-2.6778,-2.6521,-2.6595,-2.6813,-2.6352,0.0,-2.4298,-2.3926,0.0,0.0,0.0,0.0,0.0,0.0,0.0,0.0,0.0,0.0,0.0,0.0,0.0,0.0,0.0,0.0,0.0,0.0,0.0,0.0,0.0,0.0,0.0,0.0,0.0,0.0,0.0,0.0,0.0,0.0,0.0,0.0,0.0,0.0,0.0,0.0,-3.2097,-3.2932,-3.3649,-3.4471,-3.5045,-3.5434,-3.5591,-3.5273,-3.4538,-3.4456,0.0,0.0,0.0,0.0,0.0,0.0,0.0,0.0,0.0,0.0,0.0,0.0,0.0,0.0,0.0,0.0,0.0,0.0,0.0,0.0,0.0,0.0,0.0,0.0,0.0,0.0,0.0,0.0,0.0,0.0,0.0,0.0,0.0,0.0,0.0,0.0,0.0,0.0,0.0,-2.2879,-2.2722,-2.2751,-2.2504,-2.2281,0.0,0.0,0.0,0.0,0.0,0.0,0.0,0.0,0.0,-2.3203,-2.3597,-2.4162,-2.4864,-2.5686,-2.6251,-2.6593,-2.7276,-2.7758,-2.8035,-2.7902,-2.7958,-2.8092,-2.7748,-2.7237,-2.6603,-2.5807,-2.5418,-2.5394,0.0,0.0,0.0,0.0,0.0,-2.5133,0.0,0.0,0.0,0.0,0.0,0.0,0.0,0.0,0.0,0.0,0.0,0.0,0.0,0.0,0.0,0.0,0.0,0.0,0.0,0.0,0.0,0.0,0.0,0.0,0.0,0.0,0.0,0.0,-3.3056,-3.3539,-3.423,-3.5346,-3.5858,-3.5993,-3.694,-3.6781,-3.5636,-3.5381,-3.5298,0.0,0.0,0.0,0.0,0.0,0.0,0.0,0.0,0.0,0.0,0.0,0.0,0.0,0.0,0.0,0.0,0.0,0.0,0.0,0.0,0.0,0.0,0.0,0.0,0.0,0.0,0.0,0.0,0.0,0.0,0.0,0.0,0.0,0.0,0.0,0.0,0.0,0.0,-2.3582,-2.3606,-2.3681,-2.3458,-2.3185,0.0,0.0,0.0,0.0,0.0,0.0,-2.2415,-2.2775,-2.334,-2.3939,-2.471,-2.5326,-2.5806,-2.673,-2.7364,-2.7655,-2.8511,-2.9025,-2.9213,-2.9206,-2.9192,-2.9192,-2.8943,-2.8842,-2.8702,-2.7525,-2.6912,-2.6678,-2.6858,-2.6747,-2.6525,-2.6525,-2.6397,-2.6295,0.0,0.0,0.0,0.0,0.0,0.0,0.0,0.0,0.0,0.0,0.0,0.0,0.0,0.0,0.0,0.0,0.0,0.0,0.0,0.0,0.0,0.0,0.0,0.0,0.0,0.0,0.0,-3.3431,-3.3475,-3.4092,-3.5345,-3.5916,-3.6308,-3.6555,-3.7167,-3.7349,-3.7281,-3.7542,-3.7248,-3.6619,0.0,0.0,0.0,0.0,0.0,0.0,0.0,0.0,0.0,0.0,0.0,0.0,0.0,0.0,0.0,0.0,0.0,0.0,0.0,0.0,0.0,0.0,0.0,0.0,0.0,0.0,0.0,0.0,0.0,0.0,0.0,0.0,0.0,0.0,0.0,0.0,0.0,0.0,0.0,-2.3719,-2.3458,0.0,0.0,0.0,0.0,-2.339,-2.3186,-2.3203,-2.3597,-2.3956,-2.4333,-2.4744,-2.544,-2.6234,-2.6987,-2.7381,-2.8117,-2.9196,-2.9265,-2.9658,-3.0343,-3.0293,-3.0293,-3.0293,-3.031,-3.0293,-3.019,-2.8818,-2.8188,-2.81,-2.81,-2.81,-2.8083,-2.8083,-2.7843,-2.7467,0.0,0.0,0.0,0.0,0.0,0.0,0.0,0.0,0.0,0.0,0.0,0.0,0.0,0.0,0.0,0.0,0.0,0.0,0.0,0.0,0.0,0.0,0.0,0.0,0.0,0.0,-3.2552,-3.3763,-3.3763,-3.433,-3.5445,-3.6477,-3.7008,-3.7167,-3.8413,-3.8954,-3.8908,-3.8377,-3.8003,-3.772,-3.7425,-3.6932,0.0,0.0,0.0,0.0,0.0,0.0,0.0,0.0,0.0,0.0,0.0,0.0,0.0,0.0,0.0,0.0,0.0,0.0,0.0,0.0,0.0,0.0,0.0,0.0,0.0,0.0,0.0,0.0,0.0,0.0,0.0,0.0,0.0,0.0,0.0,0.0,0.0,-2.4995,-2.4802,0.0,-2.4278,-2.4041,-2.384,-2.3861,-2.3858,-2.4008,-2.4401,-2.4761,-2.536,-2.6234,-2.6525,-2.7158,-2.8169,-2.8528,-2.9042,-2.9693,-3.0172,-3.0669,-3.1165,-3.1422,-3.1662,-3.1867,-3.1628,-3.1388,-3.1114,-3.0344,-2.9713,-2.9265,-2.9008,-2.8768,-2.8545,-2.8289,-2.81,-2.7963,0.0,0.0,0.0,0.0,0.0,0.0,0.0,0.0,0.0,0.0,0.0,0.0,0.0,0.0,0.0,0.0,0.0,0.0,0.0,0.0,0.0,0.0,0.0,0.0,0.0,-3.19,-3.3038,-3.4102,-3.4102,-3.4651,-3.5698,-3.6758,-3.7406,-3.7782,-3.8978,-3.9698,-3.9931,-3.9369,-3.9028,-3.8794,-3.8501,-3.8102,-3.7589,0.0,0.0,0.0,0.0,0.0,0.0,0.0,0.0,0.0,0.0,0.0,0.0,0.0,0.0,0.0,0.0,0.0,0.0,0.0,0.0,0.0,0.0,0.0,0.0,0.0,0.0,0.0,0.0,0.0,0.0,0.0,0.0,0.0,0.0,0.0,-2.5465,-2.5773,-2.57,-2.5461,-2.5147,-2.513,-2.5003,-2.4746,-2.4769,-2.4984,-2.536,-2.5737,-2.6354,-2.7227,-2.7621,-2.8186,-2.8956,-2.9436,-2.995,-3.0463,-3.096,-3.1456,-3.1953,-3.221,-3.245,-3.2672,-3.2415,-3.2107,-3.1748,-3.1491,-3.1028,-3.0412,-2.9898,-2.9539,-2.9282,-2.8905,-2.8768,-2.8734,0.0,0.0,0.0,0.0,0.0,0.0,0.0,0.0,0.0,0.0,0.0,0.0,0.0,0.0,0.0,0.0,0.0,0.0,0.0,0.0,0.0,0.0,0.0,0.0,-3.1012,-3.1977,-3.3141,-3.4373,-3.4373,-3.5055,-3.6309,-3.6782,-3.7478,-3.8292,-3.878,-3.9441,-4.0223,-4.0595,-4.0425,-3.9926,-3.9902,-3.9141,-3.8022,0.0,0.0,0.0,0.0,0.0,0.0,0.0,0.0,0.0,0.0,0.0,0.0,0.0,0.0,0.0,0.0,0.0,0.0,0.0,0.0,0.0,0.0,0.0,0.0,0.0,0.0,0.0,0.0,0.0,0.0,0.0,0.0,0.0,-2.5497,-2.585,-2.6126,-2.5904,-2.5943,-2.5954,-2.5661,-2.6013,-2.6175,-2.5925,-2.5902,-2.6131,-2.6508,-2.6902,-2.7278,-2.7655,-2.8734,-2.9333,-2.9384,-3.0104,-3.084,-3.1593,-3.1593,-3.1987,-3.2707,-3.2707,-3.2707,-3.2724,-3.2707,-3.2501,-3.2176,-3.2141,-3.1919,-3.1508,-3.0737,-3.0446,-3.0412,-3.0052,-2.9915,-2.9795,0.0,0.0,0.0,0.0,0.0,0.0,0.0,0.0,0.0,0.0,0.0,0.0,0.0,0.0,0.0,0.0,0.0,0.0,0.0,0.0,0.0,0.0,0.0,0.0,-3.1012,-3.2347,-3.3439,-3.4108,-3.4497,-3.5054,-3.5749,-3.6864,-3.7725,-3.8348,-3.9235,-3.9982,-4.0595,-4.0908,-4.0985,-4.0817,-4.0434,-3.9842,-3.908,0.0,0.0,0.0,0.0,0.0,0.0,0.0,0.0,0.0,0.0,0.0,0.0,0.0,0.0,0.0,0.0,0.0,0.0,0.0,0.0,0.0,0.0,0.0,0.0,0.0,0.0,0.0,0.0,0.0,0.0,0.0,0.0,-2.7251,-2.6465,-2.6812,-2.698,-2.6865,-2.6865,-2.6819,-2.6587,-2.6465,-2.6331,-2.6361,-2.661,-2.6919,-2.7278,-2.7672,-2.8169,-2.8819,-2.9145,-2.983,-3.0926,-3.1148,-3.1628,-3.2381,-3.2381,-3.2638,-3.3117,-3.3117,-3.3254,-3.3511,-3.322,-3.3049,-3.2912,-3.2364,-3.2073,-3.1902,-3.1148,-3.0857,-3.0806,-3.0429,-3.0121,-2.983,0.0,0.0,0.0,0.0,0.0,0.0,0.0,0.0,0.0,0.0,0.0,0.0,0.0,0.0,0.0,0.0,0.0,0.0,0.0,0.0,0.0,0.0,0.0,-3.106,-3.1179,-3.2567,-3.3522,-3.4004,-3.4532,-3.5037,-3.5543,-3.6618,-3.7487,-3.819,-3.9187,-3.9959,-4.0574,-4.1043,-4.1172,-4.1148,-4.086,-4.0403,-3.985,-3.8984,-3.819,-3.7348,-3.5978,-3.5159,-3.4655,-3.3885,0.0,0.0,0.0,0.0,0.0,0.0,0.0,0.0,0.0,0.0,0.0,0.0,0.0,0.0,0.0,0.0,0.0,0.0,0.0,0.0,0.0,0.0,0.0,0.0,-2.7969,-2.7749,-2.7628,-2.7691,-2.766,-2.7454,-2.7498,-2.7445,-2.7173,-2.7105,-2.7088,-2.6996,-2.7313,-2.7775,-2.8289,-2.8528,-2.9008,-2.9761,-3.0087,-3.0669,-3.1559,-3.1885,-3.233,-3.2929,-3.2929,-3.322,-3.3734,-3.358,-3.3717,0.0,-3.3665,-3.3426,-3.322,-3.2621,-3.2278,0.0,0.0,0.0,0.0,0.0,-3.0206,-2.9847,0.0,0.0,0.0,0.0,0.0,0.0,0.0,0.0,0.0,0.0,0.0,0.0,0.0,0.0,0.0,0.0,0.0,0.0,0.0,0.0,0.0,0.0,-3.0306,-3.1083,-3.1346,-3.2617,-3.3499,-3.3912,-3.444,-3.4969,-3.5451,-3.6279,-3.7084,-3.7919,-3.8801,-3.9579,-4.0331,-4.086,-4.11,-4.11,-4.1157,-4.0844,-4.0258,-3.9833,-3.899,-3.7906,-3.697,-3.5907,-3.4919,-3.4414,0.0,0.0,0.0,0.0,0.0,0.0,0.0,0.0,0.0,0.0,0.0,0.0,0.0,0.0,0.0,0.0,0.0,0.0,0.0,0.0,0.0,0.0,0.0,0.0,-2.8296,-2.8115,-2.8634,-2.8445,-2.8179,-2.7838,-2.7893,-2.7871,-2.7517,-2.7887,-2.8016,-2.7723,-2.81,-2.8631,-2.9333,0.0,0.0,0.0,0.0,-3.1628,-3.1748,-3.2415,-3.2963,-3.3391,-3.3391,-3.3768,-3.4436,-3.4111,-3.4128,-3.4368,-3.4042,-3.3683,-3.3306,-3.2912,-3.2501,-3.209,-3.1713,-3.163,-3.1544,-3.0789,-3.0291,0.0,0.0,0.0,0.0,0.0,0.0,0.0,0.0,0.0,0.0,0.0,0.0,0.0,0.0,0.0,0.0,0.0,0.0,0.0,0.0,0.0,0.0,0.0,0.0,-3.0771,-3.106,-3.232,-3.3138,-3.343,-3.3912,-3.4418,-3.4946,-3.5981,-3.6972,-3.7919,-3.8585,-3.9218,-3.9801,-4.0331,-4.0547,-4.0547,-4.0805,-4.0434,-3.9753,-3.9909,-3.9237,-3.8271,-3.7922,-3.7161,-3.6327,-3.5867,-3.4897,-3.3838,-3.3718,-3.3452,0.0,0.0,0.0,0.0,0.0,0.0,0.0,0.0,0.0,0.0,0.0,0.0,0.0,0.0,0.0,0.0,0.0,0.0,0.0,-2.8873,-2.8949,-2.8956,-2.8801,-2.8827,-2.8627,-2.7948,-2.8247,-2.8331,-2.8027,-2.812,-2.8283,-2.8528,-2.8888,-2.9299,-2.9761,-3.0052,0.0,-3.1319,-3.1491,-3.2004,-3.2929,-3.3083,-3.3494,-3.4179,0.0,0.0,-3.4864,-3.4796,-3.4624,-3.4385,-3.4316,-3.4076,-3.37,-3.3323,-3.2758,-3.209,-3.1713,-3.163,-3.1544,-3.1081,-3.0819,-3.0731,0.0,0.0,0.0,0.0,0.0,0.0,0.0,0.0,0.0,0.0,0.0,0.0,0.0,0.0,0.0,0.0,0.0,0.0,0.0,0.0,0.0,0.0,0.0,0.0,-3.1012,-3.1999,-3.2769,-3.3292,-3.3775,-3.4142,-3.4418,-3.5754,-3.6673,-3.722,-3.8305,-3.896,-3.9248,-3.9777,-3.9994,-3.9994,-4.0304,-3.9989,-3.9419,-3.9721,-3.9487,-3.89,-3.7978,-3.7363,-3.6845,-3.5941,-3.5187,-3.4534,-3.4126,-3.3814,-3.3573,0.0,0.0,0.0,0.0,0.0,0.0,0.0,0.0,0.0,0.0,0.0,0.0,0.0,0.0,-2.9845,0.0,0.0,-2.9684,-2.94,-2.9317,-2.9276,-2.9173,-2.8906,-2.8696,-2.8498,-2.8556,-2.8588,-2.8393,-2.8444,-2.8648,-2.9008,-2.9384,-2.9932,-3.0686,-3.0909,-3.1337,-3.2107,-3.2313,-3.2792,-3.3546,-3.3734,-3.4111,-3.4676,-3.4676,-3.4881,-3.5241,-3.5052,-3.4864,-3.4676,-3.447,-3.4179,-3.3802,-3.322,-3.2638,-3.209,-3.1926,-3.1841,-3.1755,-3.1218,-3.1143,-3.1155,0.0,0.0,0.0,0.0,0.0,0.0,0.0,0.0,0.0,0.0,0.0,0.0,0.0,0.0,0.0,0.0,0.0,0.0,0.0,0.0,0.0,0.0,0.0,0.0,0.0,-3.1608,-3.2351,-3.3082,-3.3614,-3.3912,-3.4027,-3.5427,-3.6132,-3.6326,-3.7804,-3.8503,-3.8551,-3.9176,-3.9465,-3.9441,-3.9801,-3.9642,-3.9306,-3.9406,-3.9438,-3.9213,-3.7959,-3.7343,-3.6923,-3.5819,-3.5308,-3.509,-3.4366,-3.415,-3.4054,-3.3573,-3.3382,0.0,0.0,0.0,0.0,0.0,0.0,0.0,0.0,0.0,-3.0278,-3.0474,-3.0568,-3.0452,-3.0018,-3.0244,-3.033,-2.9776,-2.9546,-2.9427,-2.9394,-2.8929,-2.8709,-2.9044,-2.8791,-2.8641,-2.8731,-2.8926,-2.9111,-2.9402,-2.9915,-3.0617,-3.1508,-3.1767,-3.2124,-3.2878,-3.322,-3.3597,-3.4059,-3.435,-3.4693,-3.507,-3.507,-3.5275,-3.5618,-3.5326,-3.5121,-3.495,-3.4487,-3.4111,-3.371,-3.2998,-3.2574,-3.2337,-3.2156,-3.2175,-3.2246,-3.1561,-3.1467,-3.1559,0.0,0.0,0.0,0.0,0.0,0.0,0.0,0.0,0.0,0.0,0.0,0.0,0.0,0.0,0.0,0.0,0.0,0.0,0.0,0.0,0.0,0.0,0.0,0.0,0.0,0.0,-3.1896,-3.2237,-3.3009,-3.3591,-3.4004,-3.468,-3.5239,-3.5737,-3.6848,-3.7372,-3.7445,-3.8479,-3.8912,-3.8966,-3.9428,-3.9594,-3.95,-3.9113,-3.8765,-3.8536,-3.8667,-3.7917,-3.6799,-3.6407,-3.5819,-3.5163,-3.48,-3.4703,-3.4583,-3.4054,-3.3768,-3.3506,-3.2724,-3.2484,-3.2397,-3.2104,-3.2149,-3.2348,0.0,0.0,-3.1739,-3.1923,-3.1533,-3.1052,-3.051,-3.0538,-3.0327,-2.9489,-2.9619,-2.963,-2.9153,-2.9046,-2.9062,-2.9066,-2.8887,-2.8748,-2.8811,-2.9367,-2.9795,-2.983,-3.0789,-3.151,-3.1559,-3.2193,-3.2912,-3.3683,-3.3751,-3.4128,-3.4847,-3.4881,-3.5087,-3.5446,-3.5446,-3.5652,-3.6029,-3.5994,-3.56,-3.4933,-3.4213,-3.3795,-3.371,-3.2998,-3.2891,-3.3096,-3.2402,-3.2544,-3.3137,-3.26,-3.2223,-3.1931,0.0,0.0,0.0,0.0,0.0,0.0,0.0,0.0,0.0,0.0,0.0,0.0,0.0,0.0,0.0,0.0,0.0,0.0,0.0,0.0,0.0,0.0,0.0,0.0,0.0,0.0,0.0,-3.2097,-3.262,-3.3086,-3.3591,-3.4272,-3.4782,-3.5145,-3.6074,-3.6569,-3.6771,-3.7228,-3.7421,-3.7473,-3.7993,-3.8175,-3.8253,-3.8341,-3.8116,-3.7716,-3.784,-3.7441,0.0,0.0,-3.5599,-3.5138,-3.4872,-3.4775,-3.4727,-3.4365,-3.4172,-3.3979,-3.3379,-3.2984,-3.2719,-3.2763,-3.2734,-3.2694,-3.2656,-3.234,-3.203,-3.1972,-3.1712,-3.1344,-3.0898,-3.0807,-3.0528,0.0,-2.9632,-2.945,-2.8815,-2.8799,-2.8826,-2.8842,-2.8772,-2.8875,-2.9059,-2.9573,-2.9984,-3.0189,-3.1046,-3.1748,-3.2193,-3.2946,-3.3597,-3.4145,-3.4385,-3.4744,-3.5275,-3.5292,-3.5481,-3.584,-3.584,-3.5926,-3.6097,-3.6097,-3.5686,-3.4933,-3.4162,-3.3761,-3.3785,-3.3236,-3.3145,-3.3293,-3.2932,-3.2981,-3.3224,-3.2791,-3.253,-3.2332,0.0,0.0,0.0,0.0,0.0,0.0,0.0,0.0,0.0,0.0,0.0,0.0,0.0,0.0,0.0,0.0,0.0,0.0,0.0,0.0,0.0,0.0,0.0,0.0,0.0,0.0,0.0,0.0,-3.1971,-3.2509,-3.3063,-3.3707,-3.4213,-3.4628,-3.5449,-3.5941,-3.6194,-3.6338,-3.6411,-3.6461,-3.6967,-3.7168,-3.7268,-3.7642,-3.7437,-3.6985,-3.7136,-3.6941,0.0,0.0,-3.5428,-3.5138,-3.4872,-3.4775,-3.4726,-3.4482,-3.4286,-3.4089,-3.3618,-3.3192,0.0,-3.307,-3.2945,-3.2787,-3.2793,-3.2619,-3.2335,-3.2078,-3.1814,-3.1532,-3.1248,-3.0933,-3.0567,-2.9981,-2.9686,-2.9309,-2.8721,-2.8717,-2.8738,-2.8811,-2.8892,-2.9076,-2.9436,-2.9813,-3.0241,-3.0703,-3.1439,-3.2159,-3.2809,-3.358,-3.4162,-3.4539,-3.4915,-3.5292,-3.5669,-3.5669,-3.5806,-3.6097,-3.6097,-3.6097,-3.608,-3.5874,-3.5498,-3.4933,-3.4162,-3.3761,-3.3785,-3.3474,-3.3381,-3.3439,-3.3374,-3.3348,-3.3363,-3.3055,-3.2757,-3.2551,0.0,0.0,0.0,0.0,0.0,0.0,0.0,0.0,0.0,0.0,0.0,0.0,0.0,0.0,0.0,0.0,0.0,0.0,0.0,0.0,0.0,0.0,0.0,0.0,0.0,0.0,0.0,0.0,0.0,-3.1811,-3.2512,-3.2804,-3.335,-3.416,-3.4904,-3.5392,-3.5665,-3.6194,-3.6411,-3.6461,-3.6967,-3.7168,-3.7219,-3.7217,-3.6908,-3.6505,-3.6985,0.0,0.0,0.0,-3.5428,-3.5138,-3.4872,-3.4775,0.0,-3.4482,-3.4064,-3.3568,-3.3092,-3.2891,-3.2904,-3.2812,-3.279,-3.2875,-3.3225,-3.3057,-3.2852,-3.2731,-3.2207,-3.171,-3.1363,-3.0781,-3.0333,-2.9981,-2.9686,-2.9402,-2.9143,-2.911,-2.9108,-2.9195,-2.9254,-2.9453,0.0,-3.0206,-3.072,-3.1474,-3.2227,-3.2826,-3.3237,-3.3957,-3.4556,-3.495,-3.5309,-3.5686,-3.608,-3.608,-3.608,-3.6097,-3.6097,-3.6097,-3.6063,-3.5344,-3.5001,-3.4933,-3.4162,-3.3761,-3.3785,-3.3474,-3.3509,-3.3711,-3.3444,-3.3469,-3.3817,-3.3798,-3.3285,-3.2588,0.0,0.0,0.0,0.0,0.0,0.0,0.0,0.0,0.0,0.0,0.0,0.0,0.0,0.0,0.0,0.0,0.0,0.0,0.0,0.0,0.0,0.0,0.0,0.0,0.0,0.0,0.0,0.0,0.0,-3.1265,-3.2055,-3.2151,-3.2387,-3.279,-3.3242,-3.3553,-3.3815,-3.4198,-3.4342,-3.439,-3.47,-3.489,-3.5127,-3.5258,-3.5315,-3.5303,0.0,0.0,0.0,0.0,0.0,0.0,-3.4318,-3.439,-3.4433,-3.4064,-3.3568,-3.3142,-3.2942,-3.2617,-3.2374,-3.2709,-3.2696,-3.2716,-3.2983,-3.3056,-3.2993,-3.2493,-3.2076,-3.1672,-3.1383,-3.0626,-3.0039,-2.9922,-2.9509,-2.9062,-2.8814,-2.8942,-2.9081,-2.8973,-2.9382,0.0,0.0,0.0,0.0,-3.1508,-3.2261,-3.2963,-3.3614,-3.4368,-3.495,-3.5309,-3.5703,-3.596,-3.6097,-3.6097,-3.6097,-3.6097,-3.6097,-3.596,-3.5686,-3.5189,-3.483,-3.4556,-3.4059,-3.3758,-3.3782,-3.3646,-3.3712,-3.3768,-3.3669,-3.3678,-3.378,-3.3523,-3.3065,-3.2588,0.0,0.0,0.0,0.0,0.0,0.0,0.0,0.0,0.0,0.0,0.0,0.0,0.0,0.0,0.0,0.0,0.0,0.0,0.0,0.0,0.0,0.0,0.0,0.0,0.0,0.0,0.0,0.0,0.0,0.0,-3.1384,-3.1454,-3.1712,-3.2111,-3.23,-3.2583,-3.291,-3.3074,-3.3238,-3.3331,-3.3492,-3.3722,-3.3906,-3.4135,-3.4193,0.0,0.0,0.0,0.0,0.0,0.0,-3.3982,-3.3911,-3.4029,-3.4064,-3.3668,-3.3242,-3.2841,-3.2617,-3.2291,-3.2097,-3.2375,-3.241,-3.2384,-3.2496,-3.2524,-3.2398,-3.1778,-3.1382,-3.108,-3.0952,-3.0219,-2.9751,-2.9903,-2.9521,-2.9161,-2.9011,-2.9217,-2.9344,-2.9371,-2.9673,-3.0087,0.0,0.0,0.0,-3.1902,-3.2535,-3.322,-3.3991,-3.4642,-3.5138,-3.5498,-3.5892,-3.6097,-3.6097,-3.6097,-3.6097,-3.6097,-3.6097,-3.5892,-3.5498,-3.5138,-3.4761,-3.4368,-3.4143,-3.3914,-3.3813,-3.3959,-3.3911,-3.3783,-3.3824,-3.3817,-3.3762,-3.3376,-3.2955,-3.257,0.0,0.0,0.0,0.0,0.0,0.0,0.0,0.0,0.0,0.0,0.0,0.0,0.0,0.0,0.0,0.0,0.0,0.0,0.0,0.0,0.0,0.0,0.0,0.0,0.0,0.0,0.0,0.0,0.0,0.0,0.0,-3.0765,-3.1274,-3.1948,-3.2018,-3.2324,-3.2792,-3.2839,-3.2978,-3.3258,-3.3419,-3.3487,-3.3557,-3.3808,0.0,0.0,0.0,0.0,0.0,0.0,0.0,0.0,-3.3744,-3.3736,-3.3618,-3.3392,-3.3092,-3.2718,-3.219,-3.1964,-3.1922,-3.1862,-3.1887,-3.1805,-3.1759,-3.1537,-3.123,-3.0646,-3.0258,-3.0043,0.0,0.0,-2.9448,-2.9827,-2.9725,-2.9587,-2.9679,-2.978,-2.993,0.0,0.0,0.0,0.0,0.0,0.0,-3.2655,0.0,-3.3631,-3.4385,-3.4796,-3.5172,-3.5532,-3.5892,-3.6097,-3.6097,-3.6097,-3.6097,-3.6097,-3.608,-3.5857,-3.5463,-3.5104,-3.4727,-3.4333,-3.4353,-3.4179,-3.3852,-3.4214,-3.418,-3.3836,-3.3824,-3.3798,-3.3725,-3.334,-3.2918,-3.2514,0.0,0.0,0.0,0.0,0.0,0.0,0.0,0.0,0.0,0.0,0.0,0.0,0.0,0.0,0.0,0.0,0.0,0.0,0.0,0.0,0.0,0.0,0.0,0.0,0.0,0.0,0.0,0.0,0.0,0.0,0.0,-2.9442,-2.985,0.0,-3.0764,-3.1155,-3.1496,-3.1653,-3.1833,-3.2126,0.0,-3.2261,-3.2439,0.0,0.0,0.0,0.0,0.0,0.0,0.0,0.0,0.0,-3.3835,-3.3871,-3.3641,-3.3142,-3.2818,-3.2493,-3.2117,-3.1732,-3.1395,-3.137,-3.1358,-3.1264,-3.1284,-3.1146,-3.0956,-3.059,-3.0258,-2.9944,0.0,0.0,0.0,-2.9448,-2.9539,0.0,-2.9679,-2.978,0.0,-3.031,-3.0323,-3.06,-3.1354,-3.2022,0.0,0.0,-3.3477,-3.4025,-3.4779,-3.5172,-3.5549,-3.5926,-3.6046,-3.6097,-3.6097,-3.6097,-3.6097,-3.6097,-3.5789,-3.5463,-3.5104,-3.471,-3.4333,-3.3957,-3.3938,-3.3926,-3.3833,-3.3929,-3.3889,-3.3806,-3.3784,-3.3633,-3.3321,-3.2918,-3.2496,-3.2093,0.0,0.0,0.0,0.0,0.0,0.0,0.0,0.0,0.0,0.0,0.0,0.0,0.0,0.0,0.0,0.0,0.0,0.0,0.0,0.0,0.0,0.0,0.0,0.0,0.0,0.0,0.0,0.0,0.0,0.0,0.0,-2.8584,-2.8896,-2.9051,-2.9523,-3.0043,-3.0498,0.0,0.0,0.0,0.0,0.0,0.0,0.0,0.0,0.0,0.0,0.0,0.0,0.0,0.0,-3.2866,-3.366,-3.3691,-3.3292,-3.2869,0.0,-3.219,-3.1761,-3.1424,-3.1116,-3.0909,-3.0789,-3.079,-3.0631,-3.0339,-3.0093,-2.993,-2.957,-2.9227,-2.9313,-2.9143,0.0,0.0,0.0,0.0,-2.9901,-3.0257,-3.0633,0.0,-3.0939,0.0,-3.1748,-3.2347,-3.2844,0.0,-3.3768,-3.4333,-3.495,-3.5309,-3.5686,-3.608,-3.6097,-3.6097,-3.6097,-3.6097,-3.6011,-3.584,-3.5618,-3.5224,-3.471,-3.4487,-3.4256,-3.4046,0.0,-3.408,-3.4054,-3.4071,-3.3955,-3.3817,-3.3817,-3.3578,-3.3175,-3.2753,-3.2349,-3.1946,0.0,0.0,0.0,0.0,0.0,0.0,0.0,0.0,0.0,0.0,0.0,0.0,0.0,0.0,0.0,0.0,0.0,0.0,0.0,0.0,0.0,0.0,0.0,0.0,0.0,0.0,0.0,0.0,0.0,0.0,0.0,0.0,0.0,0.0,0.0,0.0,0.0,0.0,0.0,0.0,0.0,0.0,0.0,0.0,0.0,0.0,0.0,0.0,0.0,0.0,-3.2677,-3.2605,-3.3464,-3.3342,-3.2841,-3.2594,-3.2291,-3.1863,-3.1322,-3.1167,-3.1013,-3.0547,-3.0391,-3.0287,-3.0047,-2.9501,-2.9079,-2.9079,-2.8654,-2.8398,-2.8769,-2.8684,-2.8748,-2.9126,0.0,-3.0204,-3.0204,-3.0974,-3.1553,-3.1545,-3.1612,-3.1756,-3.2213,-3.2501,-3.2861,-3.3306,-3.4042,-3.4607,-3.495,-3.5361,-3.5737,-3.608,-3.6097,-3.6097,-3.6097,-3.6097,-3.5892,-3.5498,-3.5463,-3.507,-3.4385,-3.441,-3.4339,-3.4336,0.0,0.0,-3.4324,-3.4353,-3.4128,-3.3798,-3.3762,-3.3486,-3.3083,-3.268,-3.2258,-3.1873,0.0,0.0,0.0,0.0,0.0,0.0,0.0,0.0,0.0,0.0,-2.4967,-2.4486,0.0,0.0,0.0,0.0,0.0,0.0,0.0,0.0,0.0,0.0,0.0,0.0,0.0,0.0,0.0,0.0,0.0,0.0,0.0,0.0,0.0,0.0,0.0,0.0,0.0,0.0,0.0,0.0,0.0,0.0,0.0,0.0,0.0,0.0,0.0,0.0,0.0,0.0,-3.2371,-3.2345,-3.3392,-3.3342,-3.2841,-3.2594,-3.2291,-3.1863,-3.1322,-3.1034,-3.0776,-3.0495,-3.0235,-3.0047,-2.9994,-2.9501,0.0,0.0,-2.8654,-2.832,-2.8398,-2.8492,-2.8653,-2.8729,0.0,0.0,-3.0204,-3.0928,-3.1619,0.0,-3.1731,-3.2001,-3.3026,-3.2874,0.0,0.0,0.0,0.0,-3.4967,-3.5618,-3.6029,-3.6097,-3.6097,-3.6097,-3.6097,-3.6097,-3.5892,-3.5498,-3.5207,-3.483,-3.4385,-3.4381,-3.4244,-3.3935,0.0,0.0,-3.391,-3.3863,-3.3872,-3.378,-3.345,-3.3065,-3.2661,-3.2258,-3.1854,-3.1534,0.0,0.0,0.0,0.0,0.0,0.0,0.0,-2.6115,-2.5906,-2.5906,-2.5513,-2.5229,-2.5229,-2.5229,-2.5317,0.0,0.0,0.0,0.0,0.0,0.0,0.0,0.0,0.0,0.0,0.0,0.0,0.0,0.0,0.0,0.0,0.0,0.0,0.0,0.0,0.0,0.0,0.0,0.0,0.0,0.0,0.0,0.0,0.0,0.0,0.0,0.0,0.0,0.0,0.0,-3.2134,-3.2129,-3.302,-3.3019,-3.2617,-3.2342,-3.2037,-3.1659,-3.1137,-3.0879,-3.0672,-3.0308,-3.0099,-2.9994,-2.9994,0.0,0.0,0.0,-2.8654,-2.8301,-2.8301,-2.8454,0.0,-2.8578,0.0,0.0,0.0,-3.1121,0.0,-3.2016,-3.2269,-3.2808,0.0,-3.3436,0.0,0.0,0.0,0.0,0.0,-3.5686,-3.6097,-3.6097,-3.6097,-3.5994,-3.5789,-3.5789,-3.5498,-3.4915,-3.4977,-3.4778,-3.4398,-3.4376,-3.4394,-3.4404,0.0,0.0,-3.4084,-3.3912,-3.3688,-3.3486,-3.3303,-3.2845,-3.2258,-3.2272,-3.2004,-3.1717,0.0,0.0,0.0,0.0,0.0,0.0,0.0,-2.6032,-2.5906,-2.5906,-2.5906,-2.5906,-2.5906,-2.5906,-2.5906,0.0,0.0,0.0,0.0,0.0,0.0,0.0,0.0,0.0,0.0,0.0,0.0,0.0,0.0,0.0,0.0,0.0,0.0,0.0,0.0,0.0,0.0,0.0,0.0,0.0,0.0,0.0,0.0,0.0,0.0,0.0,0.0,0.0,0.0,0.0,-3.1969,-3.189,-3.2624,-3.2667,-3.2443,-3.2117,-3.1812,-3.1476,-3.0931,-3.0776,-3.0672,-3.0151,-2.9994,-2.9994,-2.9994,-2.9501,0.0,-2.9079,-2.8654,-2.8301,-2.8301,0.0,-2.8577,0.0,-2.913,-2.9678,0.0,0.0,-3.1924,0.0,-3.2752,0.0,-3.3946,0.0,0.0,0.0,0.0,0.0,0.0,-3.5737,-3.6063,-3.5977,-3.596,-3.5789,-3.5395,-3.5474,-3.5209,-3.4538,-3.4922,-3.4959,-3.4499,-3.4543,-3.468,-3.4866,0.0,0.0,0.0,-3.3853,-3.3505,-3.3211,-3.3028,-3.257,-3.2132,-3.2301,-3.219,-3.2038,0.0,0.0,0.0,0.0,0.0,0.0,0.0,-2.6032,-2.5906,-2.5906,-2.5906,-2.5906,-2.5906,-2.5906,-2.5906,0.0,0.0,0.0,0.0,0.0,0.0,0.0,0.0,0.0,0.0,0.0,0.0,0.0,0.0,0.0,0.0,0.0,0.0,0.0,0.0,0.0,0.0,0.0,0.0,0.0,0.0,0.0,0.0,0.0,0.0,0.0,0.0,0.0,0.0,0.0,0.0,-3.1819,-3.2329,-3.2493,-3.2443,-3.2117,0.0,0.0,-3.0931,-3.0776,-3.0672,-3.0151,-2.9994,-2.9994,-2.9994,0.0,-2.9079,-2.9079,-2.8654,-2.8301,-2.8301,0.0,0.0,0.0,0.0,-2.9624,0.0,0.0,0.0,0.0,0.0,0.0,0.0,0.0,0.0,0.0,0.0,0.0,0.0,-3.5857,-3.5926,-3.5566,-3.5566,-3.5378,-3.5035,-3.5409,-3.5357,-3.4922,-3.5381,-3.5321,-3.4914,-3.4913,-3.4756,-3.4469,0.0,0.0,0.0,-3.345,-3.3248,-3.3156,-3.2404,-3.2272,-3.2404,-3.2115,-3.214,-3.2422,0.0,0.0,0.0,0.0,0.0,0.0,-2.5878,-2.5948,-2.5906,-2.5906,-2.5906,-2.5906,-2.5906,-2.5906,-2.5906,-2.5906,0.0,0.0,0.0,0.0,0.0,0.0,0.0,0.0,0.0,0.0,0.0,-2.5906,0.0,0.0,0.0,0.0,0.0,0.0,0.0,0.0,0.0,0.0,0.0,0.0,0.0,0.0,0.0,0.0,0.0,0.0,0.0,0.0,0.0,0.0,0.0,0.0,-3.2369,-3.2342,0.0,0.0,-3.168,-3.1476,-3.0931,-3.0776,-3.0672,-3.0151,-2.9994,-2.9994,-2.9994,0.0,-2.9343,-2.9132,-2.8814,-2.8514,-2.8354,-2.8435,0.0,0.0,0.0,0.0,-3.0346,0.0,0.0,0.0,0.0,0.0,0.0,0.0,0.0,0.0,0.0,0.0,0.0,0.0,-3.6053,-3.5896,-3.5896,-3.5704,-3.5397,-3.5551,-3.5416,-3.5011,-3.5388,-3.5417,-3.5023,-3.5012,-3.4757,0.0,0.0,0.0,0.0,-3.3285,-3.2936,-3.2459,-3.2327,-3.2246,-3.2198,-3.2414,-3.246,-3.2358,0.0,0.0,0.0,0.0,0.0,-2.4814,-2.5753,-2.5906,-2.5906,-2.5906,-2.5906,-2.595,-2.6103,-2.6125,-2.6168,-2.6299,-2.6059,0.0,0.0,0.0,0.0,0.0,0.0,0.0,0.0,0.0,-2.5906,-2.5906,-2.6037,-2.6125,0.0,0.0,0.0,0.0,0.0,0.0,0.0,0.0,0.0,0.0,0.0,0.0,0.0,0.0,0.0,0.0,0.0,0.0,0.0,0.0,0.0,0.0,0.0,0.0,0.0,0.0,-3.1629,-3.1476,-3.0931,-3.0776,-3.0672,-3.0151,-2.9994,-2.9994,0.0,0.0,-2.9501,-2.9185,-2.8887,-2.8621,-2.8354,-2.8393,0.0,0.0,0.0,-2.9289,-3.0555,0.0,0.0,0.0,0.0,0.0,0.0,0.0,0.0,0.0,0.0,0.0,0.0,0.0,-3.616,-3.6035,-3.6035,-3.584,-3.5432,-3.5508,-3.5388,-3.4979,-3.5425,-3.5374,-3.4993,-3.4883,-3.4678,0.0,0.0,0.0,0.0,-3.2973,-3.2533,-3.2001,-3.2264,-3.2235,-3.2083,-3.2543,-3.2609,-3.2463,0.0,0.0,0.0,0.0,0.0,0.0,-2.5753,-2.5906,-2.5906,-2.5906,-2.5906,-2.6081,-2.6519,-2.6584,-2.6759,-2.7261,-2.6431,0.0,0.0,0.0,0.0,0.0,0.0,0.0,0.0,0.0,-2.5906,-2.5906,-2.6387,-2.6584,-2.6584,-2.7086,-2.7569,0.0,0.0,0.0,0.0,0.0,0.0,0.0,0.0,0.0,0.0,0.0,0.0,0.0,0.0,0.0,0.0,0.0,0.0,0.0,0.0,0.0,0.0,0.0,-3.1629,-3.1476,-3.0931,-3.0776,-3.0672,-3.0151,-2.9994,-2.9994,0.0,0.0,-2.9501,-2.9185,-2.8887,-2.8621,-2.8354,-2.8301,0.0,0.0,0.0,0.0,-3.0578,0.0,0.0,0.0,0.0,0.0,0.0,0.0,0.0,0.0,0.0,0.0,0.0,0.0,-3.6028,-3.561,-3.561,-3.5432,-3.5007,-3.5381,-3.5425,-3.5028,-3.5413,-3.5412,-3.5027,-3.4605,0.0,0.0,0.0,0.0,0.0,-3.2349,-3.2019,-3.1964,-3.1949,-3.2121,-3.2365,-3.2344,-3.2483,-3.2734,0.0,0.0,0.0,0.0,0.0,0.0,0.0,-2.5906,-2.5906,-2.5906,-2.5906,-2.6081,-2.654,-2.6584,-2.678,-2.7282,-2.6758,0.0,0.0,0.0,0.0,0.0,0.0,0.0,0.0,0.0,-2.6867,-2.6867,-2.702,-2.7086,-2.7108,-2.7239,-2.7569,-2.8007,0.0,0.0,0.0,0.0,0.0,0.0,0.0,0.0,0.0,0.0,0.0,0.0,0.0,0.0,0.0,0.0,0.0,0.0,0.0,0.0,0.0,-3.1083,0.0,0.0,-3.0931,-3.0776,-3.0672,-3.0151,-2.9994,-2.9994,-2.9994,0.0,-2.9732,-2.9185,-2.9026,-2.8814,-2.8408,-2.8301,0.0,0.0,0.0,0.0,0.0,0.0,0.0,0.0,0.0,0.0,0.0,0.0,0.0,0.0,0.0,0.0,0.0,0.0,0.0,-3.601,-3.6028,-3.5847,-3.5429,-3.5503,-3.5376,-3.4993,-3.5138,-3.5009,-3.4605,0.0,0.0,0.0,0.0,0.0,0.0,-3.2111,-3.1967,-3.1949,-3.1858,-3.2068,-3.2325,-3.2273,-3.2127,-3.1894,0.0,0.0,0.0,0.0,0.0,0.0,0.0,-2.5906,-2.5906,-2.5906,-2.5906,-2.6147,-2.678,-2.6846,-2.7151,-2.7807,-2.7435,0.0,0.0,0.0,0.0,0.0,0.0,0.0,-2.6846,-2.7173,-2.7304,-2.7304,-2.7501,-2.7544,-2.7588,-2.7763,-2.812,-2.8567,-2.8567,-2.9014,0.0,0.0,0.0,0.0,0.0,0.0,-3.1042,0.0,0.0,0.0,0.0,0.0,0.0,0.0,0.0,0.0,0.0,0.0,0.0,0.0,-3.1105,-3.1237,0.0,-3.0776,-3.0672,-3.0151,-2.9994,0.0,0.0,0.0,0.0,0.0,-2.9185,-2.8973,0.0,0.0,0.0,0.0,0.0,0.0,0.0,0.0,0.0,0.0,0.0,0.0,0.0,0.0,0.0,0.0,0.0,0.0,0.0,0.0,0.0,-3.576,-3.576,-3.565,-3.5394,-3.5394,-3.5192,-3.4788,-3.4788,-3.4568,-3.4183,0.0,0.0,0.0,0.0,0.0,0.0,-3.1836,-3.1737,-3.1668,-3.1785,-3.1908,-3.2007,-3.1949,-3.1758,-3.1504,0.0,0.0,0.0,0.0,0.0,0.0,0.0,-2.5906,-2.5906,-2.5906,-2.5906,-2.6256,-2.7217,-2.7304,-2.7697,-2.8727,0.0,0.0,0.0,0.0,0.0,0.0,0.0,0.0,-2.737,-2.7392,-2.7413,-2.7413,-2.7827,-2.8045,-2.8045,-2.8549,-2.9024,-2.9485,-2.9485,-2.976,0.0,0.0,0.0,0.0,0.0,0.0,0.0,0.0,0.0,0.0,0.0,0.0,0.0,0.0,0.0,0.0,0.0,0.0,0.0,0.0,0.0,0.0,0.0,-3.0754,-3.0672,-3.0151,-2.9994,-2.9994,0.0,0.0,0.0,0.0,0.0,0.0,0.0,0.0,0.0,0.0,0.0,0.0,0.0,0.0,0.0,0.0,0.0,0.0,0.0,0.0,0.0,0.0,0.0,0.0,0.0,0.0,0.0,0.0,-3.4954,-3.4954,-3.499,-3.499,-3.477,-3.4312,-3.4312,-3.411,-3.3707,0.0,0.0,0.0,0.0,0.0,0.0,-3.1506,-3.1312,-3.1339,-3.1615,-3.166,-3.1565,-3.1501,-3.1465,-3.1406,0.0,0.0,0.0,0.0,0.0,0.0,0.0,0.0,0.0,0.0,-2.5906,-2.6256,-2.7217,-2.7304,-2.7697,0.0,0.0,0.0,0.0,0.0,0.0,0.0,0.0,0.0,-2.7827,-2.8222,-2.8464,-2.8464,-2.8574,-2.8639,-2.8593,-2.8749,-2.8932,-2.9209,-2.9393,-2.976,0.0,0.0,0.0,0.0,0.0,0.0,0.0,0.0,0.0,0.0,-3.2351,-3.1748,0.0,0.0,0.0,0.0,0.0,0.0,0.0,0.0,-3.0341,-3.083,-3.0405,0.0,-3.0672,-3.0151,-2.9994,-2.9994,0.0,0.0,0.0,0.0,0.0,0.0,0.0,0.0,0.0,0.0,0.0,0.0,0.0,0.0,0.0,0.0,0.0,0.0,0.0,0.0,0.0,0.0,0.0,0.0,0.0,0.0,0.0,0.0,-3.4257,-3.4238,-3.455,-3.455,-3.4202,-3.3505,-3.3505,-3.3285,0.0,0.0,0.0,0.0,0.0,0.0,0.0,-3.0974,-3.1058,-3.1224,-3.0902,-3.1076,-3.1501,-3.1132,-3.1035,-3.1016,0.0,0.0,0.0,0.0,0.0,0.0,0.0,0.0,0.0,0.0,0.0,0.0,0.0,0.0,0.0,0.0,0.0,0.0,0.0,0.0,0.0,0.0,0.0,-2.8375,-2.8375,-2.8661,-2.8792,-2.8792,-2.9033,-2.9011,-2.8814,-2.9033,-2.9105,-2.9139,-2.9508,-2.9829,0.0,0.0,0.0,0.0,-3.079,0.0,0.0,0.0,0.0,0.0,-3.1604,-3.0981,0.0,-2.9885,-2.9407,-2.8932,0.0,0.0,0.0,0.0,-2.9838,-3.0242,-3.0149,-3.0414,-3.0672,-3.0151,-2.9994,-2.9994,-2.9994,0.0,0.0,0.0,0.0,0.0,0.0,0.0,0.0,0.0,0.0,0.0,0.0,0.0,0.0,0.0,0.0,0.0,0.0,0.0,0.0,0.0,0.0,0.0,0.0,0.0,0.0,0.0,0.0,-3.345,-3.3853,-3.3853,-3.3541,-3.2936,-3.2936,-3.2808,0.0,0.0,0.0,0.0,0.0,0.0,-3.0772,-3.0589,-3.0649,-3.085,-3.0622,-3.0792,-3.1211,-3.0976,-3.0898,-3.0898,0.0,0.0,0.0,0.0,0.0,0.0,0.0,0.0,0.0,0.0,0.0,0.0,0.0,0.0,0.0,0.0,0.0,0.0,0.0,0.0,0.0,0.0,-2.8839,-2.8839,-2.8839,-2.8927,-2.897,-2.8924,-2.9358,-2.9379,-2.9033,-2.9401,-2.9478,-2.925,-2.9599,-2.9806,0.0,0.0,0.0,0.0,-3.0651,0.0,0.0,0.0,0.0,0.0,0.0,0.0,0.0,-2.9272,-2.9,-2.8792,-2.8792,0.0,0.0,0.0,0.0,0.0,-2.9885,-3.0359,-3.0587,-3.013,-2.9994,-2.9994,-2.9994,0.0,0.0,0.0,0.0,0.0,0.0,-2.8654,0.0,0.0,0.0,0.0,0.0,0.0,0.0,0.0,0.0,0.0,0.0,0.0,0.0,0.0,0.0,0.0,0.0,0.0,0.0,0.0,0.0,0.0,-3.3028,-3.3101,-3.2918,-3.2496,-3.2496,-3.2478,-3.2386,-3.2001,0.0,0.0,0.0,0.0,-3.0571,-3.0241,-3.0222,-3.0433,-3.0433,-3.06,-3.0898,-3.0898,-3.0898,-3.0898,0.0,0.0,0.0,0.0,0.0,0.0,0.0,0.0,0.0,0.0,0.0,0.0,0.0,0.0,0.0,0.0,0.0,0.0,0.0,0.0,0.0,-2.9046,-2.9024,-2.9024,-2.9024,-2.9512,-2.9639,-2.9379,-2.986,-3.0057,-2.9991,-3.0057,-3.0005,-2.9758,-2.9362,-2.937,-2.9531,-2.9577,-2.9623,-2.9668,-3.0186,0.0,0.0,0.0,0.0,0.0,0.0,0.0,0.0,-2.9161,-2.9,-2.8792,-2.8792,0.0,0.0,0.0,0.0,0.0,-2.9529,-2.987,-3.0164,-3.0047,-2.9994,-2.9994,-2.9994,-2.9994,0.0,0.0,0.0,0.0,0.0,0.0,0.0,0.0,0.0,0.0,0.0,0.0,0.0,0.0,0.0,0.0,0.0,0.0,0.0,0.0,0.0,0.0,0.0,0.0,0.0,0.0,0.0,0.0,0.0,-3.2514,-3.2496,-3.2093,-3.2093,-3.1909,-3.1543,-3.1157,-3.0974,0.0,0.0,0.0,-2.9745,-2.969,-2.9795,-3.0016,-3.0016,-3.0332,-3.0898,-3.0898,-3.0898,-3.0898,0.0,0.0,0.0,0.0,0.0,0.0,0.0,0.0,0.0,0.0,0.0,0.0,0.0,0.0,0.0,0.0,0.0,0.0,0.0,0.0,0.0,-2.9093,-2.9071,-2.9163,-2.9301,-2.986,-3.0081,-2.9916,-3.0524,-3.0668,-3.0405,-2.9996,-2.9755,-2.9657,-2.9267,-2.9163,-2.9301,-2.9439,-2.9485,-2.9508,0.0,0.0,0.0,0.0,0.0,0.0,0.0,0.0,0.0,0.0,-2.8885,-2.8792,-2.8792,0.0,0.0,0.0,0.0,0.0,-2.9037,-2.9381,-2.9698,-2.9673,-2.9808,-2.9994,-2.9994,-2.9994,0.0,0.0,0.0,0.0,0.0,0.0,0.0,0.0,0.0,0.0,0.0,0.0,0.0,0.0,0.0,0.0,0.0,0.0,0.0,0.0,0.0,0.0,0.0,0.0,0.0,0.0,0.0,0.0,0.0,-3.1212,-3.1322,-3.1341,-3.1139,-3.0937,-3.0736,-3.0552,-3.0479,0.0,0.0,-2.9745,-2.9562,-2.9342,-2.9309,-2.9348,-2.9542,-2.9757,-2.9947,-3.0119,-3.0176,-3.0215,0.0,0.0,0.0,0.0,0.0,0.0,0.0,0.0,0.0,0.0,0.0,0.0,0.0,0.0,0.0,0.0,0.0,0.0,0.0,0.0,-2.8885,-2.9093,-2.9071,-2.9209,-2.9485,-3.016,-3.0474,-3.0474,-3.1118,-3.1191,-3.0656,-2.9978,-2.9598,-2.9514,-2.9151,-2.9046,-2.9024,-2.9255,-2.9347,-2.9347,0.0,0.0,0.0,0.0,0.0,0.0,0.0,0.0,0.0,0.0,0.0,0.0,0.0,0.0,0.0,-2.8593,-2.8659,-2.8715,-2.8716,-2.9013,-2.9331,-2.9289,-2.9642,-2.9994,-2.9994,-2.9994,-2.9994,-2.9994,0.0,0.0,0.0,0.0,0.0,0.0,0.0,0.0,0.0,0.0,0.0,0.0,0.0,0.0,0.0,0.0,0.0,0.0,0.0,0.0,0.0,0.0,0.0,0.0,0.0,0.0,0.0,-3.0094,-3.0259,-3.0644,-3.0351,-3.0204,-3.0204,-3.0094,-3.0057,-3.0039,-2.9617,-2.9434,-2.9397,-2.9012,-2.8821,-2.8816,-2.8972,-2.9089,-2.9122,-2.9458,-2.9626,-2.9609,0.0,0.0,0.0,0.0,0.0,0.0,0.0,0.0,0.0,0.0,0.0,0.0,0.0,0.0,0.0,0.0,0.0,0.0,0.0,0.0,-2.8885,-2.9093,-2.9071,-2.9209,-2.9485,-3.0474,-3.0967,-3.0967,-3.1606,-3.1576,-3.0893,-3.0384,-2.9925,-2.9467,-2.9011,-2.8792,-2.8792,-2.8839,-2.8839,-2.8839,-2.8839,0.0,0.0,0.0,0.0,0.0,0.0,0.0,0.0,0.0,0.0,0.0,0.0,0.0,-2.8045,-2.8045,-2.8234,-2.8455,-2.862,-2.8866,-2.9082,-2.9238,-2.9642,-2.9994,-2.9994,-2.9994,-2.9994,-2.9994,-2.9501,0.0,0.0,0.0,0.0,0.0,0.0,0.0,0.0,0.0,0.0,0.0,0.0,0.0,0.0,0.0,0.0,0.0,0.0,0.0,0.0,0.0,0.0,0.0,0.0,0.0,0.0,0.0,-2.9837,-3.0241,-3.0222,-3.0204,-3.0185,-2.98,-2.9617,-2.9599,-2.9195,-2.903,-2.8993,-2.859,-2.8581,-2.8779,-2.8424,-2.8653,-2.9122,-2.9458,-2.9626,-2.957,0.0,0.0,0.0,0.0,0.0,0.0,0.0,0.0,0.0,0.0,0.0,0.0,0.0,0.0,0.0,0.0,0.0,0.0,0.0,-2.8792,-2.8839,-2.8885,-2.8885,-2.9024,-2.9255,-3.0133,-3.0586,-3.0586,-3.0945,-3.0894,-3.045,-2.9991,-2.9663,-2.9467,-2.9011,-2.8792,-2.8792,-2.8792,-2.8792,-2.8792,-2.8792,-2.8792,0.0,0.0,0.0,0.0,0.0,0.0,0.0,0.0,-2.7457,-2.7304,0.0,0.0,-2.8002,-2.8002,-2.8212,-2.8391,-2.8305,-2.8634,-2.8969,-2.8885,-2.9435,0.0,-2.9994,-2.9994,-2.9994,-2.9994,-2.9501,-2.9026,0.0,0.0,0.0,0.0,0.0,0.0,0.0,0.0,0.0,0.0,0.0,0.0,0.0,0.0,0.0,0.0,0.0,0.0,0.0,0.0,0.0,0.0,0.0,0.0,0.0,0.0,-2.9159,-2.9085,-2.9324,-2.9434,-2.9434,-2.9269,-2.9214,-2.9177,-2.8792,-2.8627,-2.859,-2.8168,-2.7971,-2.7807,-2.7734,-2.795,-2.8388,-2.8661,-2.8769,-2.8809,0.0,0.0,0.0,0.0,0.0,0.0,0.0,0.0,0.0,0.0,0.0,0.0,0.0,0.0,0.0,0.0,0.0,0.0,-2.8792,-2.8792,-2.8792,-2.8792,-2.8792,-2.8839,-2.9,-2.9564,-2.9949,-3.0317,-3.05,-3.0365,-2.9969,-2.9642,-2.9401,-2.9226,-2.8946,-2.8792,-2.8792,-2.8792,-2.8792,-2.8792,-2.8792,-2.8705,0.0,0.0,0.0,0.0,0.0,0.0,0.0,0.0,0.0,0.0,0.0,0.0,0.0,0.0,-2.8036,-2.8233,-2.8045,-2.8458,-2.8828,-2.8678,0.0,0.0,-2.9994,-2.9994,-2.9994,-2.9994,-2.9501,-2.892,-2.8408,0.0,0.0,0.0,0.0,0.0,0.0,0.0,0.0,0.0,0.0,0.0,0.0,0.0,0.0,0.0,0.0,0.0,0.0,0.0,0.0,0.0,0.0,0.0,0.0,0.0,-2.8462,-2.8205,-2.8462,-2.859,-2.859,-2.859,-2.859,-2.859,-2.8315,-2.8187,-2.8168,-2.7746,-2.7399,-2.7179,-2.7319,-2.7584,-2.7906,-2.8174,-2.8301,-2.834,0.0,0.0,0.0,0.0,0.0,0.0,0.0,0.0,0.0,0.0,0.0,0.0,0.0,0.0,0.0,0.0,0.0,0.0,-2.8792,-2.8792,-2.8792,-2.8792,-2.8792,-2.8792,-2.8792,-2.8792,-2.9289,-3.0294,-3.05,-3.0237,-2.9467,-2.9467,-2.9274,-2.8792,-2.8792,-2.8792,-2.8792,-2.8792,-2.8792,-2.8792,-2.8792,-2.8462,-2.798,0.0,0.0,0.0,0.0,0.0,0.0,0.0,-2.6299,0.0,0.0,0.0,0.0,0.0,-2.7618,-2.7998,-2.7998,-2.8292,-2.8607,0.0,0.0,0.0,-2.9994,-2.9994,-2.9994,-2.9994,-2.9501,-2.892,-2.8408,-2.8301,0.0,0.0,0.0,0.0,0.0,0.0,0.0,0.0,0.0,0.0,0.0,0.0,0.0,0.0,0.0,0.0,0.0,0.0,0.0,0.0,0.0,0.0,0.0,0.0,-2.7822,-2.7822,-2.7822,-2.7822,-2.7822,-2.7822,-2.7822,-2.7822,-2.7822,-2.7822,-2.7785,-2.7325,-2.7087,-2.7043,-2.7314,-2.7584,-2.7906,-2.8174,-2.8301,-2.8301,0.0,0.0,0.0,0.0,0.0,0.0,0.0,0.0,0.0,0.0,0.0,0.0,0.0,0.0,0.0,0.0,0.0,0.0,-2.8244,-2.8571,-2.8792,-2.8792,-2.8792,-2.8792,-2.8792,-2.8792,-2.8973,-2.9267,-2.9305,-2.9211,-2.9011,-2.9011,-2.8946,-2.8792,-2.8792,-2.8792,-2.8771,-2.8396,-2.8265,-2.8222,-2.7872,-2.7654,-2.7523,0.0,0.0,0.0,0.0,0.0,0.0,0.0,0.0,0.0,0.0,0.0,0.0,-2.7304,-2.7618,-2.7998,-2.7998,-2.8292,0.0,0.0,0.0,0.0,0.0,-2.9994,0.0,0.0,-2.9237,-2.892,-2.8408,0.0,0.0,0.0,0.0,0.0,0.0,0.0,0.0,0.0,0.0,0.0,0.0,0.0,0.0,0.0,0.0,0.0,0.0,0.0,0.0,0.0,0.0,0.0,0.0,0.0,0.0,-2.7361,-2.7361,-2.7546,-2.7822,-2.7822,-2.7822,-2.7803,-2.7528,-2.7361,-2.7381,-2.7123,-2.7155,-2.7314,-2.7638,-2.7799,-2.7906,-2.8174,-2.8301,-2.8301,0.0,0.0,0.0,0.0,0.0,0.0,0.0,0.0,0.0,0.0,-2.4507,-2.4676,0.0,0.0,0.0,0.0,0.0,0.0,0.0,-2.8063,-2.837,-2.8484,-2.8705,-2.8792,-2.8792,-2.8792,-2.8792,-2.8792,-2.8792,-2.8792,-2.8792,-2.8792,-2.8792,-2.8792,-2.8792,-2.8683,-2.8462,-2.8111,-2.7893,-2.7674,-2.7435,-2.7195,-2.7042,0.0,0.0,0.0,0.0,0.0,0.0,0.0,0.0,0.0,0.0,0.0,0.0,-2.75,-2.7769,-2.7998,-2.7998,0.0,0.0,0.0,0.0,0.0,-2.9994,0.0,0.0,0.0,0.0,-2.892,0.0,0.0,0.0,0.0,0.0,0.0,0.0,0.0,0.0,0.0,0.0,0.0,0.0,0.0,0.0,0.0,0.0,0.0,0.0,0.0,0.0,0.0,0.0,0.0,0.0,0.0,0.0,0.0,-2.705,-2.7271,-2.7456,-2.7344,-2.74,-2.7493,-2.7363,-2.7252,-2.7288,-2.721,-2.7314,-2.7638,-2.7799,-2.7863,-2.7815,-2.7994,-2.793,-2.7793,0.0,0.0,0.0,0.0,0.0,0.0,0.0,0.0,0.0,0.0,-2.4464,-2.4464,0.0,0.0,0.0,0.0,0.0,0.0,0.0,0.0,-2.7709,-2.7891,-2.8396,-2.8661,-2.8661,-2.8661,-2.8683,-2.8727,-2.8771,-2.8792,-2.8792,-2.8792,-2.8792,-2.8792,-2.8749,-2.844,-2.798,-2.7893,-2.7609,-2.7239,-2.7195,-2.6933,-2.6519,-2.6519,0.0,0.0,0.0,0.0,0.0,0.0,0.0,0.0,0.0,0.0,-2.7392,-2.7805,-2.7963,-2.7998,0.0,0.0,0.0,0.0,0.0,0.0,0.0,0.0,0.0,0.0,0.0,0.0,0.0,0.0,0.0,0.0,0.0,0.0,0.0,0.0,0.0,0.0,0.0,0.0,0.0,0.0,0.0,0.0,0.0,0.0,0.0,0.0,0.0,0.0,0.0,0.0,0.0,0.0,0.0,0.0,0.0,-2.6931,-2.6931,-2.6754,-2.6791,-2.7043,-2.7314,-2.7422,-2.7422,-2.7422,-2.7638,-2.796,-2.796,-2.7815,-2.7728,-2.7728,-2.7383,-2.7012,0.0,0.0,0.0,0.0,0.0,0.0,0.0,0.0,0.0,0.0,0.0,0.0,0.0,0.0,0.0,0.0,0.0,0.0,0.0,0.0,-2.701,-2.7212,-2.7477,-2.761,-2.761,-2.761,-2.7807,-2.8154,-2.8571,-2.8792,-2.8792,-2.8792,-2.8792,-2.8792,-2.8353,-2.8089,-2.7958,-2.7195,-2.6824,-2.6736,-2.6365,-2.6147,-2.6059,-2.6059,-2.5994,0.0,0.0,0.0,0.0,0.0,0.0,0.0,-2.6016,-2.6627,-2.7326,-2.7435,-2.7705,-2.7998,0.0,0.0,0.0,0.0,0.0,0.0,0.0,0.0,0.0,0.0,0.0,0.0,0.0,0.0,0.0,0.0,0.0,0.0,0.0,0.0,0.0,0.0,0.0,0.0,0.0,0.0,0.0,0.0,0.0,0.0,0.0,0.0,0.0,0.0,0.0,0.0,0.0,0.0,0.0,0.0,-2.6248,-2.63,-2.6319,-2.6924,-2.726,-2.7314,-2.7368,-2.753,-2.7799,-2.7799,-2.796,-2.8228,-2.8228,-2.7974,-2.7728,-2.7728,-2.7383,-2.7012,0.0,0.0,0.0,0.0,0.0,0.0,0.0,0.0,0.0,0.0,0.0,0.0,0.0,0.0,0.0,0.0,0.0,0.0,0.0,0.0,-2.6402,-2.6838,-2.706,-2.7127,-2.7127,-2.726,-2.7435,-2.7653,-2.7938,-2.8355,-2.8792,-2.8792,-2.8683,-2.8396,-2.8111,-2.774,-2.7282,-2.6802,-2.6453,-2.6256,-2.5994,-2.5906,-2.5906,-2.5906,-2.5906,-2.5906,-2.5906,0.0,0.0,0.0,0.0,0.0,0.0,0.0,-2.7348,-2.7588,-2.7812,-2.7998,0.0,0.0,0.0,0.0,0.0,0.0,0.0,0.0,0.0,0.0,0.0,0.0,0.0,0.0,0.0,0.0,0.0,0.0,0.0,0.0,0.0,0.0,0.0,0.0,0.0,0.0,0.0,0.0,0.0,0.0,0.0,0.0,0.0,0.0,0.0,0.0,-2.648,-2.6461,-2.6347,-2.6088,-2.6243,-2.6397,-2.6519,-2.6836,-2.7046,-2.7046,-2.7151,-2.7309,-2.7486,-2.768,-2.7766,-2.7695,-2.791,-2.7617,-2.7051,-2.7051,-2.6777,-2.6356,0.0,0.0,0.0,0.0,0.0,0.0,0.0,0.0,0.0,0.0,0.0,0.0,0.0,0.0,0.0,0.0,0.0,0.0,0.0,0.0,0.0,-2.6381,-2.6602,-2.6713,-2.6757,-2.6933,-2.7064,-2.7195,-2.7195,-2.7654,-2.8552,-2.8552,-2.8287,-2.7871,-2.7783,-2.7326,-2.6584,-2.6497,-2.6278,-2.5906,-2.5906,-2.5906,-2.5906,-2.5906,-2.5906,-2.5906,-2.5906,-2.5906,-2.5906,-2.5906,0.0,0.0,0.0,0.0,-2.7282,-2.7631,-2.7834,-2.787,0.0,0.0,0.0,0.0,0.0,0.0,0.0,0.0,0.0,0.0,0.0,0.0,0.0,0.0,0.0,0.0,0.0,0.0,0.0,0.0,0.0,0.0,0.0,0.0,0.0,0.0,0.0,0.0,0.0,0.0,0.0,0.0,0.0,0.0,0.0,0.0,-2.6148,-2.6129,-2.611,-2.6034,-2.634,-2.6543,-2.6797,-2.6543,-2.6499,-2.6705,-2.691,-2.7012,-2.7051,-2.7402,-2.7344,-2.7051,-2.7422,-2.707,-2.6387,-2.6387,-2.6113,-2.5693,0.0,0.0,0.0,0.0,0.0,0.0,0.0,0.0,0.0,0.0,-2.3406,-2.3537,0.0,0.0,0.0,0.0,0.0,0.0,0.0,0.0,0.0,-2.5125,-2.5338,-2.5573,-2.5785,-2.5785,-2.6129,-2.6671,-2.6671,-2.6998,-2.7501,-2.7501,-2.7479,-2.7392,-2.6955,-2.6715,-2.6562,-2.619,-2.5972,-2.5906,-2.5906,-2.5906,-2.5906,-2.5906,-2.5906,-2.5906,-2.5906,-2.5906,-2.5906,-2.5906,-2.5906,0.0,0.0,0.0,-2.6693,-2.6759,-2.7056,-2.7377,0.0,0.0,0.0,0.0,0.0,0.0,0.0,0.0,0.0,0.0,0.0,0.0,0.0,0.0,0.0,0.0,0.0,0.0,0.0,0.0,0.0,0.0,0.0,0.0,0.0,0.0,0.0,0.0,0.0,0.0,0.0,0.0,0.0,0.0,0.0,0.0,-2.6365,-2.6365,-2.619,-2.5751,-2.58,-2.5849,-2.5849,-2.5849,-2.6209,-2.6961,-2.6961,-2.7012,-2.7012,-2.709,-2.707,-2.7031,-2.709,-2.6816,-2.6387,-2.6387,-2.6113,-2.5693,0.0,0.0,0.0,0.0,0.0,0.0,0.0,0.0,0.0,0.0,0.0,-2.3319,0.0,0.0,0.0,0.0,0.0,0.0,0.0,0.0,0.0,-2.4658,-2.4914,-2.5084,-2.5211,-2.5486,-2.5741,-2.6042,-2.6127,-2.6321,-2.6518,-2.6518,-2.6671,-2.6889,-2.6671,-2.6431,-2.6212,-2.5994,-2.5906,-2.5906,-2.5906,-2.5906,-2.5906,-2.5906,-2.5906,-2.5906,-2.5906,-2.5906,-2.5906,-2.5906,-2.5906,-2.5906,-2.5906,0.0,0.0,0.0,-2.6756,0.0,0.0,0.0,0.0,0.0,0.0,0.0,0.0,0.0,0.0,0.0,0.0,0.0,0.0,0.0,0.0,0.0,0.0,0.0,0.0,0.0,0.0,0.0,0.0,0.0,0.0,0.0,0.0,0.0,0.0,0.0,0.0,-2.5918,-2.6016,-2.6016,-2.6211,0.0,-2.6035,-2.6016,-2.5869,-2.5693,-2.5693,-2.5693,-2.5693,-2.5693,-2.5888,-2.6259,-2.6259,-2.6259,-2.6259,-2.6562,-2.6523,-2.6328,-2.6562,-2.6406,-2.6016,-2.6016,-2.5898,-2.5693,0.0,0.0,0.0,0.0,0.0,0.0,0.0,0.0,0.0,0.0,0.0,0.0,0.0,0.0,0.0,0.0,0.0,0.0,0.0,0.0,0.0,-2.4507,-2.47,-2.4828,-2.4914,-2.5253,-2.5486,-2.5612,-2.5738,-2.5864,-2.5906,-2.5906,-2.6103,-2.641,-2.641,-2.6234,-2.5906,-2.5906,-2.5906,-2.5906,-2.5906,-2.5906,-2.5906,-2.5906,-2.5906,-2.5906,-2.6037,-2.6081,-2.6081,-2.6081,-2.6081,-2.6059,-2.595,-2.6147,0.0,0.0,0.0,0.0,0.0,0.0,0.0,0.0,0.0,0.0,0.0,0.0,0.0,0.0,0.0,0.0,0.0,0.0,0.0,0.0,0.0,0.0,0.0,0.0,0.0,0.0,0.0,0.0,0.0,0.0,0.0,0.0,0.0,0.0,0.0,-2.5693,-2.5693,-2.5693,-2.5693,-2.5693,-2.5693,-2.5693,-2.5693,-2.5693,-2.5693,-2.5693,-2.5693,-2.5693,-2.5693,-2.5693,-2.5693,-2.5693,-2.5713,-2.6094,-2.6035,-2.5713,-2.6094,-2.6016,-2.5693,-2.5693,-2.5693,-2.5693,0.0,0.0,0.0,0.0,0.0,0.0,0.0,0.0,0.0,0.0,0.0,-2.3101,-2.3144,-2.3363,-2.3493,-2.3493,-2.3711,0.0,0.0,0.0,0.0,-2.4507,-2.4487,0.0,-2.4893,-2.4914,-2.5168,-2.5612,-2.5612,-2.5738,-2.5906,-2.5906,-2.5906,-2.595,-2.595,-2.5928,-2.5906,-2.5906,-2.5906,-2.5906,-2.5906,-2.5906,-2.5906,-2.5906,-2.5906,-2.5972,-2.6388,-2.654,-2.654,-2.654,-2.654,-2.6475,-2.6037,-2.5928,-2.595,0.0,0.0,0.0,0.0,0.0,0.0,0.0,0.0,0.0,0.0,0.0,0.0,0.0,0.0,0.0,0.0,0.0,0.0,0.0,0.0,0.0,0.0,0.0,0.0,0.0,0.0,0.0,0.0,0.0,0.0,0.0,0.0,0.0,-2.5693,-2.5693,-2.5693,-2.5693,-2.5693,-2.5693,-2.5693,-2.5693,-2.5693,-2.5693,-2.5693,-2.5693,-2.5693,-2.5693,-2.5693,-2.5693,-2.5693,-2.5693,-2.5693,-2.5713,-2.5713,-2.5693,-2.5713,-2.5713,-2.5693,-2.5693,-2.5693,-2.5693,0.0,0.0,0.0,0.0,0.0,0.0,0.0,0.0,0.0,0.0,0.0,0.0,0.0,-2.3188,-2.3232,-2.3232,-2.345,0.0,0.0,0.0,0.0,-2.4487,-2.4507,-2.4529,-2.4658,-2.4828,-2.4999,-2.5168,-2.5422,-2.5654,-2.5696,-2.5864,-2.5906,-2.5906,-2.5906,-2.5906,-2.5906,-2.5906,-2.5906,-2.5906,-2.5906,-2.5906,-2.5928,-2.6256,-2.6365,-2.6431,-2.6889,-2.7064,-2.7064,-2.7064,-2.6824,-2.6562,-2.6388,-2.6147,-2.5864,-2.5549,-2.5445,-2.5465,-2.5469,0.0,0.0,0.0,0.0,0.0,0.0,0.0,0.0,0.0,0.0,0.0,0.0,0.0,0.0,0.0,0.0,0.0,0.0,0.0,0.0,0.0,0.0,0.0,0.0,0.0,0.0,0.0,0.0,0.0,-2.5693,-2.5693,-2.5693,-2.5693,-2.5693,-2.5605,-2.5312,-2.5039,-2.4883,-2.4883,-2.4883,-2.4883,-2.4902,-2.5176,-2.5312,-2.5332,-2.5557,-2.5693,-2.5693,-2.5693,-2.5693,-2.5693,-2.5693,-2.5693,-2.5693,-2.5693,-2.5693,-2.5693,0.0,0.0,0.0,0.0,0.0,0.0,0.0,0.0,-2.353,-2.353,0.0,0.0,0.0,0.0,-2.3257,-2.3101,-2.3363,-2.3624,-2.3947,-2.412,-2.4249,-2.4378,-2.4444,-2.4507,-2.4507,-2.4658,-2.4828,-2.4914,-2.5211,-2.538,-2.5464,-2.5696,-2.5822,-2.5822,-2.5864,-2.5906,-2.5906,-2.5906,-2.5906,-2.5906,-2.5906,-2.5994,-2.619,-2.6453,-2.6693,-2.6889,-2.7392,-2.7522,-2.7522,-2.7522,-2.7304,-2.6998,-2.6693,-2.6299,-2.5822,-2.5338,-2.5189,-2.519,-2.501,-2.4962,0.0,0.0,0.0,0.0,0.0,0.0,0.0,0.0,0.0,0.0,0.0,0.0,0.0,0.0,0.0,0.0,0.0,0.0,0.0,0.0,0.0,0.0,0.0,0.0,0.0,0.0,0.0,0.0,-2.5693,-2.5586,-2.5449,-2.5408,-2.5436,-2.5393,-2.5078,-2.4802,-2.4644,-2.4644,-2.4644,-2.4644,-2.4664,-2.4913,-2.5063,-2.522,-2.5534,-2.5654,-2.5693,-2.5693,-2.5693,-2.5693,-2.5693,-2.5693,-2.5693,-2.5693,-2.5693,-2.5693,0.0,0.0,0.0,0.0,0.0,0.0,0.0,0.0,-2.4414,-2.4414,0.0,0.0,0.0,0.0,0.0,-2.3159,-2.3339,-2.3513,-2.3493,-2.3947,-2.4206,-2.4206,-2.4378,-2.4487,-2.4507,-2.4507,-2.4615,-2.4914,-2.4914,-2.4978,-2.5189,-2.5464,-2.5612,-2.5612,-2.5822,-2.5906,-2.5906,-2.5906,-2.5906,-2.5906,-2.5906,-2.619,-2.6584,-2.6606,-2.6889,-2.7392,-2.7849,-2.8023,-2.8023,-2.8023,-2.8002,-2.7827,-2.6889,-2.6299,-2.5822,-2.5338,-2.5189,-2.5126,0.0,0.0,0.0,0.0,0.0,0.0,0.0,0.0,0.0,0.0,0.0,0.0,0.0,0.0,0.0,0.0,0.0,0.0,0.0,0.0,0.0,0.0,0.0,0.0,0.0,0.0,0.0,0.0,0.0,0.0,-2.5703,-2.5341,-2.5004,-2.4822,-2.5011,-2.5083,-2.5083,-2.5083,-2.5083,-2.5083,-2.5083,-2.5083,-2.5083,-2.4854,-2.5,-2.5397,-2.5483,-2.5571,-2.5723,-2.5742,-2.5742,-2.5742,-2.5742,-2.5742,-2.5742,-2.5742,-2.5742,-2.5791,0.0,0.0,0.0,0.0,0.0,-2.4883,-2.4883,-2.4609,-2.4414,0.0,0.0,0.0,-2.4414,-2.4316,-2.4062,-2.3652,-2.3658,-2.3654,-2.3513,-2.3624,-2.3861,-2.4206,-2.4249,-2.4335,-2.4507,-2.4507,-2.4529,-2.4615,-2.4786,-2.4956,-2.4978,-2.5211,-2.5422,-2.5612,-2.5654,-2.578,-2.5906,-2.5906,-2.5906,-2.5906,-2.5906,-2.619,-2.6628,-2.6998,-2.7413,-2.7849,-2.8375,-2.8596,-2.8596,-2.8596,-2.8331,-2.7827,-2.6889,-2.6299,-2.5822,-2.5338,-2.5189,-2.5126,-2.4615,0.0,0.0,0.0,0.0,0.0,0.0,0.0,0.0,0.0,0.0,0.0,0.0,0.0,0.0,0.0,0.0,0.0,0.0,0.0,0.0,0.0,0.0,0.0,0.0,0.0,0.0,0.0,0.0,-2.5252,-2.5252,-2.5179,-2.5059,-2.5031,-2.4801,-2.4686,-2.4686,-2.4319,-2.4159,-2.4159,-2.4159,-2.4159,-2.4179,-2.4456,-2.4611,-2.4771,-2.5458,-2.5752,-2.5797,-2.6136,-2.6255,-2.6255,-2.6255,-2.6255,-2.6255,-2.6255,-2.6255,-2.6304,0.0,0.0,0.0,0.0,0.0,-2.5188,-2.5188,-2.5042,-2.4914,0.0,0.0,0.0,-2.4707,-2.4687,-2.4512,-2.4082,-2.3887,-2.3781,-2.3614,-2.3549,-2.3624,-2.3904,-2.412,-2.4249,-2.4378,-2.4464,-2.4507,-2.4507,-2.447,-2.4472,-2.4451,-2.4513,-2.4701,-2.5018,-2.5227,-2.546,-2.578,-2.5864,-2.5906,-2.5906,-2.5906,-2.6299,-2.6889,-2.7217,-2.7741,-2.8375,-2.8705,-2.8792,-2.8792,-2.8792,-2.844,-2.7871,-2.7107,-2.6583,-2.6084,-2.538,-2.5189,-2.5126,-2.4615,-2.4507,-2.4507,-2.4507,0.0,0.0,0.0,0.0,0.0,0.0,0.0,0.0,0.0,0.0,0.0,0.0,0.0,0.0,0.0,0.0,0.0,0.0,0.0,0.0,0.0,0.0,0.0,0.0,-2.5103,-2.5042,-2.4862,-2.4932,-2.4896,-2.4715,-2.4584,-2.4506,-2.4506,-2.4242,-2.41,-2.41,-2.41,-2.41,-2.412,-2.4297,-2.4476,-2.4678,-2.5204,-2.5629,-2.5993,-2.6398,-2.6526,-2.6496,-2.6496,-2.6496,-2.6496,-2.6496,-2.6496,-2.6496,0.0,0.0,-2.4892,-2.4873,-2.5088,-2.5284,-2.5284,-2.5479,-2.5693,0.0,-2.5693,-2.5538,-2.5243,-2.5184,-2.4961,-2.4531,-2.4141,-2.3887,-2.3789,-2.3614,-2.3509,-2.3493,-2.3904,-2.4163,-2.4206,-2.4378,-2.4466,-2.4425,-2.4074,-2.3846,-2.3826,-2.3574,-2.3676,-2.4136,0.0,0.0,-2.5484,-2.5759,0.0,-2.5864,-2.5906,-2.6474,0.0,0.0,-2.7916,-2.8792,-2.8792,-2.8792,-2.8792,-2.8792,-2.844,-2.7914,-2.7413,-2.6955,-2.6389,-2.5423,-2.5147,-2.5084,-2.4615,-2.4507,-2.4507,-2.4507,-2.4507,0.0,-2.4507,-2.4507,0.0,0.0,0.0,0.0,0.0,0.0,0.0,0.0,0.0,0.0,0.0,0.0,0.0,0.0,0.0,0.0,0.0,0.0,0.0,-2.5053,-2.5007,-2.4892,-2.4509,-2.4645,-2.4615,-2.4249,-2.4421,-2.4507,-2.4507,-2.4507,-2.4507,-2.4507,-2.4507,-2.4507,-2.4487,-2.4335,-2.441,-2.4778,-2.4904,-2.5374,-2.613,-2.6445,-2.6613,-2.6592,-2.6592,-2.6592,-2.6592,-2.6592,-2.6592,-2.664,0.0,-2.4578,-2.4627,-2.4892,-2.4941,-2.5039,-2.5284,-2.5333,-2.543,-2.5693,-2.5693,-2.5654,-2.5557,-2.5557,-2.543,-2.498,-2.491,-2.4531,-2.3828,-2.3756,-2.3693,-2.3513,-2.36,-2.3817,-2.4206,-2.4249,-2.4193,-2.4012,-2.3929,-2.3681,-2.3329,-2.3266,-2.3387,-2.3654,-2.4114,-2.449,-2.474,0.0,0.0,-2.5696,-2.5822,0.0,-2.7304,-2.7304,-2.7916,-2.8792,-2.8792,-2.8792,-2.8792,-2.8792,-2.844,-2.7914,-2.7235,-2.6736,-2.6174,-2.5211,-2.4956,-2.4914,-2.4572,-2.4507,-2.4507,-2.4507,-2.4507,0.0,-2.4507,-2.4507,0.0,0.0,0.0,0.0,0.0,0.0,0.0,0.0,0.0,0.0,0.0,0.0,0.0,0.0,0.0,0.0,0.0,0.0,0.0,-2.4666,-2.4625,-2.4584,-2.4502,-2.4545,-2.4504,-2.4464,-2.4507,-2.4507,-2.4507,-2.4507,-2.4507,-2.4507,-2.4507,-2.4507,-2.4507,-2.4464,-2.4463,-2.4566,-2.498,-2.5248,-2.5454,-2.6268,-2.6801,-2.7119,-2.7119,-2.7119,-2.7119,-2.7119,-2.7119,-2.7167,-2.435,-2.435,-2.4399,-2.4548,-2.4627,-2.4745,-2.4892,-2.5137,-2.541,-2.5789,-2.6151,-2.6317,-2.6317,-2.6191,-2.5977,-2.5742,-2.536,-2.493,-2.4453,-2.4023,-2.3736,-2.3654,-2.3525,-2.36,-2.3861,-2.3927,-2.3896,-2.37,-2.3474,-2.3165,-2.2832,-2.2604,-2.2704,-2.3012,-2.3362,-2.3799,-2.4365,0.0,-2.5208,-2.5422,-2.578,0.0,-2.7304,-2.7304,-2.7826,-2.8628,-2.8628,-2.8513,-2.842,-2.842,-2.8222,-2.7853,-2.7053,-2.6644,-2.6257,-2.521,-2.4914,-2.4828,-2.4572,-2.4507,-2.4507,-2.4507,-2.4507,0.0,0.0,-2.4219,0.0,0.0,0.0,0.0,0.0,0.0,0.0,0.0,0.0,0.0,0.0,0.0,0.0,0.0,0.0,0.0,0.0,0.0,-2.4115,-2.3888,-2.3867,-2.3867,-2.3867,-2.3867,-2.3867,-2.3867,-2.3867,-2.3867,-2.3867,-2.4095,-2.4219,-2.4219,-2.4383,-2.4507,-2.4507,-2.4507,-2.4507,-2.4507,-2.4735,-2.4983,-2.523,-2.5709,-2.631,-2.6978,-2.7226,-2.7309,-2.7309,-2.7309,-2.7309,-2.7309,-2.4202,-2.4202,-2.4202,-2.4202,-2.435,-2.443,-2.448,-2.4949,-2.5454,-2.6045,-2.6645,-2.7012,-2.7012,-2.6719,-2.6504,-2.6504,-2.5781,-2.5341,-2.5195,-2.4473,-2.3965,-2.3789,-2.3634,-2.3549,-2.3493,-2.3667,-2.3579,-2.3307,-2.2982,-2.2654,-2.2317,-2.1945,-2.2004,-2.2377,-2.2655,-2.3196,-2.4032,0.0,0.0,-2.5211,0.0,-2.628,-2.7063,-2.715,-2.758,-2.8219,-2.8305,-2.8186,-2.7998,-2.7998,-2.7998,-2.7828,-2.6868,-2.6525,-2.6311,-2.5144,-2.4828,-2.4786,-2.455,-2.4507,-2.4507,-2.4507,-2.4425,-2.4322,0.0,0.0,0.0,0.0,0.0,0.0,0.0,0.0,0.0,0.0,0.0,0.0,0.0,0.0,0.0,0.0,0.0,0.0,0.0,0.0,0.0,-2.3184,-2.3184,-2.3184,-2.3184,-2.3184,-2.3184,-2.3184,-2.3184,-2.3184,-2.3184,-2.3598,-2.3784,-2.3743,-2.4198,-2.4363,-2.4383,-2.4466,-2.4507,-2.4507,-2.4507,-2.4714,-2.5065,-2.5148,-2.5668,-2.6418,-2.6957,-2.7226,-2.7309,-2.7309,-2.7309,-2.7309,-2.4202,-2.4202,-2.4202,-2.4202,-2.4202,-2.4301,-2.448,-2.4827,-2.5471,-2.6417,-2.682,-2.7012,-2.7012,-2.6973,-2.6953,-2.6953,-2.6523,-2.6074,-2.5635,-2.5195,-2.4636,-2.3828,-2.3795,-2.3668,-2.3513,-2.3493,-2.3225,-2.2593,-2.2757,-2.241,-2.1632,-2.1762,-2.1838,-2.1901,-2.2353,0.0,0.0,0.0,-2.4493,0.0,-2.5189,-2.5594,0.0,-2.6533,-2.6979,-2.7469,-2.7896,-2.8045,-2.7998,0.0,-2.7998,-2.7781,0.0,-2.6346,-2.6088,-2.4885,-2.455,-2.4529,-2.4487,-2.4507,-2.4507,-2.4507,-2.424,-2.395,0.0,0.0,-2.3143,0.0,0.0,0.0,0.0,0.0,0.0,0.0,0.0,0.0,0.0,0.0,0.0,0.0,0.0,0.0,0.0,0.0,0.0,0.0,-2.3184,-2.3184,-2.3184,-2.3184,-2.3184,-2.3184,-2.3184,-2.3184,-2.3184,-2.3246,-2.3267,-2.3267,-2.3743,-2.395,-2.3971,-2.4321,-2.4507,-2.4507,-2.4507,-2.4528,-2.4611,-2.5024,-2.5251,-2.5461,-2.631,-2.6936,-2.7309,-2.7309,-2.7309,-2.7309,-2.4202,-2.4202,-2.4202,-2.4202,-2.4202,-2.4343,-2.4633,-2.5358,-2.6135,-2.6825,-2.7265,-2.7596,-2.7754,-2.7539,-2.7402,-2.7402,-2.6992,-2.668,-2.6484,-2.584,-2.5293,-2.4941,-2.4199,-2.3756,-2.3668,-2.3413,-2.3067,-2.2645,-2.253,-2.2211,-2.1685,-2.1635,-2.1627,-2.1627,-2.1927,0.0,-2.3205,0.0,-2.4054,0.0,0.0,0.0,0.0,-2.5888,-2.6568,-2.7154,-2.7159,-2.7343,-2.7573,0.0,-2.7573,0.0,0.0,0.0,0.0,-2.4799,-2.4507,-2.4507,-2.4507,-2.4507,0.0,0.0,0.0,0.0,-2.3536,0.0,-2.2646,0.0,0.0,0.0,0.0,0.0,0.0,0.0,0.0,0.0,0.0,0.0,0.0,0.0,0.0,0.0,0.0,0.0,0.0,0.0,0.0,-2.2108,-2.2377,-2.2377,-2.2377,-2.2377,-2.2377,-2.2377,-2.2377,-2.2646,-2.2791,-2.2791,-2.3577,-2.3929,-2.3888,-2.4343,-2.4507,-2.4507,-2.4507,-2.4507,-2.4507,-2.4714,-2.4941,-2.5251,-2.5916,-2.6501,-2.6936,-2.7206,-2.7309,-2.7309,-2.4202,-2.4202,-2.4202,-2.4202,-2.4293,-2.4551,-2.5084,-2.5863,-2.6589,-2.7107,-2.7649,-2.8134,-2.8315,-2.8247,-2.8237,-2.8237,-2.7676,-2.7363,-2.7363,-2.6562,-2.5927,-2.5693,-2.4824,-2.416,-2.3789,-2.3477,-2.309,-2.2712,-2.2381,-2.2008,-2.173,-2.1523,-2.1436,-2.1436,0.0,-2.2237,-2.3103,0.0,-2.3701,-2.4507,-2.4507,-2.4507,-2.4592,-2.5396,-2.6112,-2.6668,-2.6484,-2.6646,-2.6936,-2.6936,-2.6936,0.0,-2.5958,0.0,-2.5544,0.0,-2.4507,-2.4507,-2.4507,0.0,0.0,0.0,0.0,0.0,0.0,0.0,0.0,0.0,0.0,0.0,0.0,0.0,-2.1114,-2.1114,0.0,0.0,0.0,0.0,0.0,0.0,0.0,0.0,0.0,0.0,0.0,0.0,-2.0928,0.0,-2.1404,-2.1549,-2.1611,-2.1611,-2.1735,-2.1797,-2.1797,-2.2149,-2.2315,-2.2315,-2.3122,-2.3557,-2.3701,-2.4157,-2.4383,-2.4507,-2.4507,-2.4507,-2.4507,-2.4507,-2.4693,-2.5044,-2.5523,-2.5978,-2.6501,-2.7081,-2.7309,-2.7309,-2.4202,-2.4202,-2.4202,-2.4202,-2.4532,-2.5084,-2.5855,-2.6215,-2.6523,-2.6969,-2.7891,-2.8487,-2.8487,-2.9111,-2.9567,-2.9567,-2.873,-2.8262,-2.8262,-2.7441,-2.6602,-2.5732,-2.5654,-2.5031,-2.3828,-2.3769,-2.3359,-2.2519,-2.2298,-2.1987,-2.1491,-2.129,-2.1205,-2.1205,-2.1436,-2.2022,-2.292,-2.3103,-2.3701,-2.4507,-2.4507,-2.4507,-2.4549,0.0,-2.5502,-2.5941,-2.5941,0.0,0.0,-2.5916,-2.5916,0.0,0.0,0.0,0.0,0.0,0.0,0.0,0.0,0.0,0.0,-2.4507,0.0,0.0,0.0,0.0,-2.1818,0.0,0.0,0.0,-2.1797,-2.1424,-2.1114,-2.1114,-2.0369,0.0,0.0,0.0,0.0,0.0,0.0,0.0,0.0,0.0,0.0,0.0,-2.0416,0.0,-2.0436,-2.0886,-2.1135,-2.1135,-2.1569,-2.1797,-2.1797,-2.1818,-2.1838,-2.1838,-2.2315,-2.277,-2.3225,-2.3681,-2.4136,-2.4507,-2.4507,-2.4507,-2.4507,-2.4507,-2.4507,-2.4569,-2.5024,-2.5523,-2.5999,-2.6978,-2.7309,-2.7309,-2.4257,-2.4422,-2.4532,-2.4257,-2.4551,-2.5051,-2.5892,-2.6534,0.0,0.0,-2.7939,0.0,-2.8539,-2.8989,-2.929,-2.929,-2.9186,-2.9023,-2.873,-2.8164,-2.7617,-2.7031,-2.6191,-2.5479,-2.5098,-2.4238,-2.3652,-2.3359,-2.2722,-2.2154,-2.1783,-2.1491,-2.1252,-2.1012,-2.1205,-2.1806,0.0,0.0,0.0,0.0,0.0,-2.4507,-2.4507,0.0,0.0,-2.5461,-2.5461,-2.5627,0.0,-2.5875,-2.5875,-2.5792,-2.5378,-2.5189,-2.5106,-2.4631,-2.4507,0.0,0.0,0.0,-2.4507,-2.4507,0.0,0.0,0.0,0.0,0.0,0.0,0.0,0.0,-2.1404,-2.0932,-2.0555,-2.0265,-1.9741,-1.9222,0.0,-1.8319,0.0,0.0,0.0,0.0,0.0,0.0,0.0,-1.9969,-1.9975,0.0,0.0,-2.054,-2.0767,-2.1093,-2.1259,-2.1507,-2.1797,-2.1797,-2.1797,-2.1818,-2.2273,-2.2749,-2.3205,-2.3701,-2.4115,-2.4507,-2.4507,-2.4507,-2.4507,-2.4507,-2.4507,-2.4549,-2.5003,-2.5272,-2.5564,-2.6521,-2.704,-2.7309,-2.4698,-2.4863,-2.4918,-2.4496,-2.4882,0.0,0.0,0.0,0.0,0.0,-2.8051,0.0,-2.8671,0.0,-2.9413,-2.9413,-2.9563,-2.9519,-2.9228,-2.8793,-2.832,-2.791,-2.6953,-2.6211,-2.5693,-2.4922,-2.4258,-2.3789,-2.3086,-2.2519,-2.209,-2.1626,-2.1253,-2.1017,-2.1212,-2.173,-2.241,0.0,-2.3407,0.0,0.0,-2.4378,0.0,0.0,-2.4693,0.0,0.0,-2.5171,-2.5399,-2.5399,-2.5399,-2.5357,-2.5024,-2.4941,-2.4879,-2.459,-2.4507,-2.4507,-2.4507,-2.4507,0.0,-2.4507,-2.3867,0.0,-2.3184,0.0,0.0,0.0,0.0,0.0,-2.1197,-2.0705,-2.0286,-1.9865,-1.9264,-1.8642,0.0,-1.7626,0.0,0.0,0.0,0.0,0.0,0.0,-1.8464,-1.9243,-1.9305,-1.9492,0.0,0.0,-2.0327,-2.0617,-2.0948,-2.1259,-2.1549,-2.1735,-2.1797,-2.1818,-2.2108,-2.2501,-2.2956,-2.3412,-2.3867,-2.4259,-2.4425,-2.4507,-2.4507,-2.4507,-2.4507,-2.4528,-2.4817,-2.5044,-2.5292,-2.6227,-2.6915,-2.7309,-2.5381,-2.5433,-2.5289,0.0,-2.5561,0.0,0.0,0.0,-2.7233,0.0,-2.814,-2.8795,-2.8832,-2.9479,-2.9901,-2.9901,-2.9891,-2.9815,-2.9776,-2.923,-2.8735,-2.8286,-2.791,-2.7109,-2.5771,-2.5713,-2.507,-2.3828,-2.3443,-2.2969,-2.25,-2.1639,-2.1229,-2.119,-2.141,0.0,-2.2244,-2.287,-2.3396,-2.3841,-2.4077,-2.4163,-2.4206,-2.4421,0.0,-2.4507,-2.4507,-2.4507,-2.4507,-2.4507,-2.4507,-2.4507,-2.4507,-2.4507,-2.4507,-2.4507,-2.4507,-2.4507,-2.4507,-2.4507,-2.4487,-2.4466,0.0,0.0,0.0,0.0,-2.1797,0.0,0.0,0.0,0.0,-2.0684,-2.0265,-1.9844,-1.8994,-1.805,-1.713,-1.6986,-1.682,0.0,0.0,0.0,0.0,-1.7668,-1.7854,-1.8319,-1.8393,-1.86,0.0,0.0,0.0,-1.9803,-2.0596,-2.1073,-2.1114,-2.1549,-2.1776,-2.1797,-2.1797,-2.2045,-2.2522,-2.2977,-2.3432,-2.3908,-2.4343,-2.4507,-2.4507,-2.4507,-2.4507,-2.4507,-2.4507,-2.4776,-2.5337,-2.6293,-2.6895,-2.7315,-2.5436,-2.5653,-2.6021,0.0,-2.6481,-2.6554,0.0,0.0,0.0,0.0,-2.8575,-2.9057,-2.9352,-2.9781,-3.0036,-3.0036,-3.0222,0.0,0.0,-2.9279,-2.8878,-2.8134,-2.7714,-2.7151,-2.6396,-2.5709,-2.4996,-2.4258,-2.3828,-2.3242,-2.25,-2.2285,-2.1795,-2.121,0.0,0.0,-2.2038,-2.2681,-2.3288,-2.3797,-2.3884,-2.3884,0.0,0.0,-2.4292,-2.4292,-2.4464,-2.4507,-2.4507,-2.4507,-2.4507,-2.4507,-2.4507,-2.4507,-2.4507,-2.4507,-2.4507,-2.4507,-2.4507,-2.4507,-2.4425,-2.4136,-2.3619,-2.3101,0.0,0.0,0.0,0.0,0.0,0.0,0.0,0.0,-2.0162,-1.9409,-1.8485,-1.7668,-1.7089,-1.6738,0.0,-1.6423,0.0,0.0,0.0,-1.7192,-1.7378,-1.7833,-1.8195,0.0,0.0,0.0,0.0,0.0,-2.0031,-2.0431,-2.1114,-2.1238,-2.1466,-2.1797,-2.1797,-2.2045,-2.2522,-2.2977,-2.3432,-2.3908,-2.4343,-2.4507,-2.4507,-2.4507,-2.4507,-2.4507,-2.4507,-2.4906,-2.5581,-2.6567,-2.6987,-2.7133,-2.5896,-2.6278,0.0,-2.7381,0.0,0.0,-2.7435,0.0,0.0,-2.8627,-2.8993,0.0,-2.98,-3.0039,-3.0161,-3.0161,-3.0237,0.0,-2.9667,0.0,-2.9013,-2.835,-2.7914,-2.7362,-2.6683,-2.6015,-2.5418,-2.4791,-2.4171,-2.3641,-2.3066,-2.2695,-2.2266,-2.1756,0.0,-2.2168,0.0,-2.2745,-2.3189,-2.3493,-2.3624,0.0,0.0,-2.3927,-2.412,-2.4206,-2.4335,-2.4421,-2.4507,-2.4507,-2.4507,-2.4507,-2.4507,-2.4507,-2.4507,-2.4507,-2.4507,-2.4507,-2.4507,-2.4507,-2.4383,-2.3991,-2.3536,-2.306,-2.2604,-2.2149,-2.1797,0.0,0.0,0.0,0.0,0.0,-2.0058,-1.8973,-1.8195,-1.7544,-1.7068,-1.6663,0.0,0.0,-1.6402,0.0,0.0,0.0,0.0,0.0,0.0,0.0,0.0,0.0,0.0,0.0,-1.9679,-2.0135,-2.0803,-2.101,-2.1342,-2.1797,-2.1797,-2.1942,-2.2211,-2.2894,-2.3329,-2.3619,-2.4218,-2.4507,-2.4507,-2.4507,-2.4507,-2.4487,-2.4615,-2.4996,-2.5506,-2.64,-2.6886,-2.7218,-2.6683,-2.7013,0.0,0.0,0.0,0.0,0.0,-2.8315,0.0,-2.9012,0.0,-2.9819,-3.0241,-3.0277,-3.0277,-3.0277,0.0,-3.0079,-3.0023,-2.9533,-2.9087,-2.8653,-2.8238,-2.7635,-2.6858,-2.6366,-2.5876,-2.5235,-2.4373,-2.3878,-2.368,-2.2882,-2.2516,-2.2477,0.0,0.0,0.0,-2.2945,-2.3101,0.0,-2.3363,-2.3489,-2.3549,-2.3747,-2.4005,-2.4283,-2.4265,-2.4376,-2.4507,-2.4507,-2.4507,-2.4507,-2.4507,-2.4507,-2.4487,-2.4464,-2.4464,-2.4444,-2.4339,-2.4318,-2.4195,-2.3742,-2.3309,-2.2897,-2.2462,-2.2048,-2.1759,-2.1797,-2.1797,0.0,0.0,0.0,-1.9831,-1.8621,-1.8009,-1.7544,0.0,0.0,0.0,0.0,0.0,0.0,0.0,0.0,0.0,0.0,0.0,0.0,0.0,0.0,0.0,0.0,-1.9471,0.0,-2.0374,0.0,-2.128,-2.1797,-2.1797,-2.1797,-2.1838,-2.2708,-2.3122,-2.3246,-2.4095,-2.4445,-2.4507,-2.4529,-2.4572,-2.4615,-2.4914,-2.5126,-2.5338,-2.6066,-2.6711,-2.7302,-2.7506,-2.7675,0.0,0.0,0.0,-2.8957,-2.9214,-2.9324,-2.9397,-2.9452,-2.9837,-3.0241,-3.0644,-3.0681,-3.0681,-3.0681,-3.0394,0.0,0.0,0.0,0.0,-2.8471,-2.8046,-2.7549,-2.695,-2.6274,-2.5571,-2.499,-2.4136,-2.3556,-2.3119,-2.2865,-2.2549,-2.2283,0.0,0.0,-2.2984,-2.3062,0.0,-2.3101,-2.3144,-2.3403,-2.3761,-2.3984,-2.4292,-2.4706,-2.4702,-2.46,-2.4507,-2.4507,-2.4507,-2.4507,-2.4507,-2.4507,-2.4464,-2.4292,-2.4249,-2.4125,-2.3588,-2.3444,-2.3242,-2.2433,-2.217,-2.2028,-2.1737,-2.1612,-2.1627,-2.1759,-2.1797,-2.1528,-2.056,0.0,0.0,-1.8517,-1.8009,-1.7544,0.0,0.0,0.0,0.0,0.0,0.0,0.0,0.0,0.0,0.0,0.0,0.0,0.0,0.0,0.0,0.0,0.0,0.0,0.0,0.0,0.0,-2.1797,-2.1797,-2.1797,-2.1818,-2.2377,-2.2832,-2.3225,-2.3764,-2.4198,-2.4507,-2.4743,-2.4956,-2.5126,-2.538,-2.5528,-2.5613,-2.6324,-2.6606,-2.6867,-2.7752,0.0,-2.8535,0.0,0.0,0.0,0.0,-3.0075,0.0,-3.0204,-3.0387,-3.0662,-3.1047,-3.1102,-3.1102,-3.1102,-3.0552,-3.0112,-2.991,-2.9324,-2.881,-2.8407,-2.7985,-2.7602,-2.7105,-2.6106,-2.554,-2.5402,-2.4331,-2.3645,-2.3369,-2.3043,-2.2669,-2.2331,0.0,-2.2925,0.0,0.0,0.0,-2.312,-2.3379,-2.3594,-2.3809,-2.4114,-2.4467,-2.4828,-2.4791,-2.4743,-2.4643,-2.4526,-2.4507,-2.4507,-2.4507,-2.4421,-2.4335,-2.4249,-2.3957,-2.3586,-2.3299,-2.3036,-2.2755,-2.209,-2.1909,-2.1847,-2.1576,-2.1512,-2.155,-2.178,-2.1797,-2.1528,-2.056,-1.9686,0.0,0.0,0.0,0.0,0.0,0.0,-1.6643,0.0,0.0,0.0,0.0,0.0,0.0,0.0,0.0,0.0,0.0,0.0,0.0,0.0,0.0,0.0,0.0,0.0,0.0,-2.1797,-2.1797,-2.1797,-2.1818,-2.2294,-2.2749,-2.3205,-2.3805,-2.4304,-2.4743,-2.4956,-2.5211,-2.5422,-2.557,-2.5654,-2.5802,-2.6126,-2.6409,-2.6715,-2.8043,-2.8719,0.0,0.0,-3.0057,0.0,-3.0332,-3.0662,-3.0882,-3.0791,-3.0864,-3.1029,-3.1341,-3.1377,-3.1377,-3.1377,-3.0662,-3.0204,-3.0204,-2.9434,-2.8847,-2.8535,-2.804,-2.7675,-2.7306,-2.6168,-2.5611,-2.5693,-2.4542,-2.3858,-2.3664,-2.3156,-2.273,0.0,0.0,0.0,0.0,0.0,-2.3149,-2.3232,-2.3705,-2.3984,-2.4102,-2.4434,-2.4702,-2.4987,-2.4934,-2.4891,-2.4832,-2.4623,-2.4526,-2.4507,-2.4507,-2.4378,-2.4206,-2.412,-2.3624,-2.3092,-2.295,-2.261,-2.217,-2.173,-2.161,-2.1569,-2.1401,-2.1397,-2.1512,-2.1683,-2.1614,-2.1259,-2.0431,-1.9624,0.0,0.0,0.0,0.0,0.0,0.0,0.0,0.0,0.0,0.0,0.0,0.0,0.0,0.0,0.0,0.0,0.0,0.0,0.0,0.0,0.0,0.0,-2.0446,0.0,-2.0959,0.0,-2.1911,-2.1911,-2.1932,-2.2306,-2.2723,-2.3221,-2.3843,-2.4492,-2.5084,-2.5211,-2.5422,-2.5654,-2.5654,-2.578,-2.5906,-2.5906,-2.6147,-2.6562,0.0,0.0,0.0,0.0,0.0,0.0,0.0,-3.1066,-3.1194,-3.0846,-3.1102,-3.1341,-3.1377,-3.1377,-3.1377,-3.1377,-3.0662,-3.0204,-3.0204,-2.9434,-2.8975,-2.8938,-2.8187,-2.7803,-2.7767,-2.6572,-2.5782,0.0,0.0,-2.3944,-2.3522,-2.2964,0.0,0.0,0.0,0.0,0.0,-2.3108,-2.3352,-2.3435,-2.4088,-2.459,-2.4988,-2.5047,-2.5254,-2.5615,-2.5421,-2.5239,-2.5028,-2.4852,-2.4664,-2.4507,-2.4507,-2.4378,-2.4163,-2.3884,-2.341,-2.278,-2.2176,-2.1662,-2.1231,-2.082,-2.0703,-2.0781,-2.0916,-2.1089,-2.1282,-2.1512,-2.0987,-2.041,-1.9948,-1.945,-1.9098,0.0,0.0,0.0,0.0,0.0,-1.6841,-1.6464,0.0,0.0,0.0,0.0,0.0,0.0,0.0,0.0,0.0,0.0,0.0,0.0,0.0,-1.9601,-2.0659,-2.0659,0.0,-2.2327,-2.2327,-2.2327,-2.2327,-2.237,-2.2645,-2.3133,-2.3639,-2.4484,-2.5528,-2.5549,-2.5696,-2.5864,-2.5864,-2.5906,-2.5906,-2.5906,-2.5928,-2.6037,0.0,0.0,0.0,0.0,0.0,0.0,0.0,-3.1267,-3.1322,-3.1157,-3.1286,-3.1377,-3.1377,-3.1377,-3.1377,-3.1377,-3.0662,-3.0204,-3.0204,-2.9434,-2.8975,-2.8975,-2.8263,-2.7822,-2.7822,-2.6627,-2.5819,0.0,0.0,-2.4189,-2.3499,-2.3312,0.0,0.0,0.0,-2.2924,-2.2989,-2.3388,-2.3675,-2.3832,-2.4368,-2.478,-2.5145,-2.5371,-2.5586,-2.5684,-2.533,-2.5066,-2.486,-2.4511,-2.4422,-2.4507,-2.4507,-2.4229,-2.3887,-2.3519,-2.2904,-2.2176,-2.1621,-2.1172,-2.0781,-2.0644,-2.0605,-2.0644,-2.0858,-2.0851,-2.084,-2.1029,-2.0514,-2.001,-1.9824,-1.9409,-1.9098,0.0,0.0,0.0,0.0,0.0,0.0,-1.68,0.0,-1.6402,0.0,0.0,0.0,0.0,0.0,0.0,0.0,0.0,0.0,-1.7709,0.0,-1.9601,-2.0694,-2.0694,-2.1286,-2.2402,-2.2402,-2.2402,-2.2402,-2.2402,-2.2883,-2.3788,-2.4221,-2.4923,-2.578,-2.578,-2.5822,-2.5906,-2.5906,-2.5906,-2.5906,-2.5906,-2.5906,-2.5972,-2.8881,0.0,-3.0209,0.0,-3.0763,-3.112,-3.1249,-3.1249,-3.1313,-3.1377,-3.1377,-3.1377,-3.1377,-3.1377,-3.1377,-3.1377,-3.0662,-3.0204,-3.0204,-2.9434,-2.8975,-2.8975,-2.8263,0.0,-2.7822,-2.6756,-2.6002,-2.5598,-2.5142,0.0,-2.3895,0.0,0.0,0.0,-2.3101,-2.3195,-2.3195,-2.3608,-2.3834,-2.4041,-2.4622,-2.4986,-2.5197,-2.5577,-2.5693,-2.5635,-2.5234,-2.4972,-2.4742,-2.4241,-2.4203,-2.4272,-2.4272,-2.4013,-2.3631,-2.3233,-2.2562,-2.1797,-2.1307,-2.0898,-2.0605,-2.0605,-2.0507,-2.041,-2.0583,-2.0436,-2.0337,-2.0487,-2.0133,-1.9761,-1.9616,-1.9326,-1.9098,0.0,0.0,0.0,0.0,0.0,0.0,0.0,-1.6643,-1.6402,-1.6402,0.0,0.0,0.0,0.0,0.0,0.0,0.0,0.0,0.0,0.0,0.0,0.0,0.0,-2.143,-2.259,-2.259,-2.259,-2.259,-2.259,-2.3182,-2.4306,-2.4613,-2.5153,-2.5906,-2.5906,-2.5906,-2.5906,-2.5906,-2.5906,-2.5906,-2.5906,-2.5906,-2.595,-2.92,-2.9561,-2.9952,-3.0296,-3.0443,-3.0508,-3.0879,-3.0879,-3.1009,-3.1377,-3.1377,-3.1377,-3.1377,-3.1377,-3.1377,-3.1377,-3.0662,-3.0204,-3.0204,-2.9434,-2.8975,0.0,0.0,-2.7822,-2.7822,-2.6995,-2.6371,-2.6002,0.0,0.0,-2.4757,0.0,-2.3279,-2.2913,-2.2913,-2.2913,-2.2931,-2.3621,-2.3884,-2.397,-2.4917,-2.5284,-2.5333,-2.5596,-2.5693,-2.5635,-2.5234,-2.4972,-2.4742,-2.4241,-2.3983,-2.3797,-2.3797,-2.3667,-2.3414,-2.304,-2.2436,-2.1797,-2.1307,-2.0898,-2.0605,-2.0605,-2.0234,-1.9922,-1.9922,-1.9905,-1.9884,-1.9837,-1.9803,-1.9658,-1.9202,-1.9098,-1.9098,-1.9098,0.0,0.0,0.0,0.0,0.0,-1.7068,-1.6643,-1.6402,-1.6402,0.0,0.0,0.0,0.0,0.0,0.0,0.0,0.0,-1.8393,-1.8968,0.0,-2.0977,-2.1196,-2.1847,-2.3001,-2.3001,-2.3001,-2.3001,-2.3001,-2.3547,-2.4486,-2.4486,-2.5033,-2.5906,-2.5906,-2.5906,-2.5906,-2.5906,-2.5906,-2.5906,-2.5906,-2.5906,-2.5906,-2.9275,-2.954,-2.9822,-2.9952,-3.023,-3.0443,-3.0555,-3.0555,-3.062,-3.0685,-3.0944,-3.1055,-3.1055,-3.1249,-3.1267,0.0,-3.0497,-3.0075,0.0,-2.9269,-2.8975,-2.8975,-2.8263,-2.7822,-2.7822,-2.6995,-2.6389,-2.6021,0.0,0.0,0.0,-2.4519,-2.417,-2.3767,-2.3767,-2.3767,-2.3785,-2.3993,-2.4196,-2.4361,-2.462,-2.499,-2.5284,-2.5382,-2.5528,-2.5596,-2.4883,-2.4578,-2.4408,-2.3683,-2.3393,-2.3319,-2.3319,-2.3209,-2.2978,-2.2542,-2.1942,-2.1348,-2.0898,-2.0703,-2.0527,-2.0195,-2.0019,-1.9844,-1.9551,-1.9449,-1.9364,-1.9158,-1.9225,-1.9285,-1.9139,-1.9098,-1.9098,-1.9098,0.0,0.0,0.0,0.0,0.0,0.0,-1.7089,-1.6705,0.0,-1.6402,0.0,0.0,0.0,0.0,0.0,0.0,0.0,0.0,-1.8903,0.0,-2.0977,-2.1069,-2.1754,-2.3001,-2.3001,-2.3001,-2.3001,-2.3001,-2.3547,-2.4486,-2.4486,-2.5033,-2.5906,-2.5906,-2.5906,-2.5906,-2.5906,-2.5906,-2.5906,-2.5906,-2.5906,-2.5906,-2.9316,-2.9495,-2.9626,-2.9626,-2.9839,-3.0035,-3.0165,-3.0165,-3.023,-3.0378,-3.0555,-3.0685,-3.0685,-3.0879,0.0,-3.0827,-3.0424,-3.002,-2.9659,-2.9195,-2.8975,-2.8975,-2.8263,-2.7822,-2.7822,0.0,0.0,-2.6241,-2.6094,-2.569,-2.4996,-2.4849,-2.4698,-2.444,-2.4275,-2.4202,-2.4202,-2.4202,-2.4251,-2.4381,-2.448,-2.4677,-2.5039,-2.5235,-2.5285,-2.5266,-2.4621,-2.4316,-2.4062,-2.3335,-2.3101,-2.3101,-2.3101,-2.284,-2.2478,-2.216,-2.1663,-2.1093,-2.0723,-2.0605,-2.0507,-2.0019,-1.9805,-1.9531,-1.9053,-1.8909,-1.8926,-1.8825,-1.8965,-1.9098,-1.9098,-1.9098,-1.9098,-1.9098,0.0,-1.9098,-1.9098,0.0,0.0,0.0,0.0,0.0,0.0,-1.6726,0.0,0.0,0.0,0.0,0.0,0.0,0.0,-1.8662,-1.9152,0.0,-2.0977,-2.1254,-2.1927,-2.3001,-2.3001,-2.3001,-2.3001,-2.3001,-2.3438,-2.4203,-2.4399,-2.4923,-2.5644,-2.5819,-2.5906,-2.5906,-2.5906,-2.5906,-2.5906,-2.5906,-2.5906,-2.5906,-2.9316,-2.9316,0.0,0.0,-2.9316,0.0,-2.9757,-2.9757,-2.9887,-3.023,-3.0378,-3.0378,-3.0378,-3.0378,-3.0459,-3.0664,0.0,0.0,0.0,-2.9135,-2.8916,-2.8916,-2.8205,0.0,-2.7765,-2.6995,-2.6591,-2.6591,-2.6241,-2.5855,-2.5451,-2.5032,-2.4831,-2.4757,-2.4422,-2.4238,-2.4202,-2.4202,-2.4202,-2.4202,-2.4381,-2.448,-2.4529,-2.5039,-2.5034,-2.466,-2.445,-2.4141,-2.373,-2.3237,-2.3101,-2.3101,-2.3101,-2.2559,-2.1894,-2.1894,-2.1562,-2.1094,-2.0723,-2.0605,-2.0488,-1.998,-1.9531,-1.9056,-1.8424,-1.8381,-1.8549,-1.8751,-1.8931,-1.9065,-1.9098,-1.9098,-1.9098,-1.9098,-1.9098,-1.9098,-1.9098,0.0,0.0,0.0,0.0,0.0,0.0,-1.7316,-1.7234,0.0,0.0,0.0,0.0,0.0,0.0,-1.9098,-1.969,-2.0323,-2.0977,-2.1625,-2.2338,-2.3001,-2.3001,-2.3001,-2.3001,-2.3001,-2.3263,-2.3727,-2.4268,-2.4749,-2.5248,-2.571,-2.5906,-2.5906,-2.5906,-2.5906,-2.5906,-2.5906,-2.5906,-2.5906,0.0,0.0,-2.9316,-2.9316,-2.9316,-2.9316,-2.9447,-2.943,-2.9447,-2.9578,-2.9757,-2.9952,-2.9952,-3.023,-3.0159,-2.9654,-2.9493,-2.9154,-2.8438,-2.8313,-2.8259,-2.8259,-2.7683,-2.7441,-2.7441,-2.6884,-2.6591,-2.6591,-2.6481,-2.6224,-2.5874,-2.5782,-2.5414,-2.4776,-2.4684,-2.4496,-2.4202,-2.4202,-2.4202,-2.4202,-2.4251,-2.4332,-2.4529,-2.4627,-2.4676,-2.466,-2.4245,-2.3958,-2.373,-2.3237,-2.3101,-2.3101,-2.3101,-2.2559,-2.1894,-2.1894,-2.1328,-2.0742,-2.0625,-2.0605,-2.0429,-1.9629,-1.8867,-1.8262,-1.8115,-1.8212,-1.8381,-1.8549,-1.8751,-1.8898,-1.9065,-1.9098,-1.9098,-1.9098,-1.9098,-1.9098,-1.9098,0.0,0.0,0.0,-1.8195,-1.7968,-1.773,-1.7606,-1.7585,0.0,0.0,0.0,0.0,0.0,-1.8994,-1.9098,-1.9588,-2.0219,-2.0977,-2.1517,-2.2192,-2.3001,-2.3001,-2.3001,-2.3001,-2.3001,-2.3263,-2.3727,-2.4268,-2.4749,-2.5248,-2.571,-2.5906,-2.5906,-2.5906,-2.5906,-2.5906,-2.5906,-2.5906,-2.5906,-2.9316,-2.9316,-2.9316,-2.9316,-2.9316,-2.9316,-2.9316,-2.9316,-2.9316,-2.9316,-2.943,-2.9561,-2.9561,-2.9618,-2.9416,-2.8804,-2.9002,-2.8871,-2.8073,-2.802,-2.802,-2.802,-2.757,-2.7276,-2.7097,-2.6675,-2.6444,-2.6354,-2.6537,-2.6481,-2.6296,-2.6094,-2.569,-2.5051,-2.4867,-2.4606,-2.4202,-2.4202,-2.4202,-2.4202,-2.4202,-2.4251,-2.4381,-2.448,-2.432,-2.406,-2.3907,-2.3659,-2.3279,-2.3047,-2.3013,-2.3062,-2.2867,-2.2402,-2.1855,-2.1641,-2.1094,-2.0605,-2.0605,-2.0605,-2.039,-1.9512,-1.8633,-1.8008,-1.8008,-1.8178,-1.8313,-1.8381,-1.8549,-1.8717,-1.8952,-1.8965,-1.8998,-1.9098,-1.9098,-1.9098,-1.9098,-1.9098,0.0,-1.8766,-1.8538,-1.8361,-1.834,-1.8154,-1.8112,-1.8319,0.0,0.0,-1.8725,-1.8973,-1.9098,-1.9098,-1.9706,-2.0323,-2.0871,-2.1716,-2.2444,-2.3001,-2.3001,-2.3001,-2.3001,-2.3001,-2.3154,-2.3438,-2.4159,-2.4639,-2.4902,-2.5622,-2.5906,-2.5906,-2.5906,-2.5906,-2.5906,-2.5906,-2.5906,-2.5906,-2.9316,-2.9316,-2.9316,-2.9316,-2.9316,-2.9316,-2.9316,-2.9316,-2.9316,-2.9316,-2.9316,-2.9316,-2.9316,-2.8991,-2.8631,-2.822,-2.8637,-2.8677,-2.7892,-2.784,-2.784,-2.784,-2.7476,-2.7146,-2.6809,-2.6424,-2.6145,-2.6008,-2.63,-2.6482,-2.6464,-2.6171,-2.5786,-2.5402,-2.5051,-2.4679,-2.4293,-2.4238,-2.4202,-2.4202,-2.4202,-2.4202,-2.4202,-2.4381,-2.3977,-2.3336,-2.3551,-2.3233,-2.275,-2.275,-2.2882,-2.2979,-2.2551,-2.2185,-2.1797,-2.1327,-2.0918,-2.0605,-2.0605,-2.0566,-2.0331,-1.957,-1.875,-1.8105,-1.8105,-1.8183,-1.8259,-1.8293,-1.8381,-1.8516,-1.8717,-1.8751,-1.8798,-1.8965,-1.8998,-1.8998,-1.8998,0.0,-1.9031,-1.9031,-1.8733,-1.8662,-1.9056,-1.8745,-1.8683,-1.9077,-1.9098,0.0,0.0,-1.9181,-1.9202,-1.9202,-1.9996,-2.06,-2.094,-2.2109,-2.2815,-2.3001,-2.3001,-2.3001,-2.3001,-2.3001,-2.3001,-2.3067,-2.405,-2.4486,-2.4552,-2.5513,-2.5906,-2.5906,-2.5906,-2.5906,-2.5906,-2.5906,-2.5906,-2.5906,-2.925,-2.9316,-2.9316,-2.9316,-2.9316,-2.9316,-2.9316,-2.9316,-2.9316,-2.9316,-2.9316,-2.9316,-2.9316,-2.8991,-2.8631,-2.822,-2.8019,-2.7702,-2.7289,-2.7254,-2.7254,-2.7254,-2.68,-2.6516,-2.6481,-2.6046,-2.5805,-2.5734,-2.5789,-2.5861,-2.5844,-2.6009,-2.5883,-2.5485,-2.535,-2.5051,-2.4666,-2.4349,-2.4202,-2.4202,-2.4202,-2.4202,-2.4202,-2.4251,-2.3851,-2.3289,-2.3336,-2.2978,-2.2441,-2.2441,-2.2618,-2.278,-2.2356,-2.21,-2.1797,-2.1327,-2.0918,-2.0605,-2.0605,-2.0293,-1.998,-1.9844,-1.9143,-1.85,-1.85,-1.8262,-1.8076,-1.8259,-1.8313,-1.8381,-1.8516,-1.8549,-1.8549,-1.8583,-1.8583,-1.8583,0.0,0.0,-1.8852,-1.8852,-1.8936,-1.9015,-1.9098,-1.9036,-1.9036,-1.9098,-1.9098,-1.9098,-1.9098,-1.9471,-1.9679,-1.9679,-2.0162,-2.0948,-2.2131,-2.2504,-2.2815,-2.3001,-2.3001,-2.3001,-2.3001,-2.3001,-2.3001,-2.3067,-2.405,-2.4486,-2.4552,-2.5513,-2.5906,-2.5906,-2.5906,-2.5906,-2.5906,-2.5906,-2.5906,-2.5906,-2.8988,-2.9185,-2.9316,-2.9316,-2.9316,-2.9316,-2.9316,-2.9316,-2.9316,-2.9316,-2.9316,-2.923,-2.9042,-2.8682,-2.8306,-2.7912,-2.7535,-2.7244,-2.709,-2.7073,-2.7073,-2.7073,-2.6703,-2.6278,-2.5881,-2.559,-2.5459,-2.5459,-2.5624,-2.5679,-2.5679,-2.5844,-2.5756,-2.5487,-2.5466,-2.5206,-2.4776,-2.4624,-2.4404,-2.4202,-2.4202,-2.4202,-2.4183,-2.3914,-2.3503,-2.3064,-2.2843,-2.2564,-2.222,-2.222,-2.2397,-2.2459,-2.1854,-2.1614,-2.1409,-2.0875,-2.0644,-2.0605,-2.0605,-2.0254,-1.9922,-1.9922,-1.9453,-1.8926,-1.8656,-1.8461,-1.8281,-1.8149,-1.8144,-1.8178,-1.8381,-1.8381,-1.8414,-1.8482,-1.8516,0.0,0.0,-1.8583,-1.865,-1.865,-1.8818,-1.8931,-1.8931,-1.9031,-1.9098,-1.9098,-1.9098,-1.9098,-1.9098,-1.9554,-1.9907,-2.012,-2.0555,-2.1224,-2.2252,-2.244,-2.2628,-2.2852,-2.2964,-2.3001,-2.3001,-2.3001,-2.3001,-2.3067,-2.405,-2.4486,-2.4552,-2.5513,-2.5906,-2.5906,-2.5906,-2.5906,-2.5906,-2.5906,-2.5906,-2.5906,-2.8741,-2.9005,-2.9185,-2.9316,-2.9316,-2.9316,-2.9316,-2.9316,-2.9316,-2.9316,-2.9316,-2.9179,-2.8819,-2.8426,-2.8032,-2.7638,-2.7278,-2.7073,-2.7073,-2.7073,-2.7073,-2.7073,-2.661,-2.6011,-2.5258,-2.5172,-2.5128,-2.5128,-2.5348,-2.5476,-2.5476,-2.5569,-2.5519,-2.5451,-2.5416,-2.5214,-2.4802,-2.471,-2.4487,-2.4202,-2.4202,-2.4202,-2.4165,-2.3694,-2.3242,-2.2858,-2.2437,-2.217,-2.2017,-2.2017,-2.2076,-2.207,-2.1334,-2.1074,-2.093,-2.0367,-2.0333,-2.045,-2.0566,-2.0332,-2.0059,-2.0059,-1.9746,-1.9355,-1.8968,-1.8831,-1.8637,-1.8242,-1.813,-1.8159,-1.8231,-1.8245,-1.8279,-1.8381,0.0,0.0,0.0,-1.8414,-1.8448,-1.8448,-1.8617,-1.8751,-1.8818,-1.8931,-1.9031,-1.9098,-1.9098,-1.9139,-1.9264,-1.9699,-2.0162,-2.0721,-2.1093,-2.152,-2.2101,-2.2252,-2.244,-2.2628,-2.2815,-2.2927,-2.2927,-2.2964,-2.3001,-2.3067,-2.405,-2.4486,-2.4552,-2.5513,-2.5906,-2.5906,-2.5906,-2.5906,-2.5906,-2.5906,-2.5906,-2.5906,-2.8675,-2.8807,-2.8939,-2.925,-2.9316,-2.9316,-2.9316,-2.9316,-2.9316,-2.9316,-2.9316,-2.9179,-2.8819,-2.8426,-2.8032,-2.7638,-2.7278,-2.7073,-2.7073,-2.7073,-2.7073,-2.7073,-2.6371,-2.5634,-2.4881,-2.483,-2.4812,-2.4812,-2.4868,-2.4868,-2.4868,-2.5128,-2.5203,-2.5223,-2.5163,-2.504,-2.4855,-2.4512,-2.4267,-2.4202,-2.4202,-2.4202,-2.4165,-2.3694,-2.3242,-2.2858,-2.2437,-2.208,-2.1731,-2.1731,-2.1651,-2.1459,-2.0987,-2.0743,-2.0569,-2.0074,-1.9942,-2.0059,-2.0489,-2.0586,-2.0566,-2.0566,-2.0195,-1.9863,-1.9824,-1.9512,-1.9121,-1.8637,-1.8559,-1.8442,-1.8086,-1.8008,-1.8042,-1.8042,0.0,0.0,-1.8042,-1.8212,-1.8293,-1.8293,-1.8448,-1.8617,-1.8785,-1.8798,-1.8898,-1.9098,-1.9098,-1.9285,-1.972,-2.0141,-2.0783,-2.1673,-2.1735,-2.1852,-2.2101,-2.2101,-2.2214,-2.244,-2.2628,-2.2703,-2.274,-2.2927,-2.3001,-2.3067,-2.405,-2.4486,-2.4552,-2.5513,-2.5906,-2.5906,-2.5906,-2.5906,-2.5906,-2.5906,-2.5906,-2.5906,-2.8048,-2.8329,-2.8593,-2.8922,-2.9005,-2.9053,-2.925,-2.9316,-2.9316,-2.9316,-2.9111,-2.8837,-2.846,-2.8066,-2.7672,-2.7313,-2.7158,-2.7073,-2.7073,-2.685,-2.661,-2.6371,-2.5857,-2.5343,-2.483,-2.4812,-2.4812,-2.4812,-2.4812,-2.4812,-2.4812,-2.4923,-2.5017,-2.5221,-2.5191,-2.4986,-2.4648,-2.4661,-2.4383,-2.3954,-2.4152,-2.4202,-2.4128,-2.337,-2.3041,-2.2821,-2.2144,-2.1815,-2.1687,-2.1687,-2.15,-2.1164,-2.0758,-2.0412,-2.0086,-1.9797,-1.9784,-1.9942,-2.0137,-2.0177,-2.0177,-2.0177,-2.0178,-2.0062,-1.9791,-1.9673,-1.9551,-1.9121,-1.9043,-1.8906,-1.8442,-1.8364,-1.8286,-1.8047,0.0,-1.8008,-1.8008,-1.8076,-1.811,-1.811,-1.8279,-1.8414,-1.8462,-1.8684,-1.8852,-1.8918,-1.93,-1.9616,-1.9782,-2.0452,-2.1155,-2.1776,-2.1797,-2.1856,-2.1911,-2.2025,-2.2138,-2.2214,-2.2402,-2.2515,-2.2515,-2.259,-2.2628,-2.2671,-2.3794,-2.4306,-2.4411,-2.5472,-2.5906,-2.5906,-2.5906,-2.5906,-2.5906,-2.5906,-2.5906,-2.5906,-2.77,-2.7915,-2.8196,-2.8609,-2.8675,-2.8741,-2.8922,-2.8988,-2.8988,-2.8988,-2.8796,-2.8503,-2.8111,-2.7781,-2.7467,-2.7107,-2.7073,-2.7021,-2.6902,-2.6422,-2.6028,-2.5771,-2.5515,-2.5189,-2.483,-2.4812,-2.4812,-2.4812,-2.4812,-2.4812,-2.4812,-2.4812,-2.4923,-2.5055,-2.4934,-2.4698,-2.4386,-2.4436,-2.4215,-2.3805,-2.4003,-2.4029,-2.3895,-2.3169,-2.2821,-2.262,-2.1943,-2.1687,-2.1687,-2.1687,-2.1321,-2.0869,-2.0613,-2.0154,-1.9677,-1.9561,-1.9587,-1.9706,-1.9706,-1.9706,-1.9745,-1.9863,-2.002,-2.01,-1.9851,-1.9927,-1.9924,-1.957,-1.9492,-1.9355,-1.889,-1.8812,-1.875,-1.8457,-1.8418,-1.8418,-1.8418,-1.8418,-1.8418,-1.8418,-1.8385,-1.8409,-1.8478,-1.863,-1.8812,-1.9002,-1.9514,-1.9927,-2.0197,-2.0907,-2.1487,-2.1797,-2.1797,-2.1797,-2.1797,-2.1949,-2.1987,-2.1987,-2.2214,-2.2327,-2.2327,-2.2365,-2.2488,-2.2679,-2.3663,-2.4172,-2.4366,-2.5391,-2.5822,-2.5822,-2.5864,-2.5906,-2.5906,-2.5906,-2.5906,-2.5906,-2.765,-2.77,-2.7849,-2.8196,-2.8329,-2.8329,-2.8329,-2.8329,-2.8329,-2.8329,-2.8275,-2.8084,-2.7714,-2.7639,-2.7467,-2.7107,-2.7073,-2.6902,-2.6508,-2.5788,-2.5434,-2.5417,-2.5417,-2.5189,-2.483,-2.4812,-2.4812,-2.4812,-2.4812,-2.4812,-2.4812,-2.4812,-2.4812,-2.4795,-2.4347,-2.4186,-2.4053,-2.3687,-2.3609,-2.3805,-2.3805,-2.3668,-2.3444,-2.3059,-2.2638,-2.2236,-2.1833,-2.1687,-2.1687,-2.1687,-2.1156,-2.0521,-2.0479,-1.9952,-1.9292,-1.9292,-1.9292,-1.9292,-1.9292,-1.9292,-1.939,-1.9784,-1.9902,-1.9981,-2.0216,-2.0313,-2.0217,-1.9982,-1.9922,-1.9785,-1.9375,-1.9297,-1.9297,-1.9297,-1.9297,-1.9297,-1.9297,-1.9297,-1.9297,-1.9297,-1.8906,-1.8668,-1.8879,-1.8674,-1.8785,-1.9471,-1.9699,-2.0197,-2.1073,-2.1549,-2.1797,-2.1797,-2.1797,-2.1797,-2.1797,-2.1797,-2.1797,-2.1797,-2.1987,-2.2101,-2.2101,-2.2289,-2.2658,-2.3147,-2.3575,-2.4043,-2.4573,-2.5292,-2.5612,-2.5612,-2.5822,-2.5906,-2.5906,-2.5906,-2.5906,-2.5906,-2.7334,-2.7334,-2.7451,-2.7849,-2.7849,-2.7981,-2.8263,-2.8329,-2.8329,-2.8329,-2.7847,-2.7433,-2.738,-2.686,-2.6627,-2.677,-2.6753,-2.6559,-2.609,-2.5634,-2.5258,-2.5001,-2.4984,-2.4932,-2.4812,-2.4812,-2.4812,-2.4812,-2.4812,-2.4812,-2.4812,-2.4812,-2.4675,-2.4347,-2.4227,-2.3871,-2.3375,-2.3462,-2.3405,-2.3256,-2.3456,-2.3323,-2.2978,-2.2566,-2.2171,-2.1777,-2.1365,-2.1221,-2.1186,-2.1093,-2.0703,-2.0219,-1.9802,-1.9494,-1.9292,-1.9292,-1.9292,-1.9292,-1.9292,-1.9292,-1.935,-1.9469,-1.9587,-1.9724,-1.9803,-2.0078,-2.0274,-2.0217,-2.0294,-2.0234,-1.9805,-1.9727,-1.9629,-1.9336,-1.9297,-1.9297,-1.9297,-1.9297,-1.9297,-1.9297,-1.918,-1.9102,-1.9154,-1.9235,-1.9413,-1.9747,-2.0355,-2.0969,-2.1569,-2.1735,-2.1797,-2.1797,-2.1797,-2.1797,-2.1797,-2.1797,-2.1797,-2.1797,-2.1835,-2.1873,-2.1873,-2.1949,-2.2238,-2.2718,-2.3337,-2.3861,-2.4324,-2.5019,-2.5338,-2.5338,-2.5591,-2.5696,-2.5696,-2.5864,-2.5906,-2.5906,-2.72,-2.72,-2.7267,-2.7451,-2.7517,-2.7584,-2.7799,-2.7865,-2.7816,-2.767,-2.7278,-2.6933,-2.6785,-2.6368,-2.6205,-2.6388,-2.6241,-2.594,-2.5507,-2.5304,-2.5052,-2.483,-2.4812,-2.4812,-2.4812,-2.4812,-2.4812,-2.4812,-2.4812,-2.4812,-2.4812,-2.4658,-2.4415,-2.4159,-2.3922,-2.3545,-2.31,-2.31,-2.3113,-2.2987,-2.3206,-2.2969,-2.2553,-2.2274,-2.1831,-2.1334,-2.1086,-2.0997,-2.1006,-2.0908,-2.0566,-2.0099,-1.9487,-1.9292,-1.9292,-1.9292,-1.9292,-1.9292,-1.9292,-1.9292,-1.9292,-1.9292,-1.939,-1.9508,-1.9566,-1.9843,-2.0078,-2.0274,-2.0372,-2.0411,-2.0215,-2.0176,-2.0098,-1.9824,-1.9785,-1.9785,-1.9785,-1.9785,-1.9785,-1.9785,-1.9648,-1.9531,-1.9531,-1.9597,-1.976,-2.0102,-2.0764,-2.1281,-2.1645,-2.1703,-2.1721,-2.1797,-2.1797,-2.1797,-2.1797,-2.1797,-2.1797,-2.1797,-2.1797,-2.1797,-2.1818,-2.2004,-2.2335,-2.2791,-2.3429,-2.3929,-2.4367,-2.4872,-2.5062,-2.5126,-2.5338,-2.5528,-2.5612,-2.5738,-2.5822,-2.5906,-2.72,-2.72,-2.72,-2.72,-2.72,-2.72,-2.72,-2.72,-2.7073,-2.6724,-2.6616,-2.6454,-2.6082,-2.6052,-2.6006,-2.6067,-2.5644,-2.5235,-2.4865,-2.4794,-2.4718,-2.4718,-2.4718,-2.4718,-2.4718,-2.4757,-2.4812,-2.4812,-2.4812,-2.4795,-2.4761,-2.4347,-2.4142,-2.4039,-2.3425,-2.31,-2.3049,-2.274,-2.2754,-2.2937,-2.292,-2.2597,-2.212,-2.2085,-2.1607,-2.0952,-2.0952,-2.0952,-2.0952,-2.0917,-2.0561,-2.0021,-1.9483,-1.9289,-1.9271,-1.9292,-1.9292,-1.9292,-1.9292,-1.9292,-1.9292,-1.9292,-1.9292,-1.935,-1.9508,-1.9606,-1.9724,-2.0157,-2.0274,-2.0333,-2.0527,-2.0605,-2.0605,-2.0605,-2.0605,-2.0605,-2.0605,-2.0605,-2.0605,-2.0605,-2.0215,-1.998,-1.998,-1.9797,-1.9959,-2.0487,-2.0946,-2.1282,-2.1474,-2.1474,-2.155,-2.1721,-2.1759,-2.1759,-2.1759,-2.1797,-2.1797,-2.1797,-2.1797,-2.1797,-2.1818,-2.2294,-2.2749,-2.3205,-2.3722,-2.4136,-2.4507,-2.4786,-2.4871,-2.485,-2.5062,-2.5338,-2.557,-2.557,-2.5696,-2.5864,-2.72,-2.72,-2.72,-2.72,-2.72,-2.72,-2.72,-2.72,-2.7073,-2.6724,-2.6423,-2.6136,-2.5738,-2.5434,-2.541,-2.5672,-2.5364,-2.4961,-2.458,-2.4288,-2.4089,-2.4089,-2.4089,-2.4089,-2.4089,-2.4535,-2.4812,-2.4812,-2.4812,-2.4658,-2.4313,-2.421,-2.3868,-2.334,-2.3186,-2.2946,-2.2723,-2.2637,-2.2653,-2.2669,-2.2326,-2.1979,-2.1514,-2.1285,-2.0888,-2.0473,-2.0473,-2.0473,-2.0421,-2.0305,-1.9911,-1.9431,-1.9493,-1.9344,-1.9112,-1.9271,-1.9292,-1.9292,-1.9292,-1.9292,-1.9292,-1.9292,-1.9292,-1.9311,-1.935,-1.9469,-1.9645,-1.9724,-2.0039,-2.0294,-2.0333,-2.0489,-2.0605,-2.0605,-2.0605,-2.0605,-2.0605,-2.0605,-2.0605,-2.0605,-2.0527,-2.0468,-2.0468,-2.0563,-2.0658,-2.0796,-2.1029,-2.1205,-2.1244,-2.1282,-2.1282,-2.132,-2.1474,-2.1589,-2.1589,-2.1721,-2.1797,-2.1797,-2.1797,-2.1797,-2.1818,-2.2294,-2.2749,-2.3205,-2.3722,-2.4136,-2.4507,-2.4572,-2.4572,-2.4615,-2.4871,-2.4999,-2.5084,-2.5253,-2.5338,-2.538,-2.72,-2.72,-2.72,-2.72,-2.72,-2.7153,-2.6978,-2.6946,-2.6771,-2.6247,-2.6025,-2.5771,-2.5421,-2.5214,-2.5037,-2.4884,-2.4649,-2.4367,-2.4048,-2.3964,-2.3921,-2.3921,-2.3921,-2.3921,-2.3921,-2.42,-2.4423,-2.4607,-2.4607,-2.4459,-2.4176,-2.4042,-2.3665,-2.31,-2.2929,-2.2774,-2.2603,-2.2603,-2.2603,-2.2568,-2.2141,-2.1764,-2.1371,-2.1011,-2.0634,-2.0292,-2.0292,-2.0292,-2.0286,-2.013,-1.9904,-1.9664,-1.9698,-1.9626,-1.9575,-1.9457,-1.9524,-1.9549,-1.9347,-1.9292,-1.9292,-1.9292,-1.9292,-1.9292,-1.9292,-1.939,-1.9469,-1.9566,-1.9803,-2.0039,-2.0274,-2.0372,-2.0489,-2.0566,-2.0605,-2.0605,-2.0605,-2.0605,-2.0605,-2.0605,-2.0605,-2.0605,-2.0605,-2.0702,-2.078,-2.078,-2.0858,-2.0974,-2.1051,-2.1051,-2.1089,-2.1205,-2.132,-2.1359,-2.1359,-2.155,-2.1665,-2.1645,-2.1759,-2.1921,-2.2149,-2.2625,-2.308,-2.3536,-2.3991,-2.4322,-2.4507,-2.4507,-2.4507,-2.4487,-2.4658,-2.4786,-2.4893,-2.502,-2.5105,-2.5189,-2.7134,-2.7134,-2.7185,-2.7121,-2.7105,-2.6994,-2.6644,-2.6581,-2.6358,-2.5723,-2.5581,-2.55,-2.5151,-2.5056,-2.4738,-2.4082,-2.3937,-2.3747,-2.3448,-2.3641,-2.3753,-2.3753,-2.3753,-2.3753,-2.3753,-2.3753,-2.3921,-2.4312,-2.4261,-2.4137,-2.4019,-2.3698,-2.3374,-2.2997,-2.274,-2.2603,-2.2603,-2.2603,-2.2568,-2.2465,-2.2055,-2.1662,-2.1285,-2.0925,-2.0583,-2.0292,-2.0292,-2.0292,-2.0286,-2.0155,-2.0104,-2.0,-1.9885,-1.9958,-2.0045,-1.9781,-1.9838,-1.9871,-1.9604,-1.9512,-1.9512,-1.9512,-1.9457,-1.9402,-1.9402,-1.9347,-1.935,-1.9508,-1.9566,-1.9724,-2.0117,-2.0274,-2.0333,-2.0527,-2.0566,-2.0605,-2.0605,-2.0605,-2.0605,-2.0605,-2.0605,-2.0605,-2.0605,-2.0605,-2.0605,-2.0605,-2.0605,-2.0644,-2.0819,-2.0858,-2.0935,-2.1089,-2.1128,-2.1167,-2.1167,-2.1359,-2.1474,-2.1512,-2.1747,-2.209,-2.2522,-2.306,-2.3515,-2.3908,-2.4343,-2.4507,-2.4507,-2.4507,-2.4507,-2.4507,-2.4507,-2.4615,-2.4828,-2.4828,-2.4956,-2.5084,-2.68,-2.7,-2.7105,-2.6803,-2.674,-2.6628,-2.6343,-2.628,-2.6072,-2.5691,-2.5581,-2.55,-2.5151,-2.4833,-2.4372,-2.3615,-2.3578,-2.3445,-2.3094,-2.3078,-2.3135,-2.3135,-2.3135,-2.3135,-2.3135,-2.3135,-2.3416,-2.3977,-2.3662,-2.3478,-2.3325,-2.3007,-2.2791,-2.2671,-2.262,-2.2603,-2.2603,-2.2603,-2.2414,-2.2038,-2.1645,-2.1268,-2.0908,-2.0514,-2.0343,-2.0292,-2.0292,-2.0292,-2.0292,-2.0286,-2.0045,-1.9771,-1.9983,-1.9869,-1.9657,-2.0003,-2.0111,-2.0196,-2.0291,-2.0356,-2.0356,-2.0356,-2.0099,-1.9802,-1.9802,-1.9567,-1.9311,-1.935,-1.9469,-1.9606,-1.9685,-2.0039,-2.0294,-2.0352,-2.0489,-2.0605,-2.0605,-2.0605,-2.0605,-2.0605,-2.0605,-2.0605,-2.0605,-2.0605,-2.0605,-2.0605,-2.0605,-2.0605,-2.0644,-2.0644,-2.0644,-2.0683,-2.0858,-2.0935,-2.0935,-2.1128,-2.132,-2.1512,-2.1939,-2.2282,-2.2522,-2.3391,-2.3826,-2.3908,-2.4343,-2.4507,-2.4507,-2.4507,-2.4507,-2.4507,-2.4507,-2.4529,-2.4529,-2.4529,-2.4572,-2.4572,-2.6121,-2.623,-2.632,-2.6163,-2.6325,-2.6327,-2.5914,-2.5866,-2.5739,-2.5389,-2.5342,-2.5278,-2.5135,-2.4611,-2.4086,-2.3536,-2.3298,-2.3181,-2.3022,-2.3022,-2.3022,-2.3022,-2.3022,-2.3022,-2.3022,-2.2815,-2.2831,-2.3109,-2.3113,-2.2971,-2.2675,-2.2578,-2.2398,-2.2333,-2.2333,-2.2434,-2.2603,-2.2603,-2.2379,-2.197,-2.1559,-2.1199,-2.0886,-2.0446,-2.0292,-2.0292,-2.0292,-2.0292,-2.0292,-2.0292,-2.0189,-2.0052,-2.0186,-2.0199,-2.014,-2.0165,-2.0311,-2.0515,-2.0383,-2.0395,-2.0521,-2.0521,-2.0393,-2.0264,-2.0264,-1.9893,-1.9586,-1.9347,-1.939,-1.9469,-1.9566,-1.9764,-1.9981,-2.0274,-2.0372,-2.045,-2.0566,-2.0605,-2.0605,-2.0605,-2.0605,-2.0605,-2.0605,-2.0605,-2.0605,-2.0605,-2.0605,-2.0605,-2.0605,-2.0605,-2.0605,-2.0605,-2.0683,-2.0741,-2.0741,-2.0935,-2.1089,-2.1187,-2.2108,-2.2694,-2.2894,-2.3577,-2.4012,-2.426,-2.4404,-2.4507,-2.4507,-2.4507,-2.4507,-2.4507,-2.4507,-2.4507,-2.4507,-2.4507,-2.4507,-2.4507]}]]